GFSMA_sfc_30mbdewp_000.txt.gz
Dewpoint
58 58 55 56 55 57 57 57 55 57 59 60 60 59 58 57 56 55 55 52 55 58 60 60 59 61 59 59 57 56 54 55 54 55 55 54 55 55 55 55 55 55 55
56 58 56 55 57 59 59 58 58 57 58 59 59 59 58 57 57 57 57 54 52 52 56 60 60 60 60 59 57 56 56 54 54 54 54 54 55 55 55 55 55 54 54
52 53 51 51 51 56 57 59 59 60 59 59 57 56 56 57 58 57 56 55 53 50 51 57 60 60 61 59 57 56 56 56 55 54 54 54 55 55 54 55 55 54 54
44 45 46 48 49 50 51 51 50 52 56 58 57 56 55 54 56 57 56 55 54 49 44 51 57 60 60 60 58 56 55 57 56 55 55 54 55 55 54 55 55 54 54
37 35 37 40 40 39 42 42 43 48 48 50 52 55 56 56 56 55 55 55 54 53 48 41 52 56 60 60 60 57 55 55 57 56 56 55 55 55 55 55 56 55 55
32 30 32 35 32 30 29 31 31 33 38 46 44 49 56 56 57 56 56 55 55 55 54 52 42 51 59 60 59 59 57 54 54 56 56 57 55 55 56 55 56 56 55
29 29 27 28 29 30 32 30 27 26 28 35 33 42 46 55 55 55 55 55 55 54 53 52 48 43 52 60 59 59 57 55 52 54 56 56 56 56 56 56 56 56 55
30 27 27 26 29 26 27 29 29 26 23 28 30 29 40 46 52 53 54 55 54 53 53 52 51 44 44 52 57 58 57 57 55 54 56 55 56 55 56 56 56 56 56
33 33 31 30 29 30 27 28 28 28 24 23 28 31 26 36 41 46 51 54 54 54 53 52 52 47 43 46 53 57 57 57 57 56 55 55 56 56 56 56 56 55 56
33 34 34 34 35 33 30 28 25 27 27 25 22 23 34 28 25 25 39 43 53 54 53 54 52 51 47 46 48 52 56 56 57 56 56 56 56 56 56 55 54 54 55
32 32 33 35 36 35 33 33 33 29 28 27 25 23 22 24 25 30 25 28 43 46 52 53 53 53 53 49 48 50 54 56 56 57 56 56 56 56 56 55 54 53 54
25 27 29 30 31 32 32 32 33 33 32 30 28 26 23 22 20 19 28 29 26 32 43 49 52 52 52 53 50 48 52 54 54 56 56 56 56 57 56 55 54 53 53
22 22 23 24 23 24 25 26 27 28 29 28 27 26 25 23 23 21 20 21 21 27 34 44 50 52 52 52 51 49 50 52 53 53 55 56 56 56 56 57 55 52 52
21 22 23 22 22 23 23 23 23 23 24 28 28 29 27 23 22 22 21 20 19 21 25 32 45 50 52 51 52 51 49 50 51 52 52 53 56 56 56 56 54 51 52
19 17 21 22 23 24 25 25 25 25 26 28 30 31 30 30 25 24 24 23 21 18 17 19 31 45 48 51 51 51 50 48 50 50 50 51 52 55 55 55 54 53 53
20 20 21 22 22 23 24 24 24 24 24 27 27 28 29 30 26 25 25 25 25 24 21 19 19 39 46 48 49 50 50 50 47 48 48 49 50 51 54 54 54 53 53
21 21 21 22 22 22 23 23 24 24 24 25 25 27 27 28 29 27 25 24 24 24 24 25 24 29 37 42 45 47 49 49 49 46 46 47 49 50 52 53 52 52 51
22 22 22 21 20 20 20 21 22 22 23 24 24 24 24 26 27 28 27 25 23 23 22 23 25 26 34 37 43 43 45 48 49 47 46 46 49 50 50 49 48 47 45
21 20 18 17 17 18 19 20 21 23 23 24 25 25 25 25 26 27 26 25 24 23 23 25 25 25 29 37 43 43 43 45 47 47 46 47 48 48 46 45 44 43 42
18 16 16 16 17 18 19 21 21 22 23 24 26 27 28 27 29 27 25 25 25 25 25 24 23 23 26 34 41 40 38 40 41 43 45 46 45 44 43 42 41 40 41
15 15 15 15 17 19 20 20 21 21 22 23 25 26 26 27 28 29 29 29 27 27 27 25 25 26 26 30 37 39 38 36 35 36 37 41 43 43 41 40 40 40 40
12 13 14 15 18 19 20 22 22 22 23 24 25 25 26 26 27 27 27 29 33 32 29 27 25 25 25 28 34 38 35 33 33 33 33 33 37 39 40 40 39 39 38
12 13 15 18 20 20 21 21 21 23 25 25 25 25 24 24 25 25 28 28 28 29 29 30 29 25 24 25 29 37 36 36 34 32 33 29 31 32 35 37 37 37 37
12 15 18 20 20 20 21 21 22 24 26 26 26 25 25 26 25 25 25 27 28 29 28 27 26 30 26 25 27 37 36 35 32 32 31 27 28 27 30 32 35 35 35
15 18 19 20 20 22 22 22 23 25 26 25 25 25 25 26 27 26 26 26 26 29 32 31 30 29 28 31 36 35 35 33 29 29 28 26 25 26 29 30 32 33 34
17 20 21 21 22 23 23 23 25 26 25 25 25 26 26 26 27 27 27 27 27 26 28 32 33 33 31 31 35 37 36 34 30 27 28 23 24 23 21 26 31 32 33

GFSMA_sfc_30mbdewp_003.txt.gz
Dewpoint
54 54 53 53 54 55 57 57 56 55 58 58 58 57 58 59 59 58 56 54 53 54 54 56 60 60 60 61 60 59 56 55 55 54 57 58 57 58 58 57 56 56 56
52 52 52 52 52 56 58 59 59 58 58 58 57 58 59 59 59 57 56 56 55 55 53 52 57 59 60 61 61 59 58 56 55 54 56 57 57 57 57 57 56 56 56
48 45 44 45 47 51 54 54 53 56 58 59 58 57 57 57 58 58 57 56 57 54 54 53 53 59 60 60 61 59 58 57 57 55 55 56 56 56 56 56 56 55 55
42 42 41 41 42 42 44 46 48 50 52 55 54 57 57 56 54 55 57 57 56 55 53 53 53 51 59 60 61 59 57 58 57 56 56 56 55 55 55 56 55 55 55
36 33 35 37 36 33 33 32 32 37 40 44 49 47 50 56 55 55 56 57 57 56 54 51 52 52 54 59 59 61 58 57 57 56 56 55 55 55 55 55 55 54 55
31 30 31 34 33 30 31 33 31 29 30 32 37 35 41 54 57 56 57 56 55 56 55 54 49 51 52 57 59 60 61 57 56 56 56 56 55 55 55 55 55 55 55
31 31 29 29 31 29 31 33 32 30 28 28 31 32 30 37 48 55 57 56 55 55 55 56 56 52 47 53 56 59 60 60 57 57 58 56 56 55 55 55 55 55 55
31 30 29 29 28 29 31 31 31 30 29 28 26 27 28 30 35 45 50 54 54 55 55 55 55 55 51 49 55 57 59 61 60 58 58 58 57 56 55 56 56 56 56
33 32 32 31 31 32 30 30 30 30 28 30 30 26 24 26 33 28 37 42 52 55 55 54 54 54 53 51 49 56 58 59 60 58 57 58 58 57 55 55 56 56 56
32 33 32 30 30 31 31 32 30 32 32 30 31 29 31 28 25 27 27 29 40 43 52 56 53 53 54 54 52 49 57 57 58 58 57 56 58 58 56 55 56 56 56
30 31 31 30 31 31 31 34 35 35 33 33 32 31 31 30 30 28 26 26 29 37 49 48 51 55 53 53 53 52 52 56 56 57 57 56 57 57 57 56 56 56 56
28 27 26 28 29 29 29 31 34 34 34 34 34 33 31 30 28 28 27 27 25 29 32 39 47 52 55 54 53 52 51 53 55 56 57 56 57 57 57 56 56 56 55
24 25 25 27 25 24 24 25 28 30 29 29 31 31 30 29 28 28 27 26 26 25 26 29 41 45 51 54 55 53 53 52 53 55 56 56 56 56 57 57 56 55 55
23 23 23 23 22 22 22 24 25 27 27 27 28 29 28 28 29 28 27 25 24 25 25 27 30 44 48 52 53 53 53 53 52 53 54 55 56 56 56 56 56 54 53
20 19 21 22 21 21 21 23 26 26 27 28 30 32 31 30 31 32 32 29 25 23 23 23 24 29 44 47 50 52 52 53 53 51 52 54 55 55 55 56 55 53 52
22 21 20 20 20 20 21 23 25 25 27 28 27 29 29 29 29 30 31 32 29 26 25 25 23 25 35 47 49 50 51 51 52 50 49 51 53 54 55 55 55 53 52
21 20 20 19 20 21 21 22 22 24 24 25 26 27 28 28 28 28 30 31 31 28 25 26 26 26 28 41 45 46 48 48 50 50 48 48 50 52 53 54 54 55 52
21 21 20 20 20 19 19 19 20 20 21 21 23 24 25 24 26 28 28 30 30 30 26 24 25 25 27 30 32 39 43 47 48 48 49 46 47 48 51 52 52 52 52
20 20 19 19 18 18 18 19 18 19 20 22 23 24 25 26 26 26 27 27 29 28 27 25 24 25 25 27 31 36 42 43 45 45 46 45 45 46 48 50 50 50 50
20 19 18 17 17 18 18 17 18 19 21 22 24 25 25 25 26 27 28 29 28 28 28 26 25 25 26 25 28 33 40 41 42 43 45 45 45 45 46 48 49 49 48
19 17 15 16 17 17 16 17 19 20 22 23 23 24 25 26 26 27 27 28 30 30 28 27 27 27 27 25 25 31 38 38 37 39 39 39 42 44 46 47 48 48 46
14 15 15 16 16 16 18 23 23 22 23 23 24 24 23 24 25 26 27 27 27 28 30 32 30 28 28 28 27 27 35 35 34 36 36 35 39 39 43 46 46 44 43
14 15 15 15 17 19 21 23 23 23 24 25 24 25 25 23 25 25 26 27 28 27 27 26 28 31 29 28 28 26 34 36 35 35 34 31 32 35 32 37 42 41 41
14 15 16 17 19 20 22 24 24 24 25 25 25 25 26 26 26 26 27 29 27 28 28 27 26 27 30 31 33 32 33 36 33 34 33 29 29 29 32 34 38 40 39
15 15 17 20 21 22 23 24 24 27 26 26 25 25 26 27 27 26 29 28 29 30 30 29 31 30 27 27 29 31 36 34 29 30 30 27 27 27 30 30 32 35 38
14 19 21 22 22 23 25 26 27 28 28 28 27 27 26 26 28 29 29 28 27 27 26 27 31 32 33 28 27 30 34 35 31 28 30 25 26 26 24 29 30 31 31

GFSMA_sfc_30mbdewp_006.txt.gz
Dewpoint
55 55 54 54 55 55 56 57 56 55 55 56 56 56 56 56 58 59 58 58 56 56 58 58 60 61 62 63 62 62 60 58 57 57 59 61 60 59 60 59 58 58 57
54 54 53 52 52 53 55 56 57 57 57 58 57 58 58 55 56 58 58 58 56 55 55 55 57 60 61 63 63 62 60 59 57 56 57 59 59 59 59 59 58 57 57
48 46 46 46 48 50 51 52 53 53 55 57 58 58 58 58 58 59 59 59 57 56 55 55 56 56 60 62 63 62 61 59 58 57 57 58 58 58 59 58 57 56 55
44 44 43 44 43 43 43 41 41 42 48 50 54 54 54 55 57 57 57 58 57 57 57 56 55 55 56 59 61 62 61 60 58 58 57 57 55 57 58 56 56 53 53
38 37 39 42 40 37 36 36 36 35 34 35 36 43 43 46 49 54 56 56 58 57 56 56 55 55 54 56 60 61 61 60 59 58 58 57 56 56 56 56 52 52 54
35 35 37 37 37 35 36 37 37 37 37 35 32 32 37 39 47 54 55 57 57 57 57 56 56 54 53 54 54 58 59 61 59 58 58 57 57 57 55 53 52 53 54
36 35 35 34 36 35 36 36 37 36 35 37 35 32 32 33 36 38 49 55 57 57 57 56 56 55 50 51 53 55 55 57 63 59 58 58 57 57 55 54 54 55 54
34 35 36 33 34 34 35 37 38 35 36 34 35 34 31 30 33 33 36 42 47 54 55 56 55 55 55 54 51 54 56 57 60 62 59 58 57 56 55 55 55 55 55
38 37 37 36 35 36 36 37 35 35 34 36 34 34 32 30 32 31 32 32 35 41 49 52 56 56 55 55 54 53 55 56 59 61 62 59 57 57 55 55 55 55 56
38 36 36 37 37 36 35 37 36 39 37 35 36 36 35 34 32 30 32 31 30 30 39 48 50 53 55 54 54 54 51 54 56 59 61 60 59 58 56 55 55 55 56
33 33 33 34 36 37 37 37 36 36 37 37 36 36 35 35 34 33 31 30 31 31 31 43 49 49 48 53 54 54 53 51 54 57 57 59 60 58 57 56 55 56 56
32 33 32 32 32 32 32 32 32 32 32 33 34 34 33 32 31 30 29 29 29 30 29 30 43 45 47 51 52 54 52 51 52 54 57 59 59 59 59 57 56 55 56
28 29 28 29 28 28 28 29 29 29 30 30 29 29 29 29 29 29 27 24 24 25 28 29 30 34 45 48 49 47 49 52 52 53 54 57 58 58 58 58 57 56 56
26 27 26 27 27 27 28 28 28 29 29 29 29 30 30 30 29 28 27 27 25 25 27 28 30 30 40 46 49 51 53 53 52 52 53 54 56 57 57 57 57 56 56
25 27 27 27 27 29 29 29 28 27 29 29 30 30 30 30 32 31 30 28 26 26 27 29 27 28 30 45 48 51 51 51 52 51 51 52 53 55 56 56 56 56 56
25 27 26 26 26 26 26 26 27 28 28 28 28 29 29 29 29 29 29 30 30 30 28 28 29 28 28 29 43 45 49 50 49 49 50 50 51 52 54 55 55 55 55
26 26 26 25 24 24 24 25 25 26 25 25 26 26 26 27 27 27 28 28 28 29 28 29 31 31 29 28 31 43 46 48 48 48 49 48 48 49 51 54 54 54 54
27 26 25 24 23 23 23 23 23 23 23 23 23 24 24 24 25 26 27 27 27 28 29 29 30 31 29 28 25 28 40 45 45 45 47 48 46 47 48 49 52 53 53
25 25 24 24 23 23 22 22 22 22 22 22 22 23 23 24 24 25 26 27 27 27 28 29 29 30 29 29 27 26 27 38 44 45 44 44 45 46 46 46 47 50 51
26 25 24 23 22 21 20 20 20 20 21 21 24 25 26 26 26 26 26 26 26 27 29 30 30 29 29 28 27 26 25 35 39 41 42 43 44 44 45 46 46 47 51
25 24 21 20 21 21 19 18 21 22 22 23 24 24 24 24 25 26 26 26 26 26 27 30 30 30 29 28 27 28 28 30 39 39 38 39 40 43 44 44 45 45 48
22 20 20 20 21 19 19 22 26 24 24 23 24 24 24 24 24 24 25 26 26 25 25 27 29 31 31 31 29 29 29 30 31 37 37 37 36 38 41 44 46 45 46
20 20 20 20 20 21 22 25 25 24 24 24 24 24 24 23 24 24 25 26 27 27 27 25 23 23 27 29 32 32 33 32 34 35 35 34 33 34 34 37 42 44 46
19 19 20 20 21 23 24 24 24 24 24 25 25 25 25 25 25 25 25 27 29 29 28 28 27 25 24 25 27 30 33 34 35 34 34 33 29 29 32 33 39 41 44
18 19 20 22 22 23 24 24 25 25 28 28 27 26 26 26 25 26 28 28 28 27 28 31 30 29 27 26 26 26 29 30 31 31 32 29 27 27 29 30 32 38 40
17 21 21 24 25 23 24 25 26 28 28 28 27 28 28 30 29 29 28 28 26 26 28 26 27 29 31 30 31 31 27 27 30 29 31 28 26 27 25 29 30 32 34

GFSMA_sfc_30mbdewp_009.txt.gz
Dewpoint
56 56 55 53 55 55 56 56 56 55 54 54 55 55 55 55 55 56 57 59 59 58 58 59 59 60 62 64 64 63 64 63 62 62 62 62 62 61 62 61 61 60 59
53 54 54 53 52 53 54 54 53 53 55 57 57 57 57 57 56 56 56 57 58 59 58 58 58 59 60 63 64 63 63 63 62 61 61 62 61 60 61 61 60 59 58
48 47 46 47 47 49 51 49 50 50 50 52 53 56 56 56 58 58 57 58 58 59 58 57 57 57 58 59 63 63 62 62 61 61 60 60 61 60 60 60 59 58 58
46 45 45 43 39 42 42 35 37 35 37 36 38 41 53 50 48 49 55 58 59 58 59 58 57 57 56 56 58 62 63 62 61 60 59 59 60 60 59 59 59 58 57
39 38 42 40 37 40 37 36 35 36 34 35 34 33 33 34 38 41 46 53 57 58 58 58 58 58 57 56 55 56 57 63 62 60 59 59 59 59 58 59 58 55 53
37 35 40 40 37 37 38 36 35 37 37 34 36 35 34 37 36 37 44 47 51 56 58 57 57 57 57 57 57 56 56 58 62 61 60 59 58 58 57 57 57 56 53
36 34 35 38 38 36 37 37 37 35 33 36 34 34 33 33 33 33 38 39 45 38 56 57 57 56 55 55 56 55 54 53 56 61 61 59 58 58 57 57 56 56 52
36 35 34 35 34 34 33 34 39 36 37 35 35 33 30 32 32 34 33 34 34 41 35 42 53 55 56 55 53 53 54 52 51 56 61 61 59 58 57 56 54 53 54
37 37 36 37 36 35 34 36 35 34 33 36 35 34 32 30 33 33 33 33 34 34 36 38 46 51 49 56 56 55 54 54 55 56 57 61 60 59 58 56 54 54 55
38 38 37 38 38 37 36 38 38 37 36 35 37 36 36 36 34 32 33 33 33 33 35 37 43 47 51 55 55 55 54 53 53 55 56 57 60 59 59 57 56 55 55
40 39 38 37 37 37 34 33 32 31 34 34 33 34 34 34 35 32 29 30 31 31 32 34 37 44 49 48 48 48 47 54 52 53 55 57 57 58 59 58 56 55 55
33 32 31 31 30 29 28 29 28 26 25 28 30 31 31 29 28 29 28 28 27 29 29 29 31 36 40 44 49 50 47 42 51 52 53 55 56 58 57 59 58 56 55
30 29 28 28 29 29 29 28 27 28 28 27 29 29 31 30 29 27 26 24 23 23 24 25 29 31 34 39 43 46 45 42 41 44 51 53 55 56 58 58 59 58 56
29 30 30 30 29 31 32 34 32 28 29 29 28 29 30 30 30 30 28 27 25 25 25 25 31 32 33 34 38 46 49 49 49 51 52 52 53 54 54 56 57 58 57
29 31 32 31 34 35 35 32 31 29 29 29 30 30 31 30 31 30 30 29 28 26 26 27 26 27 27 33 41 43 48 50 49 49 50 50 51 51 52 53 55 57 57
31 32 34 35 35 34 31 27 28 28 28 29 29 29 29 29 30 31 31 31 31 30 27 28 28 31 31 32 33 36 40 41 47 48 48 48 49 49 50 50 51 53 56
32 34 34 34 31 26 26 27 27 27 26 26 27 26 27 27 28 28 29 28 27 27 26 27 27 28 31 31 32 32 36 41 45 46 47 48 48 47 47 46 47 49 52
31 29 29 28 26 27 27 26 25 25 24 24 24 25 25 24 24 25 26 25 26 26 26 25 26 27 29 32 32 31 30 37 40 44 45 44 45 46 46 46 46 46 47
29 29 26 26 26 26 25 25 23 22 22 23 23 23 23 23 23 24 25 26 26 27 28 28 28 30 31 31 31 31 30 31 41 42 43 43 42 43 44 44 45 46 46
28 27 26 26 26 24 22 22 22 21 22 23 24 25 25 25 25 25 24 25 25 26 26 26 26 26 28 30 31 30 29 28 28 40 43 43 42 41 42 43 44 45 46
26 26 26 23 22 23 20 20 24 25 24 24 24 25 24 25 25 26 24 23 23 24 24 24 24 24 24 27 29 30 29 28 29 33 36 38 38 38 39 41 42 44 45
25 22 21 22 21 21 21 27 26 25 25 24 23 23 23 24 24 25 25 25 25 24 23 23 23 23 24 26 32 32 32 30 27 34 36 36 37 36 37 38 40 42 43
21 20 20 20 20 23 24 24 24 23 23 23 23 24 24 24 24 24 24 25 25 26 26 25 24 23 23 24 26 29 29 31 31 33 35 33 33 34 34 34 36 37 39
19 18 19 21 22 22 24 25 25 25 25 24 25 25 25 25 25 25 25 24 24 25 26 26 27 27 26 25 24 24 25 30 32 33 34 32 30 31 30 32 34 35 38
17 19 21 20 22 24 25 25 25 26 26 26 27 27 27 28 27 27 27 27 26 26 26 28 29 29 29 29 27 26 25 25 25 28 32 32 28 28 28 29 30 33 35
17 20 20 24 23 24 24 25 24 26 26 25 25 25 25 25 27 28 28 28 26 26 26 27 27 28 29 30 32 29 29 26 25 26 30 31 28 28 28 27 29 31 33

GFSMA_sfc_30mbdewp_012.txt.gz
Dewpoint
56 57 56 53 54 55 55 55 56 55 54 54 55 55 55 55 55 55 56 56 57 58 58 59 59 60 61 62 62 63 63 63 63 63 63 63 63 63 63 63 62 61 61
55 55 54 54 53 53 52 51 51 50 50 52 53 55 57 57 57 57 56 57 57 57 57 57 58 59 59 61 62 62 62 63 63 62 63 62 62 62 63 62 62 61 60
48 52 51 51 50 51 51 48 46 43 41 41 38 41 50 52 47 48 53 57 58 58 58 58 59 59 59 58 60 62 62 62 62 63 62 62 62 62 62 62 62 61 60
47 45 45 44 42 46 45 36 36 34 35 35 35 36 39 38 37 39 41 47 55 58 59 59 59 59 59 59 58 58 61 62 62 61 61 62 62 61 61 61 61 61 60
43 41 45 42 38 40 38 35 35 35 34 34 34 35 35 33 35 37 36 42 50 52 54 57 58 59 59 59 59 58 57 59 62 62 61 61 62 61 61 61 61 60 59
41 38 41 41 38 38 37 37 35 37 36 34 35 33 34 33 34 34 34 39 41 46 41 53 55 58 58 58 58 58 58 57 58 58 62 61 60 61 60 60 60 59 59
40 37 36 40 39 37 37 37 36 36 34 36 34 34 33 34 34 31 36 36 37 37 43 38 43 53 57 56 58 59 58 58 57 57 60 61 61 59 60 59 59 58 58
40 36 35 36 38 38 37 37 38 36 36 37 34 34 30 31 31 34 34 34 35 37 36 37 40 44 50 50 53 56 57 57 57 56 57 58 60 59 59 59 58 58 58
40 37 36 36 35 36 33 34 36 35 33 37 35 34 31 28 33 32 34 35 34 35 36 37 37 40 47 51 53 53 47 46 55 54 55 55 56 60 60 59 58 57 57
39 39 38 37 37 38 37 38 37 37 36 33 35 37 36 36 30 28 32 32 34 32 34 33 35 37 42 49 51 45 44 40 42 54 55 56 56 56 59 60 58 57 57
38 39 39 39 40 39 35 30 28 26 29 28 28 29 28 29 32 28 24 22 26 29 32 34 34 33 33 35 40 46 48 44 42 49 52 55 56 56 56 58 59 58 56
38 39 38 35 32 31 30 30 31 30 30 30 30 29 29 27 26 27 26 25 24 25 26 28 28 27 29 32 36 38 47 45 46 42 47 52 54 55 56 56 60 59 58
32 31 31 31 32 34 35 36 36 36 34 30 28 28 28 29 30 30 29 27 27 27 28 29 29 30 32 33 35 37 41 46 45 45 46 49 52 54 55 56 56 58 59
31 32 34 36 37 38 38 38 36 35 33 30 29 29 29 29 30 29 28 29 28 27 26 26 29 29 28 30 32 35 38 46 47 49 49 50 50 52 53 53 53 55 58
33 35 37 39 39 39 39 36 34 31 32 31 29 29 29 30 32 31 31 30 28 27 27 28 29 30 31 32 33 36 40 42 47 48 43 45 48 48 49 49 50 51 52
36 38 39 39 39 38 34 30 32 32 29 29 29 29 29 29 30 30 30 30 29 27 25 25 25 26 29 30 32 32 35 36 39 41 44 45 45 46 48 48 48 48 46
36 37 37 35 34 33 33 32 29 28 28 27 27 27 27 27 27 28 29 28 28 28 26 26 27 28 29 30 31 33 34 34 36 39 44 42 43 46 46 44 45 44 46
32 32 33 32 31 31 29 28 27 26 25 24 24 24 24 24 24 25 26 25 25 25 25 23 24 26 27 30 32 33 34 34 35 36 36 38 43 44 43 44 43 42 43
29 29 29 28 28 28 27 26 25 23 23 23 23 24 24 25 25 25 26 26 27 27 27 26 26 27 28 31 29 30 32 33 33 34 36 38 41 43 42 41 42 43 43
28 28 27 27 27 27 24 24 23 23 24 24 24 24 24 24 24 24 24 23 23 23 23 24 24 24 25 26 28 28 29 31 31 31 36 40 40 41 41 41 41 41 43
27 27 27 24 23 23 21 23 26 25 24 24 24 24 24 24 24 25 25 24 24 23 22 21 21 21 22 22 24 26 28 31 32 31 31 34 39 40 39 39 39 40 40
26 23 21 21 20 21 23 25 25 24 23 22 22 23 23 23 23 24 25 26 26 25 23 22 22 21 22 23 24 26 28 29 28 31 33 33 35 35 37 37 38 38 39
21 19 18 19 21 22 22 24 25 24 24 24 24 24 24 24 24 24 25 26 26 26 26 25 23 23 24 24 24 26 26 27 26 30 33 31 32 33 34 35 37 36 37
18 18 19 20 20 21 25 25 25 25 25 25 25 25 25 24 25 25 25 26 25 25 25 25 25 26 26 27 26 25 25 25 26 28 34 29 30 31 30 31 33 35 36
17 17 19 22 23 23 24 25 24 24 24 26 25 25 25 25 25 25 25 27 27 26 26 27 27 26 27 28 28 27 26 26 24 24 28 30 30 29 28 29 29 31 33
18 21 22 22 22 22 23 23 22 24 25 24 24 24 24 25 25 27 27 26 25 26 26 26 26 27 28 29 29 31 29 25 25 24 26 28 28 29 28 25 27 28 29

GFSMA_sfc_30mbdewp_015.txt.gz
Dewpoint
56 56 56 55 54 55 55 55 55 54 54 53 54 54 54 56 56 56 56 54 54 54 58 59 58 58 59 61 62 62 62 62 62 62 62 63 64 63 63 64 63 63 62
55 55 55 53 54 54 53 51 49 47 47 48 47 47 51 55 52 50 48 49 50 52 54 55 58 59 58 59 60 61 62 62 62 62 61 62 63 63 63 63 63 63 62
52 54 54 53 52 51 50 48 45 39 37 37 35 37 44 46 39 40 40 43 48 52 55 57 53 55 59 59 60 60 60 62 62 62 62 62 62 63 63 63 63 62 62
49 48 48 49 48 49 47 37 36 34 34 35 34 35 35 35 34 36 37 40 45 51 53 50 53 55 57 58 58 58 59 59 61 63 62 62 62 62 62 62 63 62 62
47 46 45 45 42 42 43 36 35 35 33 33 33 35 34 33 33 35 34 37 38 43 44 47 44 48 50 56 58 59 58 58 59 61 62 62 62 61 61 62 62 62 62
45 42 43 44 40 39 39 37 35 36 35 34 34 34 34 34 34 34 33 37 37 39 38 45 39 43 47 52 53 56 59 58 58 59 60 63 62 61 61 61 61 61 61
44 41 40 42 40 37 36 37 36 34 35 36 34 33 33 34 33 32 35 34 35 37 38 38 39 41 44 48 49 46 44 57 57 60 59 60 62 62 61 60 60 61 61
44 42 38 39 40 38 37 37 36 36 36 37 32 34 30 31 31 33 33 35 34 37 37 36 38 37 41 43 47 51 49 45 48 51 53 58 59 61 61 61 60 60 60
44 43 39 37 39 40 37 37 37 36 33 36 36 33 30 27 32 31 30 32 34 32 33 35 33 34 37 41 46 48 47 41 41 45 47 51 56 58 59 61 61 60 60
41 43 41 38 37 38 38 37 38 37 36 34 35 37 32 34 23 17 27 27 24 28 30 31 33 35 36 37 35 35 39 45 42 37 42 45 45 56 57 58 60 60 59
39 41 41 40 39 39 38 37 34 30 29 28 27 27 28 30 31 27 18 18 23 25 27 29 31 32 31 32 32 34 38 40 45 39 37 39 45 44 54 56 56 57 60
36 39 40 40 38 34 32 32 32 32 32 32 32 32 31 27 24 25 25 23 25 26 28 30 30 30 31 32 35 36 34 34 36 45 42 40 45 49 47 55 56 56 57
35 35 36 34 35 37 38 39 38 37 37 35 35 34 33 33 31 29 29 27 26 26 27 29 30 30 31 32 32 33 37 36 39 45 47 47 47 50 53 53 55 56 55
33 36 37 38 39 39 39 39 38 38 39 38 36 35 31 30 30 29 28 27 26 25 25 26 28 29 30 31 31 36 37 39 37 36 44 46 45 47 49 51 53 51 51
36 38 39 40 39 38 39 40 37 35 35 34 33 31 30 29 30 30 30 30 28 24 23 24 26 28 29 31 33 30 31 35 35 35 33 35 45 46 47 48 49 50 50
37 39 39 38 38 38 38 38 35 33 32 31 30 29 29 29 30 31 30 30 29 28 25 25 25 27 28 29 31 33 34 35 36 35 36 37 39 46 46 47 48 47 46
37 38 34 34 36 36 35 34 32 31 29 28 27 26 25 27 27 27 28 28 28 27 25 24 26 26 26 26 27 29 31 33 36 36 37 38 39 41 42 45 45 44 43
33 31 32 33 33 33 32 29 28 27 25 24 24 24 24 24 24 26 27 27 26 25 25 23 23 24 25 26 30 31 31 32 33 34 35 35 37 38 39 41 43 42 41
30 30 30 30 29 29 28 27 26 24 24 24 25 25 25 25 25 25 25 25 26 26 26 25 25 26 27 27 27 28 29 29 30 30 31 31 34 38 40 41 42 42 41
30 29 28 28 28 25 23 23 22 23 24 24 24 24 24 24 23 23 23 23 23 23 23 23 22 22 23 24 25 24 25 28 29 30 30 32 33 36 39 41 41 40 41
32 29 26 23 22 21 20 23 25 24 23 23 23 23 23 23 23 23 23 24 24 24 23 22 22 22 21 22 22 23 24 26 29 31 32 33 33 35 39 40 41 41 40
30 23 20 20 19 21 23 24 24 25 25 23 22 23 24 24 24 24 25 25 26 25 24 24 24 23 22 23 23 23 24 24 23 27 31 32 34 34 35 38 40 39 39
20 19 19 20 20 21 23 25 25 25 25 24 24 24 24 24 24 25 25 25 26 26 27 26 25 24 23 23 24 24 24 24 24 26 29 27 31 31 33 34 36 37 38
18 18 18 20 22 22 23 23 24 25 24 24 25 25 25 25 25 24 23 25 25 24 24 24 26 25 26 25 25 26 24 24 25 25 28 25 26 28 30 30 32 35 37
17 18 21 22 21 20 22 22 23 23 23 23 24 25 25 24 25 25 25 25 25 25 25 27 27 26 26 27 27 27 26 25 23 23 25 25 25 26 28 28 29 31 34
19 21 21 20 20 20 21 23 23 23 24 24 24 23 23 23 25 26 26 26 25 24 24 25 26 27 29 28 29 28 28 24 24 23 24 24 25 26 25 26 26 27 29

GFSMA_sfc_30mbdewp_018.txt.gz
Dewpoint
57 57 57 56 56 55 54 54 54 53 52 50 51 52 53 55 52 50 47 46 49 48 51 53 57 58 59 59 60 61 61 62 62 63 62 62 62 63 63 64 64 63 62
56 55 55 54 53 54 54 51 48 45 44 45 39 40 43 52 41 40 40 41 47 51 53 51 52 53 55 59 59 60 61 61 61 62 62 62 62 62 62 63 63 63 63
55 55 54 53 53 53 51 48 47 40 37 37 35 36 40 40 37 37 38 40 42 48 48 49 43 44 48 53 57 59 60 61 61 62 62 62 62 62 62 62 63 63 63
51 52 53 52 52 51 50 44 37 34 34 34 34 34 35 35 34 35 35 38 38 42 42 45 44 42 43 45 51 57 58 59 60 61 61 62 62 62 61 61 62 62 63
50 48 48 49 49 47 48 42 36 34 33 33 33 34 34 34 33 34 34 36 36 38 39 43 41 42 44 44 48 51 54 57 58 58 59 61 62 63 62 61 61 61 62
47 47 46 46 45 43 42 40 35 36 34 33 33 34 34 34 34 34 32 37 35 37 37 39 38 39 40 39 39 45 47 48 56 57 58 57 61 62 61 62 61 61 61
46 46 44 44 44 42 40 39 36 34 35 37 34 33 33 34 34 34 34 33 35 35 37 36 37 38 36 38 41 45 46 51 45 48 53 53 55 57 59 61 62 61 60
45 45 44 42 43 42 40 38 36 35 35 37 32 33 29 30 32 33 33 34 32 37 34 33 35 33 34 38 39 36 34 34 41 39 42 48 51 53 55 59 61 61 61
40 43 44 42 41 42 40 38 37 36 33 36 36 31 30 28 30 30 32 28 33 28 32 31 29 32 33 35 36 37 35 36 40 43 40 42 47 48 50 54 59 61 62
37 40 43 43 41 40 40 39 38 38 36 34 37 37 33 32 20 18 23 29 22 25 25 28 30 30 32 33 33 34 35 39 36 34 38 41 42 46 49 51 54 58 61
38 38 40 42 42 40 40 39 38 37 35 35 27 30 28 30 30 23 22 20 24 24 26 28 30 32 33 32 32 33 36 36 37 38 38 40 41 44 48 49 50 57 58
39 38 39 41 40 37 35 33 34 33 33 34 34 34 32 31 29 29 28 28 25 25 27 28 30 30 31 31 33 34 34 36 38 41 40 46 45 41 43 49 50 53 58
35 35 36 37 38 38 38 38 38 38 38 38 38 38 38 37 36 33 32 29 25 25 26 29 29 30 31 32 32 34 35 36 35 34 35 34 42 46 43 46 48 48 52
35 38 38 39 39 39 40 40 40 40 40 39 38 36 35 35 35 34 30 27 24 24 23 24 28 27 30 31 32 33 34 34 32 33 36 36 37 39 42 47 48 47 50
37 39 39 39 38 39 39 39 38 37 37 36 36 36 35 34 33 32 31 30 28 22 20 22 24 28 29 30 30 32 33 33 35 36 34 33 35 39 41 45 45 47 49
38 38 38 36 36 35 37 36 37 37 36 35 35 33 31 30 30 30 30 30 30 27 24 23 24 26 27 27 30 31 30 31 30 30 34 36 37 38 40 45 45 47 47
38 38 36 35 34 32 35 36 36 33 31 29 28 26 25 26 26 27 29 29 28 28 25 24 24 25 26 27 26 28 29 30 34 36 35 35 35 36 38 40 41 45 45
34 32 33 32 33 33 32 30 29 28 26 24 24 24 23 24 25 26 27 27 27 27 26 24 24 25 24 26 26 27 30 32 30 30 31 31 31 32 33 36 38 40 44
33 35 33 31 29 29 28 26 24 23 23 23 24 24 25 25 24 24 24 24 24 24 24 24 22 23 25 27 26 27 28 28 29 29 30 31 32 32 33 34 37 40 41
35 34 32 29 26 23 22 21 21 23 24 24 24 23 23 22 22 21 22 22 22 22 22 22 22 22 22 23 24 24 24 26 27 28 28 29 30 32 34 35 37 39 40
33 30 24 22 22 21 20 24 24 23 22 22 24 24 22 23 22 22 23 23 24 24 23 23 23 23 22 24 23 23 23 23 25 28 28 30 32 32 32 35 38 39 40
35 24 20 20 20 21 23 25 26 26 26 25 24 23 23 23 24 24 24 25 26 25 24 24 23 22 22 22 23 23 23 22 21 25 25 27 31 31 34 35 37 39 40
20 19 19 19 20 22 23 22 22 24 25 25 25 24 23 23 24 23 23 22 23 25 25 26 24 24 24 24 23 23 23 23 22 23 25 26 30 30 31 33 33 35 37
18 18 19 21 22 20 21 21 22 23 23 23 23 23 24 24 23 23 23 25 26 25 24 24 23 24 24 25 25 25 24 24 25 25 26 24 25 24 27 29 31 33 35
18 19 21 21 20 20 21 22 23 23 23 23 23 24 25 24 23 23 24 25 24 24 25 26 27 28 28 27 27 27 25 24 22 23 25 24 24 24 25 26 29 30 31
20 21 20 19 19 19 21 23 23 22 23 24 22 22 23 24 25 26 26 26 24 26 27 27 27 27 28 30 30 29 28 24 23 23 23 23 23 24 23 25 27 28 28

GFSMA_sfc_30mbdewp_021.txt.gz
Dewpoint
60 60 59 58 58 58 56 55 55 54 52 50 51 50 50 54 46 40 38 47 50 50 52 53 54 55 56 58 59 60 60 61 61 62 62 62 61 62 62 62 63 64 62
58 57 57 57 56 56 55 56 53 47 45 45 40 41 43 49 39 40 38 41 52 47 48 46 45 47 48 51 55 58 60 60 61 61 62 62 62 62 62 62 62 63 63
56 56 56 56 55 55 56 54 50 47 41 40 38 39 42 43 39 39 40 40 42 45 45 48 43 43 45 47 50 54 56 59 60 60 61 61 61 62 62 61 62 62 63
54 54 54 54 55 55 54 52 49 43 38 36 36 36 36 37 38 38 36 37 38 36 42 43 42 43 42 43 44 48 52 53 57 60 60 61 61 61 62 62 62 62 62
52 52 51 51 54 54 53 52 47 42 37 35 35 36 37 35 36 33 35 37 37 37 35 40 40 41 40 39 39 44 49 50 54 56 59 59 59 61 62 62 62 61 62
50 50 49 50 50 50 50 50 48 43 38 36 33 32 37 36 36 36 35 34 34 38 37 38 36 32 36 32 36 40 43 50 49 46 51 53 55 57 60 62 62 62 61
46 48 47 48 49 47 47 48 46 44 39 39 36 35 36 38 38 36 36 35 33 33 38 36 32 30 26 34 40 38 38 38 38 43 42 45 49 53 55 58 59 61 61
43 44 46 45 46 46 46 46 45 41 39 39 34 34 31 32 35 36 35 34 37 33 36 29 31 25 26 24 28 35 35 36 37 39 42 43 42 47 51 53 56 59 61
41 42 43 44 44 45 44 45 44 42 39 38 38 33 32 30 31 34 36 34 33 35 29 28 24 26 24 26 31 33 34 37 37 36 36 37 42 43 45 50 53 55 58
41 42 42 42 43 44 43 43 43 43 41 38 38 37 37 35 31 29 30 31 32 27 27 26 27 26 26 28 32 34 34 35 36 35 37 40 40 42 43 45 49 51 54
41 42 41 41 42 43 43 43 43 42 40 39 37 37 37 33 31 28 28 27 24 26 26 28 29 28 29 27 24 27 34 37 36 39 39 39 41 46 44 43 46 50 52
40 40 39 41 41 41 40 39 38 39 37 37 35 34 33 32 30 28 28 28 29 31 28 27 27 27 26 26 28 33 35 36 36 37 33 33 35 38 47 43 42 47 51
37 37 39 40 39 39 39 39 40 40 40 39 39 38 38 37 36 34 32 33 32 29 26 26 26 26 27 26 26 34 33 35 35 35 34 36 35 34 37 41 44 46 48
37 39 39 39 39 40 40 40 40 40 38 37 36 34 33 33 35 35 34 33 30 28 25 24 23 23 24 25 26 32 25 33 33 35 36 34 31 31 35 39 40 46 45
38 40 40 39 39 39 39 39 38 37 37 37 36 36 35 35 36 35 34 32 29 23 20 19 17 20 23 23 25 27 25 27 34 33 31 31 32 37 38 39 40 46 47
39 39 39 38 38 37 37 37 36 36 36 36 35 35 35 34 33 32 30 28 25 21 16 15 16 18 22 22 22 25 25 30 28 31 30 31 37 37 36 36 37 39 41
39 38 35 34 34 35 35 35 35 34 33 31 30 29 27 27 25 24 23 22 21 21 20 18 20 21 23 23 23 23 25 25 25 29 33 36 34 33 32 32 32 34 38
36 37 37 37 37 35 32 30 29 28 26 24 23 22 21 20 21 23 23 23 23 22 21 20 19 20 21 23 23 23 23 22 22 25 33 32 31 30 31 32 31 32 34
37 37 36 33 32 31 26 24 22 21 21 21 22 22 23 24 22 21 20 20 19 19 19 19 18 18 19 20 20 22 23 23 23 24 27 29 30 31 31 32 34 33 35
34 33 33 28 25 22 20 20 21 22 22 22 22 22 21 21 20 19 18 18 18 19 19 19 18 19 19 20 21 21 21 23 24 24 25 26 27 28 31 31 33 35 36
34 35 33 24 23 21 19 22 21 22 22 21 21 21 21 21 22 22 21 20 20 20 21 22 21 19 19 20 21 21 21 21 22 24 24 26 26 27 28 30 31 32 34
34 25 22 21 21 19 23 24 23 20 20 20 20 20 20 21 21 22 24 24 24 23 23 23 21 20 19 19 20 21 23 22 21 24 24 25 26 26 27 28 29 34 36
22 20 20 20 21 22 21 21 21 20 21 20 20 20 20 20 22 22 23 23 25 25 25 23 22 21 20 20 21 22 23 23 21 21 24 24 25 25 28 30 31 33 33
20 20 20 21 20 18 20 21 22 22 22 21 21 21 21 22 23 23 23 24 23 24 25 25 25 23 23 22 22 22 23 24 24 23 24 24 25 26 27 27 28 28 31
20 20 20 19 18 19 19 21 23 22 21 21 22 22 21 22 23 26 26 26 24 23 23 25 26 27 27 26 26 27 26 25 23 21 24 26 24 24 25 27 30 29 31
19 20 19 19 20 20 21 22 21 21 21 20 21 21 23 24 26 27 27 25 22 21 20 21 21 23 27 27 28 30 28 25 22 20 20 22 21 21 21 26 29 31 31

GFSMA_sfc_30mbdewp_024.txt.gz
Dewpoint
56 56 55 54 53 52 52 51 51 51 50 48 45 45 43 45 47 40 39 43 50 51 51 51 52 54 55 56 58 60 60 60 61 61 61 61 61 62 63 63 63 64 64
55 53 51 49 48 49 49 50 50 49 45 43 41 39 37 40 39 37 33 41 51 47 48 46 47 47 48 50 52 55 57 59 60 61 61 61 61 61 62 62 62 63 64
53 53 48 47 45 47 51 52 51 50 47 42 38 37 37 41 37 36 36 36 39 42 49 44 44 45 46 47 49 52 54 56 59 60 60 61 60 61 62 62 62 62 63
53 51 48 46 46 47 48 48 48 46 44 41 37 34 34 35 37 37 36 35 35 34 44 43 43 43 43 43 43 46 51 51 53 58 60 60 61 61 61 62 62 62 61
50 50 47 46 47 47 46 47 46 46 43 40 37 35 35 35 35 34 34 35 36 34 33 39 42 41 39 38 40 43 47 50 51 50 54 55 57 58 60 61 61 62 62
45 47 45 46 47 46 45 45 46 45 44 41 36 32 33 35 35 34 34 34 35 36 35 34 35 33 34 32 36 39 42 44 47 48 45 48 50 53 56 58 61 62 62
43 44 44 44 44 45 46 46 45 45 45 43 41 37 36 36 38 37 35 34 33 35 34 36 35 30 31 30 36 35 37 39 39 39 43 45 43 46 50 53 56 58 60
42 41 42 43 43 43 44 45 47 46 44 43 41 38 33 33 36 38 37 35 35 34 32 36 32 31 29 29 30 32 35 36 38 39 39 41 45 44 45 47 51 55 57
40 40 40 41 42 43 42 43 44 44 44 44 42 40 35 32 33 34 38 37 35 36 33 33 31 28 29 28 29 33 34 33 35 36 37 38 39 39 43 44 46 50 53
37 38 39 40 41 41 41 41 41 43 43 42 42 42 42 40 36 34 36 36 36 35 35 32 29 29 30 29 30 30 28 33 36 33 34 38 39 42 42 44 44 45 48
34 34 38 40 41 41 40 42 43 43 43 42 41 41 41 40 39 38 34 34 35 34 32 31 30 31 31 31 30 29 31 34 37 36 39 36 37 38 40 44 45 44 44
31 33 36 39 41 41 41 41 41 41 41 41 40 39 38 37 36 37 35 35 34 32 29 30 32 32 32 32 30 28 30 34 36 37 37 34 34 36 38 40 47 45 44
32 34 38 39 40 41 41 40 40 40 40 40 39 38 37 37 36 35 34 35 35 36 35 33 31 31 29 30 30 27 31 35 35 37 34 34 34 34 34 35 39 42 45
34 37 39 40 39 39 39 40 40 40 38 38 36 36 35 35 36 35 33 33 32 34 33 35 32 29 27 28 27 30 28 26 32 33 35 36 34 32 31 33 36 38 41
35 38 39 38 39 40 39 38 39 38 37 37 36 36 35 35 36 36 36 35 33 28 26 23 23 24 23 24 25 26 26 27 32 33 35 34 32 29 29 34 38 38 39
38 38 39 37 37 38 38 39 38 38 36 36 35 35 34 33 33 31 32 30 28 25 20 17 15 15 17 17 20 22 23 26 27 33 32 32 31 29 34 37 34 34 34
37 36 37 38 38 38 37 36 35 34 32 30 29 27 25 23 22 21 20 21 20 19 17 16 16 17 19 21 22 23 24 24 24 29 29 30 31 35 37 34 32 32 31
38 39 38 37 35 33 34 33 29 27 25 23 23 22 20 18 19 20 19 20 19 19 18 17 16 17 18 20 21 22 22 21 21 21 28 29 32 36 34 33 32 32 32
37 36 34 32 29 28 26 24 23 23 23 22 21 20 20 20 21 20 20 19 18 16 16 16 15 16 17 17 18 19 20 21 21 23 25 28 30 31 30 30 31 32 32
32 32 32 33 33 28 24 22 21 21 21 20 21 21 21 21 21 20 19 17 17 17 16 16 16 15 16 17 18 18 19 20 21 21 22 23 24 26 30 32 33 34 35
31 31 29 25 24 23 18 22 21 19 19 18 18 19 19 20 21 22 21 19 18 17 17 17 20 20 19 18 18 19 20 20 22 23 24 25 25 25 26 29 28 28 31
22 22 22 22 21 20 23 22 22 18 17 18 19 18 18 19 19 22 23 24 24 22 21 22 21 21 20 21 21 21 22 23 22 24 24 26 27 27 25 25 26 28 32
21 20 20 21 21 21 21 21 21 19 19 20 20 19 17 16 20 21 23 24 24 24 25 23 22 22 20 21 21 22 23 24 23 22 24 26 29 26 28 26 28 30 33
20 20 20 20 20 18 20 20 21 20 20 20 19 18 18 21 21 23 24 23 24 24 25 26 26 24 22 24 24 24 24 24 25 25 25 25 27 27 27 29 29 30 31
19 19 19 19 19 20 21 21 22 20 20 20 20 21 22 23 23 26 26 25 23 23 21 23 25 26 26 26 26 27 27 25 24 22 24 25 26 26 25 28 30 29 30
18 20 21 21 21 20 21 21 20 20 22 22 21 22 23 23 26 27 27 27 24 20 21 24 23 25 25 26 28 28 28 25 25 23 21 24 25 24 24 27 28 30 31

GFSMA_sfc_30mbdewp_027.txt.gz
Dewpoint
52 52 51 50 49 48 47 47 47 47 48 48 46 44 43 41 43 44 38 42 45 48 50 51 53 55 55 56 57 59 60 61 61 61 61 61 61 61 61 62 62 63 64
51 51 49 47 46 45 45 46 45 46 46 44 43 42 41 37 36 40 36 41 48 48 48 48 49 49 50 51 54 55 56 58 60 61 61 61 61 61 61 61 61 62 63
49 50 47 46 45 45 46 46 47 47 46 45 42 41 38 39 38 39 36 34 42 42 50 45 45 46 47 48 48 51 54 54 56 60 60 61 61 60 61 62 61 62 62
50 49 47 46 46 48 46 46 45 45 44 43 42 40 37 36 36 39 38 37 35 36 44 46 44 44 43 43 44 46 50 51 55 56 59 60 61 61 61 61 62 62 62
46 47 46 46 47 46 46 46 45 46 44 44 43 41 39 37 37 36 37 38 38 35 35 44 43 43 41 39 40 43 46 50 51 49 51 54 55 57 58 60 62 62 62
44 45 45 45 46 45 45 46 48 46 46 46 43 41 42 39 38 39 37 36 36 38 38 38 39 35 38 34 35 38 42 43 45 48 47 45 47 50 53 56 58 60 62
44 44 43 43 44 43 45 47 48 47 48 47 46 46 44 43 42 39 40 38 37 37 39 38 37 35 33 34 32 34 37 39 41 41 41 45 46 45 46 49 53 55 57
42 41 40 40 39 41 43 44 46 46 46 47 45 45 42 42 41 41 40 41 40 38 37 39 37 37 33 32 34 34 32 35 36 39 40 40 41 44 46 46 47 50 53
41 40 39 39 40 41 40 42 42 42 42 43 45 44 41 39 39 40 41 41 41 41 39 38 37 38 34 32 37 33 33 32 33 35 36 38 39 40 41 42 45 46 48
37 36 34 35 38 40 41 41 39 43 42 41 41 41 43 44 42 41 41 41 41 40 41 40 36 38 34 32 33 35 37 32 32 33 33 35 37 40 41 43 43 45 45
33 32 33 35 38 40 41 41 42 41 40 40 39 42 42 42 42 41 41 41 41 41 40 40 39 36 33 33 32 33 32 32 34 35 33 33 36 36 38 39 40 42 45
33 33 33 36 38 39 39 40 43 42 42 41 41 41 39 39 38 37 36 38 39 43 43 44 40 36 35 35 34 36 35 35 37 37 35 36 35 34 35 38 39 41 46
32 31 34 37 37 39 41 41 40 40 40 39 39 38 38 36 36 35 34 34 34 38 39 41 41 37 35 36 35 33 31 30 33 37 37 37 35 35 35 35 36 38 41
32 34 36 40 41 42 41 41 41 40 39 39 38 38 37 37 37 36 35 34 33 35 35 38 40 41 39 34 33 29 30 32 34 35 35 34 34 34 34 33 32 34 38
33 37 40 39 39 39 39 39 40 40 40 37 38 39 38 37 37 37 37 35 33 29 27 27 30 35 40 38 31 29 29 30 32 31 34 34 34 35 33 32 31 32 36
39 38 39 38 38 38 38 37 38 38 37 38 38 38 36 35 34 34 33 32 33 32 28 25 23 24 24 22 21 22 23 26 26 32 33 33 34 34 32 30 29 33 36
36 37 37 38 36 35 34 34 34 33 32 30 30 30 28 27 24 22 23 27 28 27 24 22 20 21 22 23 22 24 24 25 27 27 27 31 32 32 32 32 33 38 35
36 35 37 36 34 33 29 27 28 25 24 24 25 23 20 17 18 19 19 18 19 19 19 19 18 19 20 22 23 24 22 20 23 22 30 31 32 31 33 32 36 35 33
35 35 35 35 31 28 26 26 24 22 21 20 19 19 18 19 19 19 20 19 18 17 17 17 17 17 18 19 20 21 22 23 21 22 24 29 31 31 32 35 35 34 33
34 34 32 27 24 21 20 20 19 21 20 19 19 19 19 20 20 19 19 19 18 17 17 17 18 18 17 18 19 20 20 22 22 19 20 20 23 28 30 30 31 32 32
25 23 21 20 20 19 18 21 21 21 18 17 17 18 18 20 22 21 18 18 18 18 18 18 18 18 17 17 18 20 21 22 24 24 25 26 26 27 28 30 28 29 30
24 21 19 19 19 18 24 23 22 20 18 18 18 18 18 19 19 23 24 25 24 20 20 21 21 20 20 22 23 23 23 24 26 28 27 27 27 28 27 27 27 29 30
19 18 18 18 18 19 22 22 22 20 18 19 20 20 19 17 18 19 23 24 25 27 26 23 22 21 21 21 21 23 24 25 24 25 26 27 29 29 31 26 28 28 30
18 18 18 18 19 18 23 23 22 20 20 19 20 20 18 18 20 22 23 23 23 24 25 26 25 23 24 25 27 25 26 25 27 28 26 25 28 28 29 31 30 29 29
18 17 18 21 21 22 24 24 21 21 20 20 19 22 22 23 23 24 28 27 23 24 23 27 28 27 26 26 27 26 25 25 26 26 27 25 26 27 28 29 31 29 30
16 19 23 21 22 22 24 22 21 21 21 21 20 19 21 22 25 27 27 25 23 23 25 23 24 24 24 26 29 28 26 24 23 22 25 24 28 25 26 29 30 30 31

GFSMA_sfc_30mbdewp_030.txt.gz
Dewpoint
56 55 53 53 52 50 49 50 49 50 50 51 51 49 47 46 46 45 47 44 43 44 48 51 55 56 56 57 59 60 61 61 61 61 62 62 61 62 62 62 61 61 61
55 54 52 51 50 49 49 49 49 50 50 50 48 47 45 44 42 42 45 44 45 47 49 49 51 53 52 52 54 55 57 59 60 61 61 61 61 61 61 61 61 61 61
53 52 52 51 50 51 50 50 51 50 50 49 48 48 46 44 42 41 42 42 46 47 47 49 48 48 49 51 52 53 56 56 58 60 60 61 61 61 61 61 61 62 62
50 51 51 51 51 51 50 51 50 49 49 48 48 47 45 44 42 42 42 41 41 42 46 49 47 46 47 46 45 46 51 52 56 58 59 60 61 61 61 61 62 62 62
49 49 49 50 51 50 50 50 49 49 48 48 47 46 47 45 42 41 41 42 41 41 42 50 47 47 46 44 43 44 48 50 53 52 54 55 57 58 58 59 61 62 62
48 48 48 48 50 49 48 49 50 51 50 50 48 47 47 48 46 44 41 42 42 41 41 44 47 46 46 43 41 42 45 50 52 50 48 47 48 50 53 55 57 59 61
45 46 46 46 45 45 46 47 47 47 47 49 49 47 47 47 48 46 44 42 41 41 42 41 43 41 42 44 39 38 41 44 45 46 46 46 47 45 46 47 50 54 56
45 44 44 44 44 44 44 45 45 46 46 46 46 45 43 43 44 45 45 42 41 41 40 41 42 39 36 37 39 38 37 40 41 41 41 43 44 46 46 47 47 48 50
44 43 41 40 42 43 43 44 43 43 43 44 44 43 41 39 41 43 43 46 45 44 43 41 41 40 40 36 37 40 39 38 37 37 41 41 40 41 41 42 43 46 47
40 38 38 40 41 42 43 43 42 44 44 42 43 43 44 44 42 41 42 44 46 46 46 49 49 47 40 40 40 39 36 36 35 34 36 37 38 39 40 41 43 44 45
39 39 37 38 41 41 42 44 44 43 43 42 41 40 40 39 39 39 38 39 42 45 46 48 47 47 45 42 39 37 37 35 33 34 33 33 34 37 39 39 40 40 41
38 37 37 38 41 44 43 43 43 42 41 40 39 39 38 37 36 36 35 36 36 39 40 42 44 46 46 44 41 38 38 35 34 35 35 34 35 36 35 36 38 39 40
37 36 40 43 42 42 42 42 42 41 40 39 38 38 38 37 37 36 34 33 34 36 38 39 41 43 44 44 41 40 38 36 36 37 36 36 36 37 36 36 36 36 37
36 42 42 41 41 40 40 40 40 40 41 40 38 37 37 38 38 37 35 33 31 32 33 37 41 43 43 44 43 35 36 33 31 33 35 37 38 36 36 36 35 34 33
38 40 40 40 39 39 39 39 39 39 38 38 38 38 39 38 38 38 37 36 33 29 28 28 31 34 40 41 41 42 36 36 33 31 32 35 35 35 35 35 34 33 32
37 37 38 38 38 38 38 36 35 35 36 37 37 36 36 35 35 36 37 37 35 32 28 27 27 27 26 26 33 35 32 32 35 34 32 33 35 35 35 35 34 32 30
37 37 36 36 37 37 35 35 34 34 34 34 32 30 30 30 29 28 27 30 31 32 32 31 29 26 24 23 23 25 27 27 28 31 30 30 31 32 34 35 34 33 32
35 37 37 37 37 34 32 30 29 28 27 26 25 24 23 22 23 23 24 24 24 24 22 20 22 22 22 23 24 24 24 23 24 25 31 31 32 33 33 33 33 33 32
38 37 36 34 34 32 27 24 23 24 24 23 22 22 22 22 22 23 23 23 23 22 22 21 20 20 20 21 20 22 23 23 24 23 23 27 30 33 34 33 33 33 33
37 34 31 27 25 23 21 22 23 24 24 22 22 22 22 21 21 22 22 22 20 19 19 20 20 20 21 21 21 21 22 24 24 23 22 23 29 31 33 34 34 34 35
28 27 26 23 23 22 21 23 23 22 22 21 20 21 21 22 24 23 19 20 20 20 21 21 20 21 22 22 22 24 24 24 26 28 28 27 26 27 29 32 32 33 33
27 24 22 22 22 20 24 24 24 23 22 21 20 20 22 24 21 23 23 26 27 25 22 21 20 20 20 21 22 23 24 25 24 27 27 28 29 28 28 28 28 30 29
22 22 21 22 22 24 25 25 24 23 22 21 22 22 22 21 23 22 23 23 25 26 27 25 25 23 22 22 22 22 22 23 24 25 26 26 28 28 30 30 30 30 30
21 21 21 25 24 22 26 26 24 22 21 22 21 20 20 23 23 24 24 25 27 26 25 26 29 27 25 25 27 29 31 30 30 30 27 25 27 28 29 30 31 32 32
21 20 22 24 23 23 24 25 25 23 22 21 20 21 22 21 22 23 26 25 25 25 25 25 31 30 30 30 29 27 25 24 22 22 25 29 27 26 27 29 30 31 32
19 27 26 26 26 24 26 26 25 26 24 22 21 21 21 22 26 27 26 25 23 23 23 25 26 24 24 24 25 27 28 26 24 22 23 23 23 26 25 28 29 30 31

GFSMA_sfc_30mbdewp_033.txt.gz
Dewpoint
54 54 53 52 51 51 50 50 49 49 49 49 50 51 50 48 46 45 46 49 46 46 48 49 51 55 57 58 59 61 61 61 62 62 63 62 62 62 63 63 63 62 61
53 53 52 51 50 50 50 50 48 48 48 49 49 49 48 47 45 43 43 44 47 46 46 48 49 52 55 56 56 56 58 60 61 61 62 62 62 62 62 62 62 62 61
52 52 51 51 52 53 50 50 49 50 50 50 50 49 49 48 46 43 41 43 44 47 47 47 49 51 52 53 53 55 56 57 58 59 60 62 61 61 61 61 62 62 62
50 51 50 49 50 50 49 49 49 49 49 49 49 48 48 47 46 44 42 41 44 46 47 46 50 51 50 49 51 51 53 55 56 60 60 60 61 61 61 60 61 62 62
48 47 47 48 49 50 50 50 50 50 49 49 49 48 48 47 47 45 43 42 42 44 43 45 50 49 50 49 48 46 46 51 54 57 57 59 59 60 60 60 61 61 62
47 47 46 46 47 45 46 45 45 45 46 47 47 47 49 49 49 48 47 43 43 43 42 42 49 49 49 50 47 45 44 48 51 53 53 55 55 55 56 56 57 59 60
47 45 45 44 44 44 43 44 45 43 43 45 44 45 45 46 47 47 48 47 45 44 43 42 44 46 46 49 47 44 43 45 47 52 50 49 48 49 49 49 51 53 56
44 44 42 42 43 43 44 44 42 41 43 44 43 43 40 41 42 44 45 46 47 47 45 44 44 45 42 45 46 46 43 42 46 49 48 47 48 48 48 47 48 48 49
40 39 38 39 40 42 42 42 42 44 43 44 44 43 40 39 40 41 42 43 45 47 48 50 49 44 40 39 43 44 44 43 45 44 44 43 44 45 44 44 44 46 47
40 38 38 38 40 42 43 44 43 43 42 40 41 39 40 39 35 34 39 38 39 42 42 44 48 50 50 46 39 40 41 42 44 43 41 43 41 41 40 41 43 44 45
38 38 38 42 43 43 42 42 42 41 41 40 39 37 36 35 37 35 32 33 36 37 39 41 42 46 48 49 48 45 42 40 40 40 39 38 38 38 39 41 41 41 41
38 41 42 42 42 42 42 42 41 41 40 39 38 37 37 35 34 34 33 33 33 35 35 38 40 43 44 46 48 47 45 40 37 37 38 35 35 35 38 37 38 39 40
39 42 41 40 40 41 40 40 40 40 40 39 37 36 36 36 37 36 35 33 32 33 34 36 40 42 42 44 45 45 45 44 38 39 38 37 36 38 37 37 37 37 38
40 40 40 39 39 39 39 39 39 40 39 38 38 39 38 37 38 37 35 33 30 30 30 31 34 39 38 39 41 43 43 43 42 40 36 35 36 37 37 37 37 37 35
38 39 39 39 39 38 38 38 38 37 36 37 37 37 37 36 37 37 37 36 32 28 27 28 27 31 31 38 38 39 40 42 41 40 38 36 35 34 34 34 33 35 34
37 37 38 37 35 36 37 37 36 35 35 36 36 36 35 35 35 34 33 34 35 33 29 29 30 30 30 28 34 36 37 36 37 39 39 37 36 35 33 34 35 34 33
36 36 37 37 37 37 37 35 34 33 32 32 32 29 27 27 26 27 28 27 28 30 30 29 32 32 30 28 27 29 33 32 32 33 37 33 31 32 32 33 34 35 35
38 38 37 36 35 35 34 33 29 28 25 23 22 22 22 22 23 24 24 24 24 25 24 22 23 22 21 22 23 22 23 24 27 27 32 32 31 33 33 33 33 33 33
37 37 36 34 33 31 26 25 26 25 24 23 22 21 21 21 21 22 22 23 24 22 21 20 20 22 22 22 22 22 21 22 22 24 23 26 31 30 31 33 33 33 32
35 34 29 28 25 24 24 23 23 23 22 22 23 22 22 21 22 23 24 23 21 20 19 19 21 22 22 23 24 24 23 25 25 25 27 27 27 28 33 36 36 35 35
29 28 24 23 24 23 23 23 23 23 22 22 23 22 21 22 24 26 24 26 24 22 21 21 21 21 20 20 19 22 22 23 24 26 25 26 26 27 27 27 32 34 34
27 23 22 24 24 22 26 26 25 23 22 21 20 22 23 22 22 23 25 24 24 25 25 24 24 22 21 21 22 22 22 22 21 26 27 26 28 28 29 29 29 30 32
22 22 22 24 23 24 27 26 26 24 22 20 20 21 19 18 22 24 24 25 25 25 26 24 23 23 23 23 23 22 22 22 22 24 25 25 26 26 27 29 30 31 31
20 21 24 25 23 23 25 25 27 25 23 22 22 21 20 21 23 23 22 24 25 27 27 27 26 26 26 26 26 26 26 29 29 29 29 23 24 26 27 28 30 31 32
20 23 26 25 24 24 26 27 27 26 25 24 24 22 21 21 22 22 26 24 24 24 26 26 26 26 28 30 32 31 27 25 22 22 24 24 24 26 26 27 28 30 31
26 26 25 27 27 25 26 26 26 24 23 23 22 21 21 20 23 27 24 25 22 22 22 23 25 25 24 24 25 26 25 24 23 23 24 24 24 24 24 26 28 28 29

GFSMA_sfc_30mbdewp_036.txt.gz
Dewpoint
54 54 53 53 52 51 51 50 51 49 48 48 48 49 50 50 49 48 46 47 51 52 51 49 48 49 52 57 59 59 61 62 62 62 62 61 61 62 63 64 64 63 62
53 53 51 52 51 51 51 50 49 49 49 50 50 50 50 49 48 47 45 44 47 49 49 48 47 47 49 52 57 58 58 60 61 62 62 61 61 61 61 62 63 63 62
53 51 51 50 50 52 51 50 50 50 50 50 50 50 50 49 49 48 46 44 44 47 48 48 50 48 48 50 54 55 55 56 58 60 61 62 61 60 61 61 62 62 62
51 51 50 49 50 49 49 48 48 46 46 47 48 48 49 49 48 48 47 45 43 44 46 49 50 50 51 50 50 51 54 54 57 58 59 61 60 60 61 61 61 62 62
50 48 48 48 48 45 45 45 44 46 45 44 44 45 46 48 47 49 48 47 45 44 44 46 50 50 51 52 48 47 50 49 51 54 58 59 61 61 60 60 61 61 61
47 46 46 45 45 44 43 44 44 43 43 42 43 42 46 46 47 46 47 48 47 45 44 44 44 49 51 51 50 47 47 47 47 51 55 56 59 59 59 59 59 59 60
43 41 42 41 42 42 43 43 43 41 40 44 43 41 43 42 44 43 44 45 46 48 48 48 44 45 46 51 51 48 47 46 45 48 52 52 55 55 55 54 55 56 56
39 38 39 40 41 41 40 41 43 42 44 44 42 42 39 39 41 38 41 41 44 44 42 42 45 48 46 45 47 50 47 47 45 46 49 52 50 49 49 48 48 48 49
38 37 38 39 41 42 42 43 43 42 42 42 41 40 36 36 34 36 33 38 39 39 40 41 41 42 47 49 43 46 49 49 48 47 50 52 50 49 49 48 48 47 48
38 39 41 42 43 43 42 42 42 41 40 39 40 38 39 38 32 29 34 33 35 35 37 39 39 43 46 49 49 48 43 44 48 48 49 50 47 46 45 44 44 44 45
39 42 42 42 41 41 41 41 41 40 40 38 37 37 37 36 36 33 29 31 34 35 36 35 38 42 44 45 47 48 47 46 45 47 48 48 45 45 42 41 42 42 41
41 41 41 41 41 40 40 41 40 40 39 38 38 36 34 33 33 33 31 30 30 32 33 35 37 41 41 43 44 44 47 45 44 44 44 44 44 42 40 41 41 40 40
40 40 39 39 39 39 39 38 38 38 39 37 38 36 36 35 36 35 34 32 30 31 32 32 36 40 39 39 41 41 43 44 44 42 44 42 40 38 38 39 38 38 39
40 40 39 38 38 37 37 37 37 37 38 35 36 37 38 36 37 36 34 32 30 30 29 29 30 32 34 35 39 40 39 41 42 43 42 41 39 40 39 38 38 38 37
38 39 39 39 38 38 37 37 37 36 36 35 35 35 35 35 36 36 35 36 33 28 26 28 28 30 31 33 36 38 38 37 38 39 41 41 39 39 39 36 35 36 35
37 37 37 37 36 37 37 37 36 35 34 34 35 36 35 33 32 34 33 31 32 32 28 28 29 30 31 32 30 36 37 37 36 37 36 40 40 40 37 37 36 35 34
36 37 38 37 36 35 35 33 32 33 31 27 24 23 23 23 23 23 24 24 24 26 25 26 29 30 28 24 23 26 31 36 35 31 35 36 40 39 38 35 36 36 36
36 36 36 36 33 33 33 29 27 26 24 23 23 22 22 21 21 22 23 23 23 24 24 22 23 22 20 21 23 23 23 22 25 30 30 31 33 34 35 35 35 35 36
35 35 35 33 29 28 25 25 24 23 22 23 23 22 22 21 21 22 22 24 25 24 24 22 20 21 22 23 22 24 24 25 25 26 27 28 32 35 36 36 36 35 33
35 33 30 27 26 24 23 22 23 23 23 22 23 22 22 22 22 23 24 25 25 24 22 21 20 21 22 22 22 21 20 24 22 24 26 26 27 27 27 29 34 36 36
31 29 25 25 24 23 23 24 23 23 22 22 21 21 21 21 19 21 23 25 26 24 24 24 23 22 21 21 20 20 21 22 23 25 24 25 26 28 28 28 28 32 34
32 24 23 24 23 23 26 26 25 24 23 22 21 21 22 20 19 21 23 24 25 23 23 23 22 22 22 21 22 22 22 21 20 24 25 24 26 25 26 28 29 29 30
28 22 24 25 23 24 27 26 27 26 24 23 22 22 22 20 21 22 23 23 24 25 25 25 25 24 23 23 23 23 23 23 22 23 24 24 25 26 26 27 29 30 30
26 21 25 24 23 23 26 27 27 26 25 24 24 23 22 21 21 21 22 24 25 25 25 26 26 26 26 26 26 26 26 25 26 27 29 23 23 23 24 26 28 30 31
24 25 25 24 24 25 27 26 25 24 22 22 22 22 20 20 20 20 24 23 22 24 23 22 22 23 26 29 28 27 26 25 24 22 24 24 23 23 24 25 27 29 31
26 25 25 25 26 23 22 23 22 23 20 20 21 19 19 18 20 22 24 23 22 22 22 22 22 24 24 24 24 25 24 22 21 21 23 23 23 24 22 24 26 27 27

GFSMA_sfc_30mbdewp_039.txt.gz
Dewpoint
55 56 57 55 52 51 50 50 50 49 49 50 50 50 50 50 50 50 49 49 50 52 53 51 50 51 50 54 58 59 59 60 61 62 63 62 62 62 62 61 62 62 62
54 53 52 51 51 52 51 50 50 50 49 49 48 48 48 50 50 49 48 47 47 50 52 51 49 50 49 50 54 58 58 59 59 60 62 62 61 61 61 62 62 62 61
53 52 51 50 50 50 49 48 46 46 45 46 44 46 48 47 48 48 48 47 46 46 48 51 51 52 51 49 51 55 57 56 57 58 60 62 62 61 60 60 61 62 62
52 51 49 48 49 47 46 44 45 43 44 43 42 43 42 44 47 46 48 48 47 46 45 47 50 51 53 51 47 49 52 55 55 56 58 60 61 61 61 60 60 61 61
49 48 46 45 45 44 44 44 44 43 41 40 43 41 41 44 45 47 46 47 47 47 46 47 47 48 50 51 50 48 48 50 53 53 55 58 59 60 61 60 60 60 61
44 43 42 42 43 42 41 41 41 41 40 43 43 41 42 43 44 44 41 44 46 46 46 46 46 47 47 47 49 50 50 48 49 50 50 54 57 57 61 60 60 61 61
39 39 40 39 40 38 40 41 41 39 40 43 42 40 41 41 42 37 38 42 44 41 40 40 40 42 45 47 48 48 50 50 48 49 50 53 55 56 58 58 58 58 58
37 37 37 39 41 40 41 42 42 42 43 42 40 39 36 34 38 33 35 36 38 39 38 37 39 38 41 47 48 49 47 49 50 50 50 52 55 55 55 55 53 52 53
38 38 39 40 41 42 42 42 41 39 38 40 40 37 32 31 34 33 31 34 35 36 37 37 36 39 43 45 47 48 49 48 46 49 52 50 53 53 51 50 49 49 49
39 41 42 42 42 41 40 40 41 40 40 38 38 38 38 37 32 31 32 32 33 34 35 36 36 39 43 44 44 45 46 47 47 47 46 51 51 52 51 50 49 47 46
42 42 42 41 40 40 40 40 40 39 39 38 37 37 36 35 35 32 29 29 30 32 34 34 35 39 40 41 42 43 44 44 45 46 47 46 48 52 51 50 46 45 45
41 40 39 39 39 39 39 39 39 38 38 38 38 36 34 32 31 31 30 30 31 30 32 33 33 35 39 37 36 41 42 42 43 45 46 47 47 48 50 45 43 44 43
40 39 38 38 38 38 37 37 36 36 37 36 35 36 36 35 36 36 34 32 31 31 32 32 31 31 36 34 34 39 40 39 39 40 43 45 46 47 49 43 43 43 42
38 39 39 38 37 37 36 37 36 36 36 36 35 35 36 37 36 35 34 33 29 29 29 28 30 30 32 32 34 36 38 36 38 37 39 42 42 43 45 42 40 40 41
38 39 38 38 38 38 37 37 36 35 35 35 34 35 35 35 35 34 34 34 31 25 24 26 28 30 30 32 33 31 36 38 35 37 38 38 41 40 41 44 42 39 38
37 37 37 37 37 37 37 37 34 33 33 33 33 32 30 28 26 26 26 27 26 25 22 26 27 30 30 31 25 25 29 37 37 35 34 37 38 41 41 40 39 39 38
36 36 36 37 37 34 33 33 32 29 25 24 24 23 22 23 22 22 22 23 23 24 21 22 26 28 28 22 20 23 25 25 33 36 35 32 35 38 40 40 39 38 36
34 35 35 36 35 31 28 26 25 25 23 22 22 22 22 21 21 22 22 22 23 23 23 23 24 24 22 20 22 23 23 25 26 27 30 36 34 35 37 39 38 37 38
35 35 35 34 31 26 25 24 23 22 22 22 23 22 21 20 21 22 22 23 24 25 25 24 23 22 21 23 22 22 22 22 23 23 24 26 28 34 36 33 34 34 36
36 34 34 31 27 25 23 22 23 22 22 22 23 22 20 21 21 21 21 25 25 26 25 24 24 23 22 22 23 21 20 22 21 23 24 26 26 27 28 31 36 34 34
34 34 35 31 26 24 22 23 23 22 22 22 23 22 21 22 22 20 19 21 22 24 23 23 23 23 22 21 21 20 20 21 22 23 22 23 25 28 27 28 29 31 36
35 36 32 27 25 23 25 25 26 25 25 24 23 22 22 23 22 20 19 21 22 23 23 22 21 22 22 22 22 21 21 21 21 23 24 24 25 24 25 26 27 29 29
33 30 26 26 23 24 26 27 27 27 26 25 24 23 22 20 20 20 21 22 22 23 24 24 23 22 23 23 22 22 22 22 22 23 23 22 24 25 26 26 28 29 30
30 29 25 24 22 23 27 27 26 24 22 22 21 22 21 21 21 20 22 23 23 24 23 24 24 25 26 27 25 24 24 24 24 25 27 23 24 23 24 24 26 26 29
32 25 25 23 23 24 24 25 24 21 19 19 20 20 19 18 19 20 23 22 22 22 22 23 23 23 23 23 27 28 25 23 22 23 25 25 23 22 23 23 25 27 27
26 25 24 24 25 20 21 21 20 18 16 18 19 18 18 19 21 25 23 23 21 21 23 22 23 23 23 24 24 24 23 22 21 19 21 22 22 23 21 22 24 26 27

GFSMA_sfc_30mbdewp_042.txt.gz
Dewpoint
57 57 58 55 52 51 51 50 50 49 48 48 47 47 47 48 49 49 49 49 50 52 53 53 53 51 52 54 56 58 57 56 57 58 61 62 63 61 61 61 60 60 61
55 54 52 51 51 51 50 49 48 46 45 45 43 44 45 44 45 48 48 48 49 50 50 51 53 53 53 51 54 56 58 58 57 57 58 61 62 62 61 61 60 60 60
53 52 51 49 49 48 46 45 44 44 43 42 40 41 42 41 44 45 48 48 47 47 49 50 50 51 52 53 52 53 56 59 58 56 56 59 61 62 61 60 60 60 60
51 49 47 46 46 45 44 44 44 41 41 40 41 41 40 41 42 46 44 47 47 47 47 48 48 49 50 51 52 53 51 53 58 56 56 58 59 60 61 61 60 60 60
46 43 42 43 43 42 42 41 41 40 38 39 42 41 40 41 43 45 42 45 45 44 42 40 40 41 42 47 51 52 52 53 53 55 56 56 57 59 59 61 61 60 60
42 41 41 41 40 39 39 40 39 40 40 43 42 41 40 41 44 38 40 43 41 40 39 38 38 38 39 42 46 49 52 52 53 52 53 54 55 57 58 60 60 60 61
39 39 39 39 40 39 41 42 42 41 41 42 41 38 39 41 39 34 37 40 38 38 37 37 39 37 40 44 45 47 49 52 51 52 53 52 53 55 57 58 59 59 58
38 38 39 39 40 40 41 41 40 39 40 41 38 37 32 32 36 34 34 36 35 36 35 36 37 37 41 44 44 45 47 48 50 51 49 52 54 53 55 56 57 57 57
39 40 40 41 41 41 39 39 40 38 38 39 39 37 32 31 34 33 33 34 33 33 34 35 35 37 41 42 42 41 41 43 45 48 49 49 49 53 53 55 55 54 53
41 41 41 41 40 39 38 38 40 39 38 37 37 38 37 37 33 31 32 31 32 32 33 34 34 36 40 39 37 41 42 43 43 44 47 48 49 48 52 54 53 51 50
42 41 40 39 37 38 38 39 39 38 38 37 37 36 35 34 33 32 28 27 31 32 33 33 34 34 36 39 36 37 40 41 41 42 43 46 47 49 48 53 52 50 49
40 40 38 38 38 37 37 37 37 36 36 37 37 35 33 31 29 30 30 31 31 30 32 32 32 32 33 37 34 35 38 40 39 39 40 42 45 48 49 49 53 52 48
38 39 38 37 37 37 37 37 36 35 35 35 34 34 35 35 34 35 33 31 30 30 30 33 31 31 32 33 33 35 35 39 38 37 38 40 41 44 46 48 51 53 48
38 38 38 38 37 37 37 36 36 35 35 35 35 34 34 35 37 36 34 32 29 26 27 28 30 30 31 31 34 34 29 36 38 37 37 38 39 40 43 46 46 49 50
37 38 38 38 37 37 37 37 36 35 34 34 33 33 34 35 35 34 32 32 27 23 22 21 23 28 30 31 31 31 27 31 37 37 36 36 37 38 41 43 44 43 46
36 36 37 36 36 37 37 36 36 34 32 32 30 25 24 25 24 25 24 25 27 27 23 21 20 26 29 29 31 26 25 27 27 34 37 35 35 36 38 41 41 41 41
36 35 35 35 36 36 34 33 32 28 25 24 23 22 22 23 23 23 23 22 22 23 21 20 23 25 26 28 26 22 24 24 27 28 32 34 35 35 35 38 40 39 39
37 34 35 35 35 34 31 27 26 25 22 22 22 22 22 22 19 20 21 21 22 23 23 23 24 25 24 24 22 22 22 21 24 22 27 27 32 36 35 35 38 39 39
36 35 35 35 34 31 26 25 24 22 22 22 22 22 22 20 19 20 21 22 22 24 26 25 24 24 23 23 22 23 22 22 22 22 22 23 27 28 36 35 35 38 37
35 35 34 33 33 30 25 23 23 22 22 22 23 23 22 22 21 21 22 20 21 22 22 22 22 22 24 24 24 22 21 22 21 21 23 25 25 26 29 31 36 36 34
34 35 35 35 32 24 23 23 23 23 24 24 24 24 23 23 24 23 22 21 20 20 20 20 20 20 21 22 21 22 21 20 22 23 23 23 23 24 28 28 29 31 35
34 35 34 32 26 26 25 26 28 27 27 26 25 24 24 22 22 21 20 19 19 20 21 20 20 20 20 21 22 22 21 21 20 23 23 23 26 24 25 25 25 26 30
31 30 28 27 24 23 26 27 28 25 23 21 20 20 19 18 19 20 20 20 21 22 22 24 23 22 22 23 23 23 22 22 22 23 23 22 24 25 26 26 28 29 30
33 31 27 24 22 24 26 27 26 21 19 19 19 19 19 19 20 19 20 22 22 22 22 23 21 22 24 24 25 25 25 23 24 23 24 22 24 23 26 26 26 27 27
32 30 25 23 23 22 23 24 22 20 17 17 18 19 18 19 20 21 24 22 21 21 22 22 25 25 25 25 24 25 23 23 21 21 25 25 23 23 23 23 25 26 27
25 25 24 23 25 20 21 21 20 18 16 18 19 19 19 20 20 19 21 22 20 21 22 23 24 25 25 25 25 25 24 21 21 19 21 23 21 22 21 23 24 25 26

GFSMA_sfc_30mbdewp_045.txt.gz
Dewpoint
60 59 59 56 53 53 52 52 51 48 47 46 45 44 44 42 41 42 44 49 51 52 53 53 54 55 55 55 56 57 58 57 56 55 58 60 62 62 62 61 61 60 60
58 56 54 53 52 50 49 47 47 45 44 43 42 42 41 39 40 41 41 43 49 50 52 53 54 54 54 54 55 55 55 58 58 57 58 58 60 62 62 61 61 60 61
56 54 52 50 48 47 47 46 45 44 41 39 39 38 38 38 39 43 43 44 46 47 46 46 46 48 49 52 53 54 54 56 57 58 59 58 59 60 61 61 60 60 60
53 50 47 46 46 44 43 43 41 40 38 37 38 38 37 38 39 43 43 44 43 41 40 41 41 42 42 45 48 52 53 54 54 56 58 58 58 59 60 61 61 60 60
47 45 45 44 43 41 41 39 38 39 36 37 36 34 38 33 38 39 40 41 39 38 37 36 38 37 40 42 45 47 50 52 53 53 55 56 58 58 59 60 60 60 60
44 43 41 42 41 40 40 40 39 38 38 39 33 33 34 32 42 38 37 37 37 37 36 35 34 33 38 43 44 45 47 49 52 53 53 54 56 56 57 59 58 60 60
41 42 41 41 41 40 41 40 38 37 34 38 34 29 31 42 42 36 35 35 35 34 34 33 33 34 35 38 41 44 45 45 47 50 51 52 52 54 56 56 58 58 59
42 41 42 41 41 39 40 39 39 35 34 38 33 30 24 27 34 36 34 34 35 33 30 32 33 37 36 33 36 40 42 43 42 44 47 49 50 51 52 55 56 57 57
42 42 42 42 41 39 37 37 38 37 33 36 39 34 27 23 31 30 33 33 34 32 32 32 32 33 37 34 31 32 39 40 38 41 43 46 47 49 50 51 54 55 56
43 42 42 41 40 39 37 37 37 38 38 33 35 37 37 36 31 28 28 28 29 30 32 33 33 34 33 33 34 32 37 41 39 37 38 41 44 47 48 50 51 54 54
42 41 41 40 38 37 37 37 36 36 36 35 33 34 33 32 32 31 25 24 26 29 30 31 32 34 32 32 32 30 35 38 39 37 36 37 40 43 47 49 51 52 54
41 41 40 40 39 38 37 36 37 37 36 36 35 34 32 30 29 29 30 28 29 27 29 30 32 31 32 32 30 33 34 36 38 37 36 35 38 40 43 46 49 50 53
38 39 41 40 38 38 38 38 37 37 37 36 36 34 35 34 33 32 32 31 30 32 28 27 29 28 27 27 28 32 30 33 36 38 37 35 35 37 40 43 46 48 49
36 39 40 40 39 39 38 38 38 38 38 38 37 36 35 34 34 35 33 32 28 21 19 21 26 27 26 25 25 32 26 31 32 36 37 36 35 34 37 41 44 45 49
38 39 40 39 39 39 39 39 38 37 37 36 35 35 34 34 33 29 30 27 25 23 20 20 20 21 22 23 24 26 25 28 30 30 32 36 36 34 34 39 41 44 44
37 38 38 38 37 37 38 38 37 35 35 34 32 27 26 25 25 26 25 25 24 23 20 17 16 18 20 20 21 22 22 29 26 28 30 34 36 36 35 36 39 40 42
37 38 38 36 35 36 37 36 33 32 28 27 26 24 24 24 22 21 20 19 18 19 17 15 16 18 21 22 22 23 24 25 23 25 28 28 30 34 36 35 38 39 40
36 37 38 36 36 36 35 32 30 26 25 23 23 23 22 20 20 19 18 17 17 17 16 15 16 18 18 21 22 23 23 22 21 21 23 26 26 26 32 35 37 37 39
34 36 36 36 35 34 33 32 26 24 23 23 22 22 21 21 20 19 19 18 18 18 18 18 16 15 15 19 20 20 21 23 22 22 23 23 23 26 27 31 36 37 37
34 35 35 35 35 34 32 29 24 23 23 23 24 23 23 22 21 20 20 20 21 19 18 16 14 13 14 15 16 19 18 19 20 21 20 21 24 24 25 27 31 36 35
35 35 35 34 34 32 29 26 24 24 25 24 24 23 22 22 22 21 19 18 19 17 15 15 14 13 14 14 14 15 17 18 19 20 20 19 19 20 20 24 28 30 36
33 32 32 32 29 27 26 28 27 25 24 20 17 15 14 14 15 18 18 19 19 18 18 17 17 16 16 14 15 17 18 19 17 19 21 20 24 22 23 24 25 27 28
33 32 31 29 27 25 27 28 26 22 19 17 14 13 13 14 16 16 17 18 18 20 22 24 22 20 16 16 16 19 18 20 18 17 23 21 22 23 24 22 27 29 29
34 31 31 27 24 24 25 26 24 21 19 15 14 14 15 16 16 19 19 24 19 17 17 19 24 24 23 22 21 20 20 20 21 22 22 21 21 22 25 26 26 27 27
31 31 29 25 23 22 22 23 21 21 19 17 17 16 16 17 19 20 21 19 17 16 18 20 20 22 26 26 28 27 25 23 19 19 23 25 21 22 23 25 26 27 27
25 26 24 24 24 22 21 21 21 21 20 19 17 15 16 17 18 19 20 20 17 17 17 18 19 19 22 28 27 26 23 22 17 21 19 21 18 19 21 26 27 28 28

GFSMA_sfc_30mbdewp_048.txt.gz
Dewpoint
61 59 59 57 54 53 52 51 50 49 48 46 46 45 43 42 41 40 40 47 50 52 53 54 55 56 56 56 56 56 57 56 56 57 57 58 60 61 62 61 61 61 61
61 59 56 54 52 51 49 48 48 46 45 44 43 43 43 42 41 41 40 40 48 51 49 49 49 50 50 51 53 54 55 56 56 56 58 58 59 59 61 61 61 61 61
59 58 55 52 49 48 48 46 45 44 42 41 40 40 41 40 39 40 41 40 42 46 44 44 44 45 45 47 49 51 52 54 55 55 56 59 59 59 59 60 60 60 61
56 53 50 49 47 45 44 42 42 40 39 39 39 39 37 37 36 35 38 40 38 37 41 40 40 40 41 43 45 47 49 50 52 54 54 56 57 58 59 59 61 61 60
48 47 46 45 43 42 42 41 41 40 38 36 34 29 28 30 27 27 35 39 39 38 37 36 35 35 37 41 43 44 45 48 51 51 53 54 55 57 57 58 59 60 60
45 43 43 44 42 42 41 41 39 36 35 32 32 27 30 29 28 33 35 36 35 36 34 35 33 30 33 37 39 43 44 45 46 47 49 51 52 53 54 57 58 59 59
44 44 42 43 42 41 40 38 35 31 29 31 32 26 26 28 37 35 34 32 33 33 32 31 31 31 31 33 34 38 42 42 43 43 44 46 48 50 52 53 55 57 59
44 42 44 42 41 36 36 35 34 31 28 29 33 31 21 21 23 32 33 33 33 33 30 30 32 32 31 32 33 33 37 39 39 39 41 42 45 47 49 51 52 54 57
44 44 42 39 37 35 31 33 33 32 29 28 30 32 27 22 27 25 27 27 30 29 30 30 30 31 31 32 32 32 35 36 38 37 37 38 40 41 44 47 49 52 53
43 40 38 37 35 35 34 32 29 34 31 28 27 28 30 30 29 25 25 23 24 24 25 28 29 30 30 30 30 33 34 36 37 37 36 36 37 39 41 43 48 51 51
40 37 36 36 35 34 33 35 34 33 32 30 28 28 28 27 26 26 26 24 23 24 24 24 26 28 29 29 29 30 32 35 34 33 35 35 34 35 38 40 44 47 50
31 33 34 35 35 36 35 35 35 34 33 32 30 31 30 30 31 30 30 29 26 24 24 25 30 30 29 27 26 30 30 31 33 31 31 33 34 33 34 36 39 43 47
28 30 32 34 35 35 37 36 34 33 33 32 32 31 31 29 28 27 28 25 23 23 23 23 24 25 27 26 22 27 27 28 31 32 30 30 33 33 33 33 36 40 45
31 32 35 36 37 37 37 36 35 34 34 34 33 31 29 27 28 28 27 26 24 19 16 15 15 17 21 21 23 26 22 25 30 32 30 30 30 32 34 34 33 37 42
34 34 36 37 37 36 36 35 34 33 32 33 32 32 29 25 24 23 21 20 20 19 15 15 14 15 15 16 17 19 20 22 26 29 31 29 29 29 32 34 34 33 38
31 32 32 32 32 33 34 33 32 30 31 31 30 26 25 22 21 20 18 17 17 16 14 13 12 14 15 15 17 19 20 24 24 26 30 29 30 30 31 34 35 34 36
24 24 24 27 29 31 32 33 33 31 31 29 26 25 22 21 20 19 19 17 16 15 13 13 13 14 15 16 17 20 22 20 19 24 30 27 27 28 28 30 36 35 37
25 26 28 30 31 32 34 34 33 34 31 27 24 23 21 20 20 19 18 17 17 16 15 14 14 14 14 15 16 16 19 19 19 18 26 24 25 26 26 29 32 36 37
28 28 30 30 30 33 33 34 33 33 29 25 23 23 22 21 19 18 18 17 17 16 16 17 16 15 14 15 15 16 18 18 18 20 23 23 24 25 25 26 28 33 36
29 30 30 33 35 35 33 34 30 27 26 24 24 24 22 20 20 19 17 16 14 14 15 19 18 14 14 14 14 14 14 16 17 18 21 23 21 21 23 24 27 28 34
30 30 31 32 33 32 29 28 27 25 24 23 22 19 17 17 16 17 17 16 16 15 14 15 14 15 15 15 14 14 14 15 16 17 18 20 18 18 19 26 24 26 31
29 30 29 29 29 27 26 27 26 23 22 19 17 16 14 13 14 17 17 18 18 16 16 16 17 17 17 17 16 17 20 16 18 18 21 23 20 22 20 19 27 26 27
29 30 30 30 29 28 27 29 24 21 20 18 17 15 13 12 15 15 16 17 19 24 26 24 20 19 21 22 20 19 17 17 17 18 20 23 22 21 22 20 22 24 28
30 30 31 32 29 25 26 26 24 21 20 19 17 16 15 15 15 19 16 19 18 17 18 17 19 22 21 19 19 23 25 22 20 18 18 18 20 21 22 24 26 27 28
27 26 30 30 27 25 23 25 22 21 21 20 19 17 16 15 17 17 19 19 18 18 17 19 19 20 21 22 23 28 22 22 22 21 18 24 20 20 21 23 26 28 28
25 26 25 27 26 25 22 22 21 23 22 21 19 16 16 17 16 16 17 18 18 18 16 17 17 17 18 20 24 29 25 23 18 20 15 26 19 17 19 21 23 25 28

GFSMA_sfc_30mbdewp_051.txt.gz
Dewpoint
60 60 60 57 55 53 51 51 50 49 49 48 47 46 46 45 45 44 43 49 49 50 51 51 51 52 52 52 53 54 55 56 56 57 57 59 58 59 59 60 61 61 61
61 59 57 55 53 52 51 50 49 48 47 47 45 44 44 44 44 43 42 42 50 50 49 48 48 48 48 48 49 50 52 53 54 55 56 57 58 59 58 58 59 61 61
60 59 56 53 51 49 49 47 47 46 44 43 42 42 42 41 39 40 40 39 40 48 46 45 43 43 43 44 46 47 48 50 51 52 54 56 56 58 59 59 58 59 60
56 53 51 50 49 46 44 45 43 42 41 40 38 37 36 32 32 34 31 30 36 37 43 40 38 37 38 38 42 43 45 46 49 50 50 53 55 56 57 58 59 60 60
50 48 47 46 44 42 43 43 41 39 37 35 32 31 32 29 31 30 30 32 37 38 37 36 36 36 36 37 38 41 43 45 46 46 47 49 51 53 54 55 56 58 60
45 43 44 45 43 42 42 41 40 36 33 31 29 31 33 29 29 30 35 34 34 35 34 34 33 31 34 36 36 39 41 43 43 43 43 44 45 48 50 52 53 56 58
44 45 42 43 43 39 39 38 35 32 30 29 28 28 29 31 30 31 32 33 33 33 33 31 31 31 30 32 34 36 37 38 40 40 40 41 42 43 46 47 50 53 54
45 41 45 41 40 38 34 33 34 32 30 28 27 26 26 25 23 28 32 31 31 30 30 29 29 30 30 29 31 34 36 35 34 37 38 38 39 39 41 42 45 47 51
44 43 41 39 37 34 31 33 32 31 29 28 27 25 23 22 24 25 26 26 29 27 25 26 25 26 28 29 29 32 35 34 33 33 35 35 36 37 38 40 41 43 48
41 39 37 35 35 35 34 33 31 34 31 28 27 25 26 26 25 25 28 25 25 24 26 27 26 26 28 28 30 34 33 34 32 31 30 32 34 35 35 36 38 39 43
38 37 34 33 35 34 33 34 34 33 31 29 28 28 28 29 29 29 27 28 28 27 26 26 27 27 27 28 29 32 30 30 30 29 29 29 30 33 33 33 34 36 39
30 30 31 33 33 33 33 33 37 36 33 33 32 33 31 31 30 31 31 28 27 24 23 23 24 24 27 27 27 27 30 31 29 26 26 29 28 28 31 32 33 33 35
28 29 31 32 31 31 32 35 36 36 33 34 34 33 33 31 30 28 29 28 24 22 21 22 21 19 18 30 28 30 27 27 27 28 28 30 28 28 28 29 32 32 33
32 33 32 32 31 32 35 33 37 37 35 36 34 34 33 31 29 27 25 23 23 19 18 17 19 19 19 20 21 25 23 25 26 27 27 27 28 28 28 26 29 31 32
30 28 30 30 29 29 29 31 35 34 34 33 32 34 31 30 27 23 22 21 20 20 17 15 15 15 17 18 19 20 21 21 24 26 26 26 26 28 27 27 28 29 31
26 24 24 24 24 26 26 27 32 32 33 34 31 30 28 26 24 23 22 20 19 17 16 14 14 16 17 14 16 19 20 25 24 26 27 28 29 29 28 27 28 30 33
24 24 24 25 26 27 26 27 32 31 29 30 29 30 27 25 24 22 21 21 17 17 15 17 17 18 19 19 18 20 20 21 21 21 24 25 27 29 27 27 27 27 29
25 26 26 26 27 26 26 28 29 29 29 29 30 29 27 24 24 22 19 16 17 17 16 16 16 16 16 19 19 19 17 16 19 18 22 25 27 27 27 28 27 29 30
27 27 27 27 27 31 33 33 32 31 32 31 29 26 25 24 20 17 18 18 17 15 16 15 15 17 18 19 17 17 17 18 17 19 21 22 25 27 28 27 28 28 28
28 27 27 28 31 33 31 31 30 30 28 28 27 26 22 18 17 19 16 15 14 14 14 14 13 13 14 16 17 16 17 18 18 17 19 19 22 24 26 29 29 27 27
27 26 27 28 30 30 29 27 28 28 26 25 22 18 17 17 16 16 15 15 16 15 14 13 14 14 14 14 17 19 18 18 20 21 19 18 20 21 23 26 26 27 29
26 27 29 30 30 29 27 27 26 24 22 20 17 17 16 16 15 16 18 20 19 15 15 16 17 18 19 16 18 24 24 21 20 21 22 22 22 23 22 26 27 27 29
26 28 30 30 32 31 28 28 25 22 21 19 18 17 16 14 16 17 18 17 16 20 22 22 21 19 21 24 22 20 19 19 20 23 22 24 24 24 27 21 24 25 26
26 27 29 30 31 34 28 26 25 22 20 20 19 19 17 16 17 19 17 15 17 18 18 19 19 19 19 18 19 19 21 23 25 24 21 20 22 22 24 23 23 27 26
25 26 27 29 29 33 26 25 23 22 21 21 20 19 18 16 19 18 15 16 16 17 17 19 17 17 19 21 22 24 24 24 23 21 23 24 25 23 25 23 26 27 29
24 26 27 28 29 29 25 24 23 23 25 22 20 18 18 17 17 16 15 16 16 17 13 14 16 19 18 19 23 23 26 25 25 23 21 25 23 25 21 24 26 27 31

GFSMA_sfc_30mbdewp_054.txt.gz
Dewpoint
60 60 60 59 58 56 54 53 52 51 50 49 49 48 47 46 46 47 47 50 48 49 49 49 49 49 49 49 49 50 51 52 53 55 56 57 58 59 60 58 59 59 60
61 60 59 58 55 53 53 50 51 48 48 48 47 48 47 47 45 44 42 45 49 50 49 47 46 44 44 44 45 47 48 49 50 51 52 56 57 58 59 60 59 59 59
59 57 54 52 51 50 47 48 47 47 46 44 42 40 39 39 36 36 36 38 42 49 47 43 40 39 38 39 40 41 43 45 48 48 52 52 53 54 56 57 59 60 60
54 53 52 50 49 47 47 46 45 43 41 40 38 37 37 36 35 34 36 35 37 44 43 40 38 36 37 37 37 39 43 44 45 45 47 47 49 51 52 53 55 56 58
50 49 49 48 48 46 46 44 43 42 38 37 33 31 35 34 36 33 34 36 39 39 38 39 39 36 36 37 36 39 40 42 42 42 42 42 43 46 50 50 52 53 55
47 47 48 47 46 44 44 43 42 39 37 36 32 31 34 36 33 35 34 36 37 37 35 35 35 34 35 32 33 38 38 39 38 40 40 40 40 40 41 43 46 48 51
46 47 46 45 44 42 40 39 38 37 36 36 32 31 31 30 30 31 32 31 32 35 36 35 34 33 32 33 33 36 37 38 37 36 37 38 38 39 39 40 42 42 47
45 45 45 43 42 40 38 39 38 36 34 35 32 32 28 28 29 29 31 30 32 31 29 28 30 30 30 31 34 37 37 36 36 35 34 34 36 36 37 37 39 40 41
44 42 42 41 39 38 37 37 37 36 35 34 35 30 28 27 29 30 30 32 33 30 33 30 28 29 30 32 32 37 35 33 32 33 33 32 32 33 35 36 36 37 39
42 41 38 37 38 38 38 38 35 37 35 34 34 33 32 32 31 30 31 33 32 31 30 30 29 29 30 30 32 33 35 33 30 30 30 31 30 31 31 33 34 35 36
42 40 37 37 37 38 38 38 39 38 37 34 34 33 33 34 33 32 31 31 31 30 29 28 27 26 26 26 28 31 33 33 31 30 28 27 28 29 30 31 32 33 34
34 34 34 37 37 37 37 38 37 38 39 38 36 35 35 34 33 33 31 30 29 29 27 26 25 26 27 28 31 31 32 31 31 28 27 26 27 28 29 29 30 31 32
34 35 37 36 36 35 36 37 38 38 39 38 37 37 37 36 34 33 31 30 27 26 24 24 24 23 23 24 29 28 30 31 31 30 26 25 25 26 26 27 28 29 29
36 36 35 35 35 35 35 35 36 37 39 38 37 36 36 36 34 32 29 25 23 23 23 23 22 22 22 20 24 24 26 23 25 29 29 27 24 24 23 25 27 27 28
30 30 29 30 30 30 31 33 33 35 36 36 36 36 36 35 33 30 27 25 24 22 21 20 19 19 21 20 20 21 22 23 28 27 27 28 27 26 25 26 28 27 27
29 28 28 29 29 30 31 31 31 34 34 35 35 34 33 33 29 27 25 25 24 23 20 19 18 20 21 20 20 21 22 24 23 25 25 25 27 26 27 27 29 28 26
27 28 28 29 29 29 30 31 33 31 32 32 31 32 31 30 28 27 27 25 23 23 20 19 20 20 21 21 21 22 22 20 19 21 24 24 26 26 25 29 30 28 26
28 28 29 29 30 31 35 34 33 33 32 31 32 31 30 28 27 27 26 23 22 20 18 17 17 17 18 20 20 21 19 18 19 19 22 24 25 26 27 29 29 30 29
28 29 30 30 30 32 32 32 32 31 31 31 30 29 27 26 25 23 21 19 18 17 18 17 16 17 17 18 18 19 19 19 20 20 20 20 21 23 27 30 30 30 30
29 30 30 30 31 31 32 30 28 29 30 29 29 28 27 24 19 17 16 16 15 17 17 16 15 15 16 17 18 18 20 21 21 20 21 22 23 23 22 27 30 30 30
29 30 29 31 32 32 31 30 29 27 28 27 26 23 20 18 16 18 14 16 18 18 17 15 15 16 17 19 19 19 21 25 24 24 24 22 23 25 24 26 26 28 30
28 29 30 31 32 31 29 27 26 26 25 24 22 20 20 18 20 18 22 20 20 18 18 18 20 21 21 17 22 26 24 20 18 21 23 22 25 25 25 26 26 31 31
29 29 29 30 31 31 30 31 25 23 24 24 22 21 20 17 22 20 19 19 16 17 19 20 20 23 24 23 22 19 18 18 19 21 22 22 24 24 26 23 24 26 27
28 28 27 28 32 32 33 31 25 23 24 24 23 22 21 20 20 19 19 18 17 17 18 18 21 24 21 19 19 20 21 22 23 23 24 24 24 23 25 25 26 27 27
29 28 27 28 29 33 31 27 24 24 24 25 23 23 22 20 20 19 18 17 17 17 17 16 14 15 18 20 21 23 23 23 21 23 26 28 26 26 26 26 28 28 28
27 29 29 29 30 31 29 26 25 25 24 25 23 22 21 19 19 18 17 16 17 18 17 15 16 19 20 20 22 24 27 24 23 20 22 23 26 25 25 29 31 29 28

GFSMA_sfc_30mbdewp_057.txt.gz
Dewpoint
59 60 58 55 54 53 51 49 48 46 48 46 45 44 43 44 44 41 42 49 49 50 50 49 47 46 45 44 45 46 47 48 49 51 51 54 56 57 58 59 59 59 58
59 57 55 53 51 49 47 47 47 46 44 43 41 40 39 39 35 34 35 38 51 51 48 45 42 41 41 40 40 41 44 45 47 49 51 51 52 53 55 56 57 58 59
55 53 51 49 48 46 47 45 43 42 40 39 37 35 38 35 34 35 36 36 50 49 46 41 39 38 39 38 39 41 43 44 43 44 44 46 47 48 51 51 53 55 56
52 50 47 47 47 48 47 44 42 40 38 37 35 33 34 34 35 34 34 34 39 47 45 41 37 37 37 38 37 40 40 41 41 41 42 41 41 43 46 48 48 50 52
49 48 48 46 48 47 44 42 41 38 37 36 33 32 33 32 33 33 33 34 39 43 42 43 40 38 36 36 35 38 39 40 38 38 39 39 39 40 40 41 42 43 46
49 49 47 46 44 42 42 42 38 37 36 36 33 31 31 31 31 31 31 32 30 29 35 35 35 35 35 32 32 37 37 39 38 38 37 37 37 37 38 39 40 41 42
47 46 46 44 43 39 39 39 37 36 35 36 32 31 31 32 28 30 32 32 32 30 31 30 31 32 32 36 36 38 38 38 37 37 36 35 35 36 36 37 37 38 39
46 45 43 41 39 37 38 37 37 35 35 35 31 32 29 29 31 30 32 33 33 33 31 29 30 31 31 32 31 37 36 36 34 35 35 35 34 34 33 34 35 36 37
44 41 40 39 38 37 36 36 36 36 33 34 35 31 30 29 31 32 31 33 33 31 31 30 29 30 29 28 32 34 36 33 32 33 32 32 32 32 32 32 32 33 34
42 40 38 36 37 38 37 37 37 36 37 35 35 34 33 33 31 30 32 32 32 31 31 29 29 26 26 27 28 33 35 35 33 30 30 29 29 29 29 30 30 31 32
43 40 38 37 37 39 39 39 40 36 36 35 35 35 34 34 33 32 30 31 32 31 30 29 26 26 27 26 28 31 36 35 33 30 28 28 28 27 28 28 28 29 30
36 37 37 37 36 35 35 36 37 38 38 38 37 36 35 34 34 33 32 31 30 30 29 26 25 25 24 25 27 28 30 31 31 30 30 28 25 26 26 27 27 27 27
36 37 36 35 35 35 34 34 34 36 38 37 37 37 37 36 36 35 34 33 30 28 26 26 25 24 22 24 23 28 28 31 32 30 25 25 24 24 25 25 25 24 25
36 31 29 30 30 30 30 31 33 33 36 39 37 37 36 37 38 36 33 33 28 23 24 23 24 23 23 22 23 25 22 24 28 31 29 26 24 24 24 24 25 24 25
29 28 29 28 29 29 30 31 31 31 35 35 35 36 35 35 36 35 31 27 24 22 21 22 21 21 22 21 21 23 22 24 27 26 27 25 22 22 23 24 24 24 25
28 28 28 29 29 29 31 33 34 34 33 33 33 32 33 33 32 29 27 26 26 24 22 22 21 21 21 21 20 24 22 23 23 24 24 28 27 24 23 24 23 22 25
27 28 29 29 29 31 34 34 33 33 32 32 32 32 31 30 29 28 28 27 24 20 18 18 19 20 19 19 21 22 22 21 21 22 24 24 25 27 28 27 26 26 26
29 29 29 30 30 34 32 31 32 31 31 29 30 30 29 29 27 28 22 20 17 17 17 17 18 18 18 19 19 19 19 18 19 20 23 25 25 25 25 26 29 29 29
28 29 29 29 31 32 30 30 32 31 29 29 30 29 29 27 26 20 17 16 16 16 18 18 17 17 16 18 18 19 20 21 22 21 23 23 23 25 26 26 25 28 28
29 29 29 31 31 31 31 32 30 29 30 30 29 29 28 24 17 16 15 14 16 18 18 18 17 16 17 18 20 20 19 21 24 24 24 25 25 25 25 26 28 26 29
30 29 30 31 32 32 31 30 31 29 27 27 26 25 21 20 20 17 15 18 19 17 17 17 17 18 18 19 21 19 24 23 21 22 21 20 24 23 23 26 26 26 27
29 30 31 31 31 31 30 28 26 27 30 29 23 23 21 19 19 21 22 21 20 17 16 18 18 19 19 20 25 21 20 17 15 18 22 20 22 22 24 25 26 27 28
31 30 30 29 29 31 30 30 31 28 26 26 24 22 21 22 21 19 19 19 18 17 16 19 18 19 22 22 21 18 18 19 20 21 22 22 23 24 25 25 26 27 27
28 28 29 28 30 32 32 32 29 30 24 24 23 22 21 21 20 19 18 17 17 17 18 18 19 18 18 17 19 20 22 22 22 22 23 22 24 25 26 26 27 28 29
26 26 29 28 29 32 33 32 30 23 24 25 24 22 24 21 21 20 18 16 16 17 17 19 17 18 20 21 21 22 23 22 20 20 24 22 24 23 25 26 27 28 29
26 28 29 29 29 30 33 31 27 23 24 23 24 24 22 19 20 20 18 16 15 15 18 18 17 19 20 20 23 23 23 21 21 19 20 21 21 23 23 26 29 29 29

GFSMA_sfc_30mbdewp_060.txt.gz
Dewpoint
60 56 55 53 51 50 48 46 45 43 42 40 39 38 38 35 34 36 37 43 51 50 50 49 46 45 44 43 43 45 45 46 46 51 50 50 50 51 53 54 55 56 57
57 54 52 50 48 48 46 44 42 40 38 37 35 37 36 34 35 35 35 37 50 50 48 45 43 43 42 41 42 43 44 43 44 45 45 45 46 47 48 49 50 51 53
53 51 49 47 47 47 44 42 40 38 37 36 34 34 34 34 33 33 33 36 46 50 46 41 40 41 39 40 41 41 43 42 41 41 41 41 41 41 42 44 44 45 47
49 47 46 47 49 46 43 41 39 37 36 35 33 32 31 33 32 33 32 32 42 48 45 42 38 38 38 36 39 39 39 39 38 39 40 40 40 40 41 41 42 43 44
48 47 46 47 46 44 43 41 39 37 35 34 32 30 30 31 31 33 32 31 30 34 38 39 41 40 37 34 35 35 37 39 38 38 37 38 38 37 37 38 39 40 41
49 48 47 44 43 40 41 38 36 37 36 34 32 30 32 31 31 32 32 32 31 31 31 31 32 37 39 38 38 37 41 39 39 38 38 37 36 36 35 36 37 37 38
48 46 45 42 40 38 38 37 37 35 34 35 31 33 32 31 31 31 33 33 32 32 31 30 31 31 31 32 32 33 37 36 36 36 36 36 35 35 35 34 34 35 36
46 44 42 40 38 38 37 36 36 35 35 35 32 32 29 30 31 31 32 33 32 32 31 30 31 31 30 31 33 31 33 32 32 32 32 33 34 34 33 33 33 32 33
44 42 40 38 37 37 36 36 36 35 33 35 35 32 30 29 31 32 31 33 33 32 31 30 30 26 26 26 28 30 36 35 29 33 33 31 31 31 31 31 31 30 30
42 40 39 38 38 39 37 38 38 37 37 35 35 34 34 33 31 30 32 32 33 32 31 30 29 26 26 25 27 30 34 38 35 34 31 30 30 30 30 30 29 29 29
43 41 39 38 39 38 37 36 37 36 37 35 34 35 34 34 34 32 32 31 33 31 31 30 27 26 26 25 25 30 34 36 36 33 30 28 29 28 28 27 28 28 28
38 38 37 37 36 35 35 35 35 35 36 38 37 36 35 34 33 33 33 32 32 32 30 29 25 25 25 25 26 30 29 34 36 32 29 27 28 26 26 26 26 26 26
37 36 35 32 32 32 31 31 31 32 33 35 37 37 37 36 36 36 35 35 33 30 28 26 25 25 24 23 24 27 25 23 26 29 29 26 25 25 25 25 25 25 25
34 34 31 30 29 29 30 31 32 32 34 37 37 37 36 36 37 37 36 34 32 27 24 23 25 23 24 24 26 28 24 25 26 29 25 24 24 23 23 24 24 24 24
33 30 29 28 29 29 32 33 33 34 33 34 35 35 36 36 36 36 35 34 30 26 25 23 22 22 21 21 22 24 24 24 28 26 24 22 21 21 22 22 23 23 23
29 28 28 28 29 31 33 33 33 33 32 32 32 31 32 32 31 29 28 28 28 30 26 22 20 20 20 18 18 22 22 22 23 24 26 23 22 22 21 20 21 22 22
28 28 29 29 29 32 34 33 32 32 31 31 31 31 32 31 29 29 31 31 27 20 17 17 19 19 19 19 17 19 21 20 20 22 24 24 26 26 25 26 26 25 25
29 29 29 29 30 33 33 31 30 31 30 29 28 30 30 30 28 26 22 19 17 17 16 14 17 18 18 17 17 19 19 19 21 22 22 24 24 23 25 26 28 29 28
28 29 30 29 30 33 32 30 31 31 31 29 28 30 29 28 27 22 18 17 16 16 18 18 17 18 18 17 18 19 20 21 22 23 22 21 20 21 22 25 28 28 29
29 30 30 31 32 32 31 31 31 30 29 30 30 30 29 27 24 18 17 15 16 18 18 17 17 16 17 19 20 20 21 22 23 21 20 19 19 21 25 24 22 23 26
28 30 32 32 32 32 32 32 31 31 28 27 28 28 24 21 20 19 16 17 18 17 17 16 15 17 18 18 18 22 21 20 19 19 18 19 22 21 21 23 24 25 25
29 31 31 32 31 31 31 30 29 27 29 30 30 29 24 22 23 21 23 21 19 16 16 15 16 17 18 20 22 20 18 18 16 19 20 20 22 22 23 24 25 27 27
30 28 28 30 30 30 32 30 29 30 30 27 27 24 22 22 23 22 21 20 18 19 17 16 17 18 20 18 17 18 18 20 19 21 23 21 22 22 24 25 27 27 28
28 27 27 29 29 30 32 31 32 28 28 27 24 23 22 22 21 20 19 18 17 17 16 17 19 19 18 19 20 21 24 23 23 23 23 20 20 21 24 25 25 28 30
27 26 27 28 28 29 32 33 32 30 24 23 25 24 22 23 22 22 19 17 18 16 14 18 18 19 20 18 20 22 20 20 18 18 21 21 20 21 21 23 26 28 30
28 28 28 29 29 28 30 33 33 28 23 23 25 24 24 21 22 21 20 18 16 15 15 18 18 18 20 19 19 20 21 19 19 18 20 21 21 22 21 23 26 26 28

GFSMA_sfc_30mbdewp_063.txt.gz
Dewpoint
57 55 53 51 49 48 45 43 41 39 37 36 37 35 34 33 33 35 36 40 49 50 48 49 47 46 45 44 44 45 45 45 45 46 47 46 46 46 46 47 48 48 50
55 53 51 49 48 45 43 40 38 37 36 35 34 33 34 33 33 33 35 38 45 50 48 46 44 44 43 43 43 44 44 43 42 42 42 42 43 43 44 44 44 46 47
53 50 48 47 45 44 42 39 38 37 35 34 32 31 32 32 32 31 32 40 48 50 46 42 40 41 40 40 41 41 42 41 40 41 41 42 42 41 40 41 42 43 43
49 47 47 48 46 43 41 39 37 35 34 33 31 30 31 31 32 32 31 31 39 42 40 41 40 39 37 36 40 39 39 39 39 39 39 40 39 38 36 36 38 40 41
47 47 48 46 44 43 41 38 37 35 33 33 32 30 32 30 32 32 31 30 31 31 31 36 39 40 37 35 35 36 36 39 39 39 38 37 37 36 35 35 35 37 38
48 46 46 45 42 41 39 36 35 36 35 33 32 31 33 31 32 32 31 32 31 31 30 31 32 37 37 36 38 39 40 39 39 38 38 37 36 35 35 35 35 35 36
48 45 43 41 39 38 37 35 36 34 34 35 31 33 32 32 31 32 33 32 31 31 31 30 32 30 31 35 34 33 33 35 35 35 36 36 34 35 35 35 34 34 34
46 44 41 39 38 37 36 36 36 35 35 35 32 32 30 31 31 32 32 33 32 32 31 30 31 29 27 27 30 31 31 32 32 32 31 32 33 32 32 31 32 32 32
44 42 41 39 38 37 36 36 36 35 34 35 35 32 30 29 31 32 32 33 32 32 31 31 30 26 26 26 26 29 32 34 32 29 30 31 31 31 31 31 31 30 30
44 42 40 39 38 39 37 38 38 37 36 34 35 35 34 32 31 30 32 32 33 33 32 31 30 26 26 26 26 29 34 37 37 36 33 31 29 29 29 29 30 29 29
42 40 39 39 39 37 36 36 36 36 37 35 35 34 34 34 33 32 31 32 33 33 32 32 30 26 26 26 25 27 34 33 37 32 28 27 27 28 29 28 27 28 31
40 38 37 36 36 35 33 33 33 33 34 36 37 36 35 34 33 32 32 32 32 33 33 32 29 26 26 26 26 30 31 25 27 30 29 29 26 25 25 25 26 26 26
37 36 37 38 32 30 30 30 30 31 31 32 34 35 37 36 36 35 34 34 32 32 30 27 26 25 23 24 26 27 27 29 29 27 24 23 24 24 24 24 24 25 25
36 39 39 32 29 29 30 31 32 33 35 35 35 35 35 36 36 36 35 33 32 30 25 24 25 22 21 22 22 23 24 25 27 28 28 26 25 24 24 23 23 23 23
41 38 32 29 29 30 32 33 32 32 32 32 31 32 32 34 35 35 35 35 33 28 25 24 22 22 19 19 19 21 21 22 23 24 23 23 22 22 22 21 21 22 22
36 31 30 30 30 31 33 33 33 33 31 31 31 31 31 32 31 30 30 30 31 30 26 25 22 20 19 19 18 18 19 21 22 20 20 21 22 22 22 22 22 23 23
30 30 30 29 29 31 33 33 32 32 30 30 30 29 29 32 30 30 31 32 32 30 26 19 20 19 18 18 18 18 20 20 20 21 21 21 22 26 26 26 26 25 24
29 29 29 29 29 31 32 32 30 30 30 29 29 28 30 31 30 28 26 23 21 18 17 14 17 18 18 18 17 18 19 19 21 22 23 24 23 22 23 22 24 25 27
28 28 29 29 29 30 32 32 30 30 31 31 30 28 29 29 28 26 22 19 17 16 17 17 17 18 17 17 18 19 20 21 22 22 19 19 18 19 21 22 23 24 27
29 30 30 31 32 32 33 31 31 31 30 30 30 30 30 29 28 27 22 17 16 16 18 18 17 15 16 18 19 19 20 21 18 19 19 20 20 20 21 22 23 24 24
28 30 31 31 32 33 32 32 31 31 30 29 27 28 29 27 26 22 18 16 16 18 17 16 15 14 15 17 18 20 20 18 18 19 19 19 20 21 22 23 24 25 26
30 29 29 30 31 32 31 31 31 29 28 28 29 30 31 28 26 26 22 20 19 17 16 16 15 12 15 18 20 19 18 18 16 19 20 21 22 21 22 23 24 26 27
30 28 28 27 27 29 30 31 31 29 28 29 29 28 26 22 22 23 24 23 22 20 20 17 14 15 17 19 17 18 19 19 20 21 22 19 21 21 22 22 24 25 26
29 28 27 27 28 28 30 31 31 30 29 28 28 26 23 21 22 22 20 19 18 18 18 16 16 19 19 19 20 20 22 22 22 21 22 18 20 21 22 23 24 24 27
27 27 28 28 28 28 30 31 31 31 29 29 26 25 24 23 23 25 21 19 19 19 17 16 19 19 20 20 18 19 16 18 16 17 19 20 20 20 21 22 23 25 28
26 26 26 28 29 29 29 30 32 31 29 28 25 25 26 25 23 24 22 19 18 18 16 15 17 19 18 19 20 18 18 17 17 15 20 19 18 21 20 22 23 24 25

GFSMA_sfc_30mbdewp_066.txt.gz
Dewpoint
54 53 51 49 47 44 42 39 37 36 35 34 34 33 33 32 32 35 38 44 47 51 46 48 48 46 45 45 45 45 44 44 44 44 43 44 45 45 44 45 45 45 47
54 51 49 47 45 42 40 37 36 35 34 32 32 33 33 32 31 33 39 46 52 50 47 46 45 44 43 43 44 44 44 43 41 42 43 43 42 41 39 39 41 42 44
52 49 47 44 43 41 39 37 36 35 33 32 30 31 32 32 31 30 32 43 44 44 45 45 42 41 40 40 41 41 42 40 40 41 41 41 40 39 37 37 38 39 41
49 47 46 45 44 42 39 37 35 34 33 32 30 31 31 32 32 31 30 32 34 34 38 45 43 41 38 36 37 39 40 39 39 39 39 38 38 37 36 36 37 37 38
48 48 47 45 44 41 39 37 36 34 32 32 30 32 32 31 32 31 31 30 31 30 31 37 42 43 39 36 35 38 36 40 39 39 38 37 37 37 36 34 35 36 37
47 47 46 44 43 41 38 36 35 36 34 33 32 32 33 31 32 32 32 31 31 31 30 30 31 32 37 37 36 37 37 36 41 39 40 38 36 36 35 35 35 36 36
46 46 44 41 40 38 36 35 35 34 34 35 32 33 32 32 32 32 33 32 32 32 31 30 31 31 29 32 32 35 36 35 34 35 37 38 39 35 34 32 32 33 34
46 43 41 40 39 37 36 36 35 35 35 35 33 32 30 31 31 33 32 33 32 32 31 31 30 28 26 27 29 30 31 31 32 32 32 32 32 34 32 31 32 31 31
46 43 41 39 38 37 36 36 36 35 34 35 35 32 29 27 30 32 32 32 33 32 33 32 30 30 26 27 26 28 33 34 35 31 31 31 32 32 31 31 29 29 33
44 42 41 39 38 38 37 38 38 36 36 34 35 35 34 33 31 30 32 32 33 33 33 33 32 31 27 27 27 28 32 34 33 31 30 30 30 30 29 30 31 30 32
42 40 39 39 39 38 37 36 36 36 36 34 34 34 34 34 33 32 31 32 33 33 33 33 34 31 27 27 25 28 34 32 29 30 31 30 29 29 31 31 29 29 32
40 39 39 38 36 36 34 32 32 32 33 35 35 35 35 34 33 32 31 31 32 33 33 34 32 29 26 25 27 29 29 29 30 29 24 23 24 25 25 25 25 26 26
38 37 37 38 35 33 31 30 30 30 31 31 33 34 36 36 36 35 34 33 33 32 31 30 29 25 22 23 23 25 25 25 26 28 29 28 26 25 24 24 24 24 25
38 39 42 40 34 30 30 31 30 31 33 34 34 34 33 33 35 36 35 34 32 31 30 27 26 22 21 21 21 23 22 20 21 23 25 28 28 27 26 25 24 24 24
40 43 42 39 30 29 31 31 31 31 33 32 32 31 31 31 33 35 36 35 34 28 27 26 24 23 21 18 19 21 19 18 20 22 23 23 23 23 24 24 24 23 23
42 43 39 32 30 30 32 32 32 32 32 32 31 30 30 31 32 31 31 33 33 31 27 27 24 24 20 18 19 20 18 20 20 21 21 21 22 22 22 23 24 25 25
43 38 33 30 30 30 32 33 33 33 32 30 30 30 29 30 31 30 30 31 30 31 28 26 23 20 18 18 19 18 19 20 21 21 23 23 23 24 26 25 25 25 25
37 32 30 30 30 31 32 33 32 31 31 29 29 29 28 30 30 30 29 28 28 29 24 16 16 17 18 18 18 17 18 19 21 22 22 23 22 20 21 21 21 22 23
30 30 30 30 30 31 31 32 32 31 30 31 30 30 29 29 28 28 27 24 21 18 18 17 17 19 18 17 16 19 20 20 22 18 17 19 20 21 22 22 22 22 23
29 30 30 30 31 32 32 33 32 31 31 31 30 30 29 29 29 28 27 24 21 17 17 17 18 17 16 16 19 18 18 19 18 17 19 20 21 21 22 23 24 25 26
27 29 30 30 31 32 32 31 31 32 31 30 29 28 28 28 27 26 22 21 18 16 17 17 16 16 15 14 15 18 19 18 18 19 19 19 20 21 22 23 23 23 24
28 30 29 29 29 29 30 32 32 31 30 29 28 28 29 31 31 29 29 25 19 17 17 17 16 15 14 14 18 19 18 17 14 20 20 20 21 20 21 22 22 24 25
29 29 29 28 27 28 28 29 30 31 29 28 28 29 29 27 25 22 23 24 23 22 20 18 17 17 14 17 19 18 18 18 18 19 20 19 20 19 21 21 22 23 24
28 28 28 28 28 28 29 30 31 31 29 29 29 28 28 26 22 22 22 23 22 20 20 19 19 17 17 19 19 20 20 20 19 19 19 17 18 19 21 21 22 24 26
27 27 27 26 25 26 28 30 30 30 30 29 29 29 27 24 24 25 25 21 20 19 20 21 20 19 21 20 20 20 16 16 15 15 17 18 20 18 19 21 23 24 25
26 27 25 25 26 27 28 30 30 30 29 29 29 28 27 26 25 26 25 23 20 19 19 17 15 17 20 19 20 20 17 15 15 13 19 16 15 19 17 22 22 25 26

GFSMA_sfc_30mbdewp_069.txt.gz
Dewpoint
57 55 53 50 47 44 42 41 39 37 37 36 35 34 34 34 36 36 39 53 52 51 47 50 48 47 46 45 45 44 44 43 43 43 44 44 43 41 40 41 42 43 44
55 53 51 48 45 42 40 38 37 34 34 34 34 34 34 32 34 39 43 47 49 48 48 46 46 45 44 43 43 44 44 42 41 42 43 42 41 40 38 39 40 41 42
54 51 48 45 42 42 41 39 37 36 33 32 34 34 33 34 32 33 36 43 42 44 46 45 44 41 40 39 42 41 42 41 39 40 41 40 39 38 38 37 38 39 39
52 49 46 45 44 42 40 38 36 35 34 32 34 33 32 33 32 32 32 32 33 34 37 43 44 43 40 38 37 38 40 41 39 39 39 38 37 37 37 36 36 37 38
51 48 47 46 45 42 41 38 38 36 34 33 32 35 33 32 33 31 31 32 32 32 31 33 36 39 41 41 38 38 37 39 40 40 40 38 38 36 36 35 36 37 37
50 49 47 46 44 41 39 38 38 38 36 36 32 33 35 33 34 34 32 31 33 33 32 32 31 30 35 36 38 39 36 36 35 40 42 41 40 38 37 35 34 34 35
50 49 46 45 43 41 39 40 38 38 37 37 35 34 34 34 35 34 34 33 33 33 34 33 31 31 29 30 31 33 34 36 38 38 38 38 39 40 38 36 35 31 32
49 47 45 43 42 40 40 40 39 37 37 38 34 33 28 28 32 34 34 34 35 33 32 33 34 32 31 28 28 31 31 32 32 32 32 32 33 34 36 36 32 31 31
47 46 44 43 42 40 39 40 40 38 36 38 38 32 24 19 27 33 35 34 35 34 35 33 34 32 32 30 28 27 31 32 30 30 29 30 31 32 32 36 36 35 33
47 45 43 43 41 40 40 40 40 39 38 34 37 37 37 34 22 21 31 33 35 35 35 34 32 33 35 31 28 29 33 35 32 29 29 28 29 29 31 32 30 35 35
46 43 43 42 42 41 42 42 40 39 37 32 30 30 33 33 35 31 25 28 31 33 33 33 32 32 33 29 26 30 31 31 31 30 30 28 29 29 29 30 32 33 30
44 43 41 42 41 40 39 38 37 36 34 34 33 33 31 28 28 31 29 26 27 30 33 32 30 30 30 26 24 27 28 27 27 27 29 30 30 28 27 27 27 28 28
42 41 41 40 39 37 36 34 34 34 34 32 33 32 35 35 33 30 29 27 27 27 31 32 31 29 25 24 23 25 25 24 23 23 24 26 28 30 30 28 27 26 25
42 41 41 41 40 40 36 34 34 33 34 36 36 37 34 32 32 30 28 28 29 25 25 29 28 28 24 24 24 22 21 20 20 21 22 24 24 26 26 27 27 26 25
41 43 45 43 43 37 33 34 33 33 36 36 36 36 33 31 31 30 31 31 30 25 20 22 26 27 27 26 23 20 20 17 20 21 21 22 23 23 23 24 24 24 24
42 45 45 44 39 33 34 34 34 34 34 35 34 33 32 31 30 30 29 30 29 27 23 22 24 26 26 21 18 20 19 18 16 20 22 22 24 24 24 24 23 24 25
44 45 44 39 33 33 33 34 34 34 34 34 33 32 31 31 29 29 30 30 28 29 26 24 27 24 21 19 19 19 17 14 15 18 22 23 24 24 24 25 24 24 24
46 42 38 34 32 32 32 33 33 33 33 33 32 32 31 29 30 30 30 29 28 29 30 26 24 19 19 19 19 18 14 13 16 16 21 20 20 21 21 21 22 23 23
40 36 33 32 32 32 32 33 33 34 33 33 32 32 31 30 29 28 29 28 27 27 26 26 22 18 19 19 18 16 13 16 16 16 16 16 18 21 23 22 23 24 24
33 32 32 32 33 32 32 33 33 33 33 32 33 32 31 30 28 28 29 29 28 26 28 24 19 18 18 18 17 14 11 13 12 13 14 17 19 19 21 22 22 23 24
30 29 30 32 32 32 30 31 32 33 33 33 33 32 31 31 31 30 27 27 27 26 25 21 18 17 17 16 15 12 13 13 14 15 15 15 15 14 16 17 18 21 23
30 31 30 31 31 28 28 29 30 30 31 31 30 30 30 30 31 32 33 32 30 25 22 20 18 18 18 16 16 14 14 14 12 15 15 14 15 14 15 16 17 21 23
32 31 31 31 30 30 28 28 29 29 29 29 30 30 28 28 30 28 28 25 26 26 22 20 21 20 20 19 14 14 14 13 13 13 13 14 15 15 17 17 19 21 23
29 29 30 30 30 28 27 27 29 29 30 30 30 30 29 28 28 28 25 23 22 23 23 22 21 20 20 17 14 16 17 17 16 14 13 15 16 15 17 18 20 23 25
29 29 28 29 28 27 28 27 29 28 28 29 30 30 29 28 28 28 25 25 24 23 22 22 22 22 22 19 21 19 18 17 15 14 14 16 15 13 16 18 21 22 23
27 28 27 28 28 27 28 28 29 29 30 28 29 29 29 29 29 27 27 27 27 24 21 20 20 20 18 18 21 20 18 17 14 13 12 13 12 14 15 17 21 21 23

GFSMA_sfc_30mbdewp_072.txt.gz
Dewpoint
59 58 56 52 50 49 48 46 44 41 39 36 34 32 32 32 32 32 39 51 51 50 48 51 49 47 46 45 44 43 44 42 42 42 44 42 41 40 40 41 41 42 43
59 56 54 52 49 48 46 43 39 35 33 33 33 33 32 30 31 34 35 42 47 48 47 46 46 46 44 44 43 43 43 42 40 40 42 40 40 39 39 39 39 40 41
58 56 53 50 47 46 43 40 37 35 32 30 31 31 30 32 30 30 29 35 39 42 46 47 45 43 41 40 41 41 41 42 40 40 41 39 38 38 38 38 38 38 39
57 54 51 48 46 43 40 38 35 33 32 31 32 30 30 30 31 29 29 29 28 26 40 40 43 44 44 43 40 39 38 38 42 40 40 40 39 37 37 37 36 37 38
55 52 50 48 46 42 41 36 36 35 34 32 29 32 32 30 31 27 30 30 32 28 25 34 32 33 36 38 40 40 38 37 39 41 41 41 40 39 37 37 36 35 35
54 52 50 48 44 42 40 37 37 37 36 35 31 31 35 32 31 31 31 28 30 30 29 30 30 28 31 34 35 35 35 36 38 40 42 43 44 44 42 40 37 34 33
53 51 48 47 44 42 39 41 40 40 38 37 36 35 34 35 34 32 32 30 30 30 31 31 30 27 26 30 32 33 34 34 35 36 36 35 35 35 37 42 38 38 34
52 49 47 45 44 42 41 41 40 39 38 38 36 34 29 28 32 32 31 30 31 32 29 30 32 31 30 28 28 32 31 33 32 32 32 32 32 33 35 37 38 39 39
49 47 47 45 45 41 40 41 41 41 39 39 38 31 22 19 20 24 30 31 31 32 31 31 31 31 30 30 31 29 32 34 32 30 30 30 30 31 31 33 32 37 37
48 47 46 46 44 40 41 41 42 41 40 36 35 33 32 28 18 17 20 26 30 31 31 31 30 30 29 31 31 30 34 34 33 32 31 30 30 30 31 30 32 33 35
48 46 46 45 43 41 42 42 42 41 38 33 27 25 26 27 27 27 27 25 25 25 26 28 30 30 29 30 29 32 31 30 29 29 30 31 31 31 30 29 28 29 29
48 47 45 45 44 42 42 43 41 40 35 31 27 26 24 23 23 24 23 22 21 20 22 27 28 28 28 28 27 26 27 27 26 26 26 27 28 30 31 31 31 30 30
47 46 45 45 42 41 41 40 40 34 32 31 30 26 28 28 28 27 25 24 21 20 22 25 27 27 26 26 25 25 26 25 24 24 23 23 24 25 26 28 29 30 29
46 46 45 43 42 40 41 41 36 33 33 33 32 31 29 29 28 27 25 23 22 22 20 20 23 26 25 24 26 25 26 24 22 22 22 23 23 24 24 25 25 26 27
47 46 44 44 44 44 43 37 34 33 33 33 33 33 32 29 29 29 27 24 22 22 19 17 18 23 25 24 25 26 23 23 23 22 20 23 23 24 25 25 25 26 26
45 45 45 45 45 43 37 35 33 33 32 33 32 32 31 29 29 29 27 26 24 22 21 20 19 20 24 25 23 22 21 22 21 18 18 21 24 24 25 25 25 25 26
44 45 45 47 47 38 34 34 33 31 32 32 31 32 31 31 30 29 27 26 24 23 21 20 20 20 25 25 22 22 21 19 16 16 18 19 22 23 22 22 23 24 24
46 47 47 44 37 33 33 32 31 29 30 30 30 31 31 29 29 29 27 26 24 23 22 22 24 22 25 24 22 22 19 16 14 14 18 19 21 20 21 21 23 23 23
47 44 40 35 33 32 30 31 31 30 31 30 30 30 30 29 29 27 26 24 23 22 22 23 23 23 23 23 20 20 17 15 13 13 16 18 17 17 20 21 22 22 23
39 36 37 33 31 30 30 30 29 29 29 29 29 30 30 29 28 27 25 24 23 23 23 24 24 26 23 21 19 16 14 12 10 11 13 16 17 17 19 20 20 21 22
37 37 31 29 31 31 29 27 26 26 27 26 27 29 30 30 31 30 26 24 23 23 25 26 27 24 19 16 15 14 14 13 12 14 14 14 14 14 15 15 17 19 20
34 29 31 34 32 28 26 28 28 26 24 24 25 25 25 27 30 30 31 31 30 25 26 28 25 22 19 16 17 16 15 12 11 14 14 14 14 14 15 15 17 19 20
33 35 33 30 28 27 29 29 28 25 23 22 23 23 23 22 25 27 28 31 31 31 31 28 25 23 21 23 21 17 13 12 12 13 14 14 15 15 16 14 19 20 20
33 30 29 28 27 26 28 28 26 25 23 23 24 25 25 25 25 26 26 25 24 24 25 25 23 21 20 21 19 17 15 16 17 16 15 15 16 16 17 16 18 20 22
28 26 25 25 25 25 27 28 28 27 26 26 26 26 26 26 26 28 28 28 26 24 24 24 24 25 23 23 22 19 18 18 18 16 14 14 15 13 14 16 19 22 23
24 25 25 26 27 28 29 30 30 29 30 30 29 29 28 28 28 29 29 29 29 26 24 25 23 23 24 23 24 21 19 18 17 15 14 14 13 12 14 16 18 17 21

GFSMA_sfc_30mbdewp_075.txt.gz
Dewpoint
57 56 55 53 51 51 50 49 49 46 41 37 35 33 32 32 33 32 45 50 51 50 49 51 49 48 47 46 44 43 43 41 40 41 42 41 41 40 40 40 41 41 41
59 58 56 53 52 51 50 49 45 39 35 36 35 33 33 31 32 33 34 44 49 50 49 48 47 46 44 43 43 42 43 43 41 40 40 40 39 39 39 39 39 39 39
60 57 55 54 51 50 48 44 39 37 34 33 34 33 31 32 31 31 29 33 43 45 47 48 47 47 45 43 41 41 41 43 43 41 40 40 40 39 38 38 38 37 37
59 58 55 52 50 49 44 40 38 36 36 35 36 33 32 31 31 30 30 29 29 26 43 41 39 38 39 41 43 42 42 40 40 43 42 42 41 41 39 38 38 36 36
58 55 53 51 50 46 42 39 38 39 38 36 33 35 36 32 33 27 31 30 31 31 28 34 31 32 35 34 34 36 37 37 38 39 42 45 44 46 45 41 40 39 36
57 54 52 52 48 44 42 39 40 39 39 39 37 36 38 37 33 32 32 31 30 32 31 31 32 32 35 34 33 32 34 36 37 38 39 40 40 39 38 41 44 42 38
56 54 52 51 46 43 41 43 43 43 41 41 39 39 37 38 37 34 33 32 31 31 31 32 33 30 29 34 34 33 35 34 36 36 36 36 36 36 36 36 39 42 39
55 54 51 49 45 43 43 43 42 41 41 41 40 37 33 32 34 35 33 32 32 32 32 30 31 32 32 30 30 33 32 33 33 34 33 33 33 33 33 34 34 36 39
55 53 50 48 45 44 43 44 44 43 41 41 41 38 31 27 27 27 28 30 33 33 34 32 32 32 31 31 31 34 35 35 35 33 32 32 32 32 33 33 33 33 34
53 51 49 47 47 44 43 44 44 44 43 40 39 36 35 34 30 28 27 26 28 31 31 31 31 31 30 30 30 34 35 33 32 32 32 32 32 32 33 33 32 31 31
51 50 48 47 47 44 44 43 44 44 42 39 35 31 30 28 27 27 27 28 28 25 23 22 26 29 30 29 29 34 32 30 29 28 29 29 30 31 31 32 32 32 31
50 49 47 47 47 45 45 45 45 44 39 37 34 31 27 25 25 26 26 26 22 22 22 21 24 27 28 28 28 30 29 28 27 27 27 27 27 27 27 29 30 31 31
49 49 48 48 47 45 44 46 43 41 40 37 34 31 27 27 29 29 27 25 23 21 21 23 23 25 26 26 26 27 28 29 28 26 26 26 25 25 25 25 26 26 28
51 50 49 48 46 44 44 43 43 40 39 37 35 32 31 29 29 28 26 24 24 22 21 21 21 22 25 26 28 29 27 29 31 25 25 26 24 24 24 25 26 26 27
50 50 49 47 46 45 45 43 39 40 36 35 35 34 33 32 30 28 28 27 25 24 22 21 20 22 23 24 25 25 27 29 28 26 25 23 21 24 25 25 26 27 27
52 49 49 46 47 45 45 43 40 35 35 35 33 33 33 32 30 28 28 27 26 24 24 22 21 23 24 21 23 25 25 26 24 25 27 24 21 22 24 25 25 25 26
48 48 47 45 46 47 47 41 36 35 33 33 33 32 32 32 30 29 28 27 26 25 24 24 23 23 24 26 24 26 25 23 24 22 25 22 21 21 22 24 24 24 24
48 47 46 47 49 46 39 37 36 33 32 31 32 32 30 29 29 29 29 28 27 26 25 24 24 23 24 24 26 29 24 22 21 17 21 21 21 22 21 22 21 23 24
47 48 47 45 43 41 37 33 32 33 32 32 31 29 28 28 28 29 29 27 27 24 24 24 23 24 23 23 23 25 25 23 21 17 18 19 19 21 21 20 21 23 23
45 44 44 44 42 37 32 31 32 31 29 28 27 27 27 27 27 28 28 28 26 26 24 23 22 21 22 23 25 25 24 23 18 15 12 14 16 18 20 22 23 23 24
43 41 41 40 36 30 31 32 30 26 24 24 25 25 25 26 29 30 28 29 28 26 25 23 22 22 24 25 24 24 24 22 20 15 14 16 16 15 16 19 22 24 23
38 38 38 31 33 35 28 26 26 24 23 22 22 21 22 23 24 28 29 30 29 28 27 26 25 24 25 27 24 24 23 20 17 17 14 17 16 15 16 17 18 17 20
34 34 33 36 34 30 27 27 28 26 23 21 21 22 22 21 24 24 26 30 30 30 30 29 27 25 26 26 24 21 20 20 17 14 16 17 18 18 18 15 20 22 22
36 36 34 31 30 27 28 28 28 27 25 25 25 25 26 27 27 27 27 27 27 27 30 30 29 27 25 24 24 24 23 19 17 16 17 18 20 18 19 19 18 21 23
33 31 28 25 25 25 28 28 29 29 29 29 28 27 26 27 28 29 29 29 29 30 28 25 25 27 27 25 23 23 23 21 21 19 19 18 18 16 16 17 20 24 24
26 23 23 25 28 28 30 28 27 27 26 26 24 22 23 22 23 27 30 31 32 29 29 30 27 27 26 24 25 23 22 21 19 18 18 17 20 16 15 17 18 20 22

GFSMA_sfc_30mbdewp_078.txt.gz
Dewpoint
57 56 56 55 53 53 53 51 51 49 42 39 38 36 36 35 36 46 48 49 52 51 53 51 50 49 47 46 44 44 44 43 42 41 41 40 40 40 40 40 40 40 40
59 58 57 55 53 53 52 52 51 44 42 39 37 36 35 35 34 36 46 49 50 51 50 49 48 47 45 43 43 42 42 42 43 42 41 41 40 40 39 39 39 39 38
59 59 56 55 53 55 53 49 43 41 38 37 37 36 37 34 35 32 39 46 49 49 50 49 49 48 47 46 45 44 43 41 42 43 43 42 42 42 41 39 39 38 38
60 58 57 55 55 50 48 44 41 40 39 40 38 37 35 34 33 32 32 34 39 43 48 47 45 41 40 40 38 38 40 40 40 40 42 43 46 45 46 45 41 40 39
60 59 58 56 52 51 48 44 42 41 40 39 38 38 38 37 34 32 32 32 34 34 38 40 35 34 35 33 32 32 33 35 36 38 39 41 43 42 41 41 43 46 44
61 58 56 53 52 48 46 44 42 42 43 42 40 40 40 39 37 34 35 33 34 34 33 35 36 37 37 34 33 33 33 35 37 38 38 39 39 39 39 39 39 39 44
59 58 55 54 53 48 45 46 46 43 42 43 42 42 43 42 38 37 37 35 34 33 35 32 34 34 36 36 36 35 35 33 33 34 36 36 36 36 36 36 36 36 38
59 57 55 54 52 48 47 46 46 45 45 44 42 41 38 40 40 39 38 36 36 34 34 35 34 33 34 33 35 34 34 34 34 35 35 35 34 35 35 35 35 35 35
58 57 56 53 50 49 47 48 46 45 45 45 43 40 36 34 34 36 38 36 34 35 36 36 35 34 34 34 32 37 36 35 34 33 33 34 34 34 34 34 34 34 34
56 56 54 52 49 49 47 48 47 47 45 43 44 43 39 36 34 31 32 32 37 35 35 36 35 34 33 34 32 37 37 34 32 32 32 32 32 32 33 32 32 32 32
55 57 55 52 50 49 49 47 48 45 45 43 39 35 35 36 36 33 28 29 31 32 30 28 30 33 31 33 34 37 35 32 30 29 29 29 31 31 31 31 31 30 31
55 54 53 51 51 49 49 49 48 47 43 39 38 37 34 30 29 30 30 30 30 28 28 27 27 30 33 31 32 36 34 30 28 29 29 29 29 29 29 29 28 28 29
54 53 52 51 50 49 49 48 47 45 41 40 39 36 35 31 31 32 31 31 28 28 27 27 27 29 28 31 33 34 34 31 30 31 30 28 28 28 27 26 26 26 27
53 51 52 51 50 49 48 46 45 44 41 41 37 38 35 35 34 33 31 29 28 28 28 27 28 28 29 30 33 31 33 33 31 32 29 28 28 27 24 25 26 27 27
54 53 52 51 50 47 46 46 43 40 41 42 42 38 37 37 36 35 32 30 29 28 27 28 26 27 27 27 31 30 29 31 34 32 29 29 29 25 23 23 25 26 27
54 53 52 49 47 46 45 43 42 43 44 43 38 38 37 37 36 35 32 31 31 30 28 28 27 26 27 27 25 30 30 29 31 29 29 32 29 26 22 23 23 24 25
52 49 48 47 46 46 46 45 45 44 42 38 37 37 35 36 35 34 33 33 31 30 28 28 28 28 27 27 27 28 31 30 29 28 28 29 29 26 23 24 23 23 24
49 48 48 47 47 48 49 46 43 40 39 37 36 35 35 35 33 35 34 33 32 31 29 28 27 27 27 28 28 28 30 30 27 25 25 27 26 24 26 25 24 24 24
49 48 47 47 47 46 45 44 41 40 37 36 35 34 33 32 32 32 32 32 32 30 29 28 26 26 26 27 25 25 28 31 29 25 24 26 25 26 26 27 25 26 25
48 47 47 46 45 45 43 42 39 35 35 32 32 31 30 30 30 30 30 31 31 30 29 27 26 25 25 25 25 25 26 28 28 25 22 20 18 22 25 27 27 27 27
46 45 45 45 44 42 41 37 34 31 26 25 27 28 27 28 28 27 26 27 28 28 28 28 27 26 25 24 24 26 28 29 28 26 23 19 18 19 20 21 23 24 25
44 44 43 42 40 38 30 27 28 26 26 26 26 25 26 25 24 25 27 28 28 27 28 29 28 29 28 26 26 28 32 30 25 24 21 19 20 19 19 19 20 22 21
40 39 38 38 37 37 28 26 26 28 26 26 26 26 26 25 27 29 29 30 30 31 30 30 29 29 29 28 27 26 26 24 23 22 17 17 20 19 20 20 20 22 24
36 36 38 36 32 31 29 29 29 29 28 28 30 30 30 29 29 28 27 26 29 30 30 31 30 30 31 30 27 25 25 25 23 22 19 16 20 20 23 23 21 20 24
38 36 33 31 28 30 30 29 29 31 31 29 28 27 26 25 24 23 23 24 26 27 29 31 31 32 33 31 26 24 23 22 22 22 22 20 20 21 21 19 20 20 23
34 31 27 33 30 29 28 26 25 26 25 25 25 25 25 25 25 26 26 26 26 26 27 31 30 32 34 33 28 25 24 23 22 21 21 19 19 22 20 19 20 20 21

GFSMA_sfc_30mbdewp_084.txt.gz
Dewpoint
55 55 55 53 51 52 51 52 45 40 39 37 36 36 41 43 44 47 51 54 56 54 51 50 50 49 47 45 44 44 43 44 44 43 42 42 42 42 42 41 41 41 41
56 54 53 51 51 52 52 50 44 39 37 35 35 36 39 44 42 44 50 53 54 53 51 49 50 48 46 46 44 44 45 44 44 44 43 43 45 46 44 44 43 42 42
56 54 53 53 52 53 52 51 44 41 38 36 35 35 35 41 43 44 47 50 52 51 50 49 49 48 47 47 46 39 36 39 40 40 42 43 46 45 45 43 42 44 46
58 56 55 53 54 53 52 50 44 41 39 37 36 36 35 34 36 44 46 47 46 49 50 50 47 42 42 40 33 33 35 36 37 38 40 41 43 43 42 40 40 38 38
59 57 55 54 54 52 50 45 41 39 38 38 37 36 36 34 32 40 43 43 42 45 45 48 43 41 40 36 32 33 35 36 37 37 37 39 40 39 39 38 38 38 38
59 57 56 55 52 49 46 42 40 42 40 40 38 37 38 37 34 34 38 36 37 41 40 42 40 38 40 37 34 35 35 33 34 35 36 37 37 36 36 36 36 36 36
57 58 57 55 51 47 45 42 42 41 42 43 41 42 42 43 38 35 34 33 34 37 38 37 35 35 38 40 37 38 38 36 36 35 35 35 34 34 34 34 34 34 34
56 58 57 55 52 49 45 44 42 42 42 43 40 40 38 39 40 38 37 36 35 36 36 36 34 35 37 39 39 40 37 37 37 36 36 35 34 33 32 32 33 33 33
57 58 56 55 52 49 46 45 43 42 42 43 42 39 37 35 35 35 38 39 37 37 35 35 36 35 35 35 39 42 40 38 38 37 36 36 35 33 31 32 32 32 32
57 58 57 55 53 50 46 45 45 44 44 42 43 42 39 37 33 32 33 33 35 36 36 36 37 37 36 36 36 40 39 39 39 37 37 36 35 33 31 32 32 31 31
58 59 58 55 53 51 47 46 46 45 45 44 42 42 39 38 35 32 30 31 32 32 31 34 31 28 30 35 35 38 40 39 39 38 37 37 35 33 32 31 32 32 29
58 57 57 55 53 51 49 47 47 46 45 44 41 39 36 34 34 34 33 32 30 31 30 29 27 27 28 30 34 38 41 40 39 39 38 36 34 33 32 32 32 31 29
56 56 56 55 53 51 49 48 48 46 45 41 40 39 36 33 32 32 31 30 30 31 30 30 30 29 29 30 31 36 41 41 39 39 38 35 34 33 33 32 32 30 28
56 56 56 55 53 51 50 49 47 45 45 45 45 43 41 38 36 34 32 31 29 29 29 28 29 29 29 29 29 32 38 41 40 38 38 36 35 34 33 33 30 29 27
57 55 55 54 53 50 49 47 46 46 46 45 45 44 43 42 43 39 36 33 31 29 28 29 29 30 30 30 29 30 35 37 40 38 37 37 37 35 34 32 31 30 27
56 55 54 52 49 48 47 47 46 46 46 46 45 43 44 44 41 40 38 36 33 31 29 30 30 30 30 29 29 30 32 36 38 39 38 37 37 36 36 34 32 31 27
55 54 53 50 48 47 47 47 47 47 46 44 45 45 44 43 42 40 37 36 34 33 31 31 32 31 30 29 29 30 31 31 33 35 39 38 36 36 35 35 33 33 28
55 52 51 49 48 47 48 47 46 45 44 44 45 44 43 42 39 37 36 35 34 34 33 31 32 31 30 30 29 28 28 30 30 31 33 34 35 35 35 34 32 34 29
53 51 50 48 47 47 47 47 46 46 46 45 43 42 40 38 36 35 33 32 32 32 32 31 30 30 30 28 27 26 26 26 27 29 30 33 35 36 36 31 32 32 29
51 50 50 49 48 48 48 47 46 46 45 44 42 39 37 34 31 29 29 28 29 29 29 29 28 28 28 28 27 26 25 26 26 27 28 29 29 29 31 31 31 30 31
50 49 49 48 48 48 47 47 46 44 42 39 34 30 28 27 28 28 27 27 28 27 27 27 27 27 27 27 26 27 26 26 27 28 29 30 30 29 29 31 31 30 29
49 48 47 47 46 46 46 45 43 40 38 30 26 25 25 27 31 30 27 26 25 24 24 25 25 25 25 28 28 28 28 29 28 30 30 28 26 24 21 21 20 21 23
47 46 46 46 45 43 44 42 39 31 27 25 24 26 29 27 26 25 25 25 24 25 27 26 25 25 25 27 29 28 28 27 27 29 27 24 21 19 20 19 22 24 25
45 45 45 44 44 39 37 34 30 28 30 30 29 27 26 25 24 27 27 26 26 27 27 26 26 26 27 28 28 29 30 30 31 28 26 25 21 21 20 21 23 25 27
44 43 43 40 36 34 32 30 31 29 27 26 26 26 25 24 27 28 26 24 23 23 25 27 28 28 29 29 30 31 27 24 24 25 25 24 22 20 21 21 22 24 26
38 36 34 33 30 30 30 28 26 26 24 22 23 23 24 24 25 26 25 24 25 25 26 27 28 29 29 28 29 28 28 25 23 23 27 26 24 21 19 22 21 21 19

GFSMA_sfc_30mbdewp_087.txt.gz
Dewpoint
60 59 56 53 53 51 51 45 41 39 37 38 40 40 41 43 46 50 54 55 54 53 50 50 50 48 46 45 45 44 44 45 44 44 43 43 44 43 43 43 43 42 42
58 56 53 51 51 51 51 44 40 38 37 36 37 41 42 41 44 48 53 56 55 53 52 50 50 48 47 46 44 45 44 44 44 43 43 44 47 47 47 45 42 42 44
57 55 52 51 51 52 50 44 40 38 36 36 36 39 43 42 42 45 51 53 52 50 49 49 47 45 44 46 45 35 36 38 39 39 40 46 46 45 42 40 40 39 39
54 54 52 51 52 52 50 44 41 39 37 36 35 35 38 41 42 44 47 49 49 50 51 51 48 43 43 42 34 35 37 37 38 40 41 42 42 42 41 40 39 38 38
55 54 53 53 53 52 51 46 42 39 37 36 35 36 36 34 38 43 44 45 45 47 48 50 46 43 41 38 34 35 36 37 38 37 37 38 39 38 38 37 37 37 36
57 55 54 53 53 52 49 45 41 40 38 37 36 36 37 35 34 40 43 43 42 43 43 45 44 42 42 39 35 35 37 35 35 37 37 36 35 35 34 34 34 34 34
58 56 55 54 52 51 49 44 41 40 40 41 39 40 40 40 37 36 37 39 37 40 40 40 40 37 39 42 38 37 39 37 38 37 36 36 35 34 33 32 33 33 33
57 57 56 54 52 50 47 43 41 41 41 42 39 40 38 40 41 39 36 35 34 36 38 37 36 34 35 40 41 40 39 39 39 38 37 37 36 35 33 32 33 33 33
55 58 58 56 54 50 47 44 43 41 40 43 42 39 37 36 37 37 38 38 37 36 36 36 36 35 35 37 40 43 44 42 38 39 38 38 37 36 34 33 33 33 32
55 56 57 57 54 51 48 45 44 43 42 40 43 42 39 37 34 33 34 34 38 38 37 36 36 36 36 35 36 38 40 43 41 39 38 37 38 37 35 33 33 33 33
56 57 58 56 54 52 49 47 45 44 44 42 42 42 40 37 35 32 31 31 32 33 33 36 37 36 34 36 36 36 40 40 40 41 38 38 39 38 36 35 34 33 34
56 57 58 56 55 53 50 48 48 47 45 44 43 41 39 38 36 34 33 33 30 31 32 30 27 27 28 29 31 35 37 39 40 41 41 39 39 39 37 36 35 34 34
55 55 56 56 55 54 52 51 49 47 47 44 42 40 39 39 37 38 36 34 30 32 31 31 29 29 29 29 29 32 36 37 39 41 41 40 39 38 37 36 35 35 34
54 55 56 57 56 53 52 50 49 47 46 44 43 44 42 42 42 40 36 32 30 30 30 29 30 30 30 30 30 31 33 36 38 39 41 41 40 40 38 36 35 34 34
56 56 56 56 55 53 51 49 47 46 46 46 46 45 44 44 44 41 38 36 34 31 30 30 29 30 31 31 31 31 32 35 38 40 40 40 41 39 39 36 35 34 35
56 56 55 55 54 52 50 49 47 47 46 46 46 45 45 45 44 44 41 37 35 34 31 31 30 30 31 31 31 32 31 34 36 39 41 40 39 39 38 38 36 36 36
56 55 55 55 52 51 50 48 47 47 46 46 46 45 45 44 43 43 41 39 37 34 32 32 32 32 31 31 30 31 31 31 32 35 36 38 39 38 38 37 36 37 37
56 55 54 53 52 50 49 48 47 47 47 46 45 44 43 44 43 42 40 38 36 35 33 32 32 31 31 31 31 30 30 29 29 31 32 33 36 38 38 37 36 36 36
55 54 54 53 51 50 49 49 47 47 47 46 45 44 44 44 42 40 38 36 35 34 33 31 30 31 30 29 28 28 27 27 27 29 32 35 36 37 38 37 36 37 36
56 54 53 52 51 50 49 48 47 46 46 45 45 45 44 42 41 38 33 31 30 28 28 27 27 27 28 28 28 27 26 27 27 27 27 29 29 30 33 34 35 35 33
56 53 52 51 50 49 48 47 47 46 46 45 44 42 40 38 33 29 27 25 26 26 26 26 25 25 25 25 25 26 26 27 28 27 27 28 29 30 30 31 32 32 33
52 51 51 50 48 48 47 47 46 45 44 42 38 32 30 32 30 29 28 27 25 24 23 23 23 23 23 24 25 25 27 27 24 28 28 28 30 29 28 26 27 29 28
50 49 48 48 48 47 45 44 43 41 39 36 32 29 29 27 27 25 25 25 24 25 26 25 24 23 23 24 25 26 26 26 26 25 27 27 27 26 26 23 24 25 25
47 46 46 46 44 43 43 41 39 36 32 30 29 29 27 25 27 28 27 25 26 25 25 26 26 26 26 26 27 27 27 28 28 27 29 25 26 25 23 22 23 25 26
45 44 44 42 40 38 37 35 32 30 28 27 26 26 25 25 26 26 24 22 22 24 25 26 27 28 29 30 30 30 27 26 24 24 26 27 26 24 22 22 22 25 26
42 40 37 36 35 34 33 31 30 28 26 23 23 23 23 23 24 24 23 23 24 24 26 27 27 26 27 29 29 30 28 25 25 23 23 24 24 25 24 23 22 23 24

GFSMA_sfc_30mbdewp_090.txt.gz
Dewpoint
59 57 56 54 52 50 46 41 40 40 39 40 39 39 42 45 49 52 55 54 53 51 51 50 49 47 46 45 45 45 45 44 45 44 44 47 46 46 47 45 44 42 45
59 56 53 52 51 50 45 41 38 38 39 40 39 41 41 43 47 53 55 55 54 53 51 50 50 48 46 45 45 44 44 45 44 44 44 47 46 44 43 42 41 40 40
58 55 52 51 51 50 45 40 38 37 37 38 40 42 41 42 46 52 55 54 54 53 52 51 50 46 47 46 44 37 38 40 40 40 46 46 45 44 43 42 40 39 39
57 54 52 51 52 50 45 40 38 36 36 37 39 41 42 42 43 48 52 52 51 50 50 50 48 44 44 45 36 38 38 38 40 42 42 42 42 42 41 40 38 37 37
55 54 52 52 52 51 45 41 40 38 36 36 35 37 39 40 41 44 47 48 47 48 49 51 48 45 43 39 36 37 39 39 40 39 39 39 39 38 37 36 35 35 35
55 54 52 53 53 51 48 43 40 40 38 36 35 36 36 35 37 43 43 45 44 46 46 49 47 44 43 40 37 36 38 38 37 38 38 37 37 35 34 33 33 33 34
55 53 52 52 52 51 49 44 41 39 39 39 38 38 39 38 36 35 42 43 41 41 43 43 43 41 42 44 39 38 39 39 38 38 38 37 36 35 34 33 33 33 33
56 55 53 53 52 51 49 45 42 40 40 41 37 39 35 38 41 40 36 38 39 38 40 40 41 38 36 40 43 41 40 41 41 40 39 38 38 36 35 34 33 33 33
58 57 54 54 53 51 49 46 43 41 39 41 42 38 37 36 38 39 39 36 36 35 36 38 38 37 35 35 39 43 45 45 40 37 38 39 40 39 37 35 34 34 34
55 57 57 55 54 52 50 48 45 43 42 39 42 43 40 38 36 35 35 37 38 38 37 37 36 36 36 36 37 38 39 41 44 44 39 36 36 39 39 38 36 35 35
55 55 56 57 55 53 51 49 47 44 44 42 41 42 40 37 35 34 33 32 33 34 37 37 37 37 37 37 36 37 38 39 40 42 43 39 35 36 39 39 38 37 36
53 55 56 56 56 54 53 51 49 47 46 45 43 42 41 38 37 35 35 33 32 32 32 31 35 36 33 33 34 34 36 38 40 41 42 41 39 37 37 38 38 36 36
53 53 55 56 55 55 54 51 50 49 48 46 45 43 41 40 40 40 39 38 40 38 32 32 31 29 29 30 31 35 35 34 35 35 36 40 40 39 38 36 34 34 33
53 54 55 55 55 55 54 52 51 51 49 48 46 43 42 42 43 42 41 40 36 33 32 30 31 32 30 30 30 31 33 33 34 35 37 39 41 42 42 40 37 35 35
54 54 54 55 55 55 54 53 52 50 49 48 46 45 44 44 43 43 42 40 40 34 31 31 30 31 31 31 31 33 34 33 35 37 39 40 42 42 42 42 41 38 37
55 55 55 55 55 54 53 52 51 49 48 47 47 45 45 45 44 44 42 38 36 36 36 33 31 31 31 31 32 34 33 34 34 35 36 39 41 41 41 41 41 39 37
55 55 55 55 55 53 52 51 50 49 49 48 47 46 46 46 45 44 43 40 38 36 35 34 32 32 31 31 32 32 32 32 32 34 36 37 39 40 40 40 39 39 38
55 55 55 55 55 53 51 51 51 50 50 48 47 46 46 46 45 44 42 41 39 37 35 33 33 32 32 32 31 31 31 30 30 30 33 35 37 38 39 39 38 38 38
55 55 56 55 55 53 53 52 53 51 49 48 47 47 46 45 44 43 42 40 39 37 35 33 32 31 31 30 29 28 28 28 28 29 30 31 32 35 38 39 38 38 37
56 56 55 55 54 53 53 52 51 50 49 48 48 46 46 45 44 42 41 39 38 36 32 31 29 28 28 28 28 27 26 27 26 27 28 29 30 31 32 34 36 36 36
56 56 55 55 53 52 51 50 50 49 47 46 46 45 44 44 43 41 38 36 34 29 26 25 25 26 26 25 25 25 25 25 27 28 27 28 28 29 30 31 32 34 33
55 55 53 52 51 51 51 49 49 48 46 44 42 40 38 37 36 34 32 30 28 27 25 25 24 23 23 24 24 24 24 24 23 27 27 26 28 27 29 29 30 30 32
53 52 52 51 51 50 49 47 47 46 43 39 36 34 33 33 30 29 27 25 25 25 25 24 23 23 23 24 25 24 25 25 24 25 26 25 26 26 28 27 28 29 30
49 49 48 47 45 42 42 41 40 38 37 35 35 33 30 28 28 27 26 25 25 25 23 24 25 25 26 26 27 27 27 27 26 26 28 25 25 24 26 27 27 28 29
45 43 42 41 39 36 37 36 35 33 31 30 29 28 27 27 28 28 25 22 21 23 26 27 28 28 28 28 29 29 26 27 24 23 25 26 25 24 25 25 25 26 27
39 37 35 35 34 33 33 32 30 28 26 26 27 27 27 27 25 24 23 22 22 25 23 24 22 22 23 25 25 28 28 26 25 23 24 25 24 24 23 25 24 25 26

GFSMA_sfc_30mbdewp_096.txt.gz
Dewpoint
59 56 54 55 55 55 56 55 54 53 52 50 49 50 49 48 50 48 50 54 53 52 51 51 50 49 48 48 47 47 47 46 45 47 47 47 47 44 44 43 42 43 42
58 55 53 53 54 55 55 54 53 49 47 47 48 48 48 48 49 49 49 52 54 53 52 50 50 49 48 47 47 46 47 46 45 48 48 47 45 44 43 42 41 41 40
57 55 54 51 51 52 53 52 50 46 42 41 40 42 44 47 48 50 49 49 52 53 52 52 50 49 47 47 45 46 46 45 45 47 47 46 45 45 43 41 39 39 39
56 55 52 50 49 50 51 49 46 43 42 40 39 40 40 42 47 50 49 48 48 49 53 53 51 49 47 48 42 42 43 42 42 48 47 46 45 43 41 38 37 37 37
56 53 52 50 50 48 47 46 44 44 43 41 39 40 40 40 45 47 50 50 49 48 47 53 53 51 51 48 42 42 42 41 42 44 44 43 41 39 37 35 35 35 35
56 54 53 53 50 47 47 46 45 45 44 42 38 39 41 40 41 46 49 50 49 47 46 47 48 45 49 48 42 43 43 42 43 42 41 40 39 37 36 35 34 34 33
55 55 52 53 50 48 47 48 47 46 44 43 38 39 40 42 42 41 44 48 48 47 43 43 42 39 42 48 43 41 43 44 43 42 41 40 39 38 36 35 35 34 34
55 54 52 53 51 49 49 49 47 46 46 44 40 38 36 37 38 40 40 42 43 41 40 42 42 40 38 39 40 43 42 43 44 42 43 42 41 40 38 37 36 36 35
56 54 51 52 52 51 50 50 48 48 46 44 43 40 39 39 39 39 39 40 41 43 40 40 41 41 40 38 39 42 45 45 44 44 43 43 44 42 41 40 39 38 38
57 56 54 52 53 53 52 52 50 49 47 45 44 44 46 45 41 41 42 41 40 42 43 41 40 41 41 40 39 39 42 44 46 47 45 44 43 44 43 43 42 41 40
57 56 56 55 54 53 54 53 52 51 49 48 46 45 43 43 43 42 42 41 42 41 40 43 42 41 41 41 41 40 39 42 43 45 46 45 44 43 42 42 44 44 43
55 55 55 55 55 54 53 54 54 54 53 51 50 50 48 47 45 44 43 43 47 44 42 42 42 41 41 42 42 40 41 40 40 41 43 44 42 42 43 41 40 39 39
53 54 55 56 55 54 53 54 55 55 55 54 53 52 51 50 49 46 44 47 47 45 40 41 42 43 42 42 42 41 41 40 40 41 42 43 43 43 42 41 40 37 37
49 51 52 52 54 53 54 54 55 55 55 55 55 55 54 54 51 48 47 47 46 45 43 38 39 38 40 40 41 41 40 40 37 36 37 38 40 40 39 38 36 34 33
50 51 52 53 53 53 53 54 54 54 55 55 55 56 55 53 51 51 50 49 47 44 43 43 41 39 37 37 37 38 37 35 35 34 34 36 37 37 38 39 41 42 39
49 49 51 52 52 52 52 53 53 53 53 54 54 54 54 54 53 53 51 49 47 46 44 46 43 44 41 37 36 35 33 36 36 34 35 36 36 37 39 40 41 42 42
50 50 50 51 51 51 51 52 52 52 52 53 54 55 55 55 54 52 51 49 48 48 46 47 49 45 41 40 34 34 34 37 37 36 35 36 36 38 39 40 41 42 42
50 51 51 50 50 50 51 52 53 53 53 53 55 54 53 53 52 52 50 49 48 48 47 46 48 41 41 38 36 36 35 34 35 36 36 36 36 36 36 36 36 37 38
51 51 51 51 51 51 51 52 54 54 54 54 55 54 53 52 51 50 50 48 48 48 47 46 46 39 37 37 37 37 38 37 34 34 32 32 32 33 33 34 34 35 36
51 51 51 51 51 51 51 52 54 54 55 56 55 54 53 52 50 50 50 48 48 47 47 44 41 36 36 37 37 37 37 38 37 33 27 27 27 28 30 31 32 32 32
52 51 51 51 52 53 54 54 55 56 55 54 53 53 53 52 51 50 49 48 47 44 40 39 36 35 35 34 34 37 35 36 36 33 30 24 21 21 22 28 28 30 32
52 52 52 53 54 56 55 55 55 55 53 51 51 45 41 40 38 39 40 38 39 38 36 35 33 33 32 32 32 33 33 33 31 27 22 23 21 20 22 23 24 26 28
54 54 55 54 48 42 42 49 48 46 42 39 38 37 35 34 34 33 32 32 32 32 33 33 32 31 31 32 33 32 31 28 25 24 23 20 22 23 24 22 25 26 28
48 45 41 39 37 35 37 38 37 35 33 32 32 32 31 30 32 32 31 29 29 30 30 31 31 31 31 30 29 28 29 29 27 23 23 23 23 23 24 24 24 27 29
37 35 35 34 33 32 33 33 32 30 28 28 29 29 28 28 29 30 29 28 28 28 31 31 30 30 30 30 30 30 27 24 23 22 23 26 26 24 23 24 24 25 28
33 32 31 32 32 31 32 31 30 28 27 26 26 26 27 27 27 28 28 28 26 27 28 28 28 27 25 25 23 23 23 24 24 24 23 27 25 25 26 22 22 22 22

GFSMA_sfc_30mbdewp_099.txt.gz
Dewpoint
62 60 58 58 57 56 55 54 51 52 51 49 49 49 49 47 47 49 52 55 54 53 52 51 50 50 50 49 49 49 48 47 48 48 48 48 46 45 44 43 43 43 42
61 57 57 57 56 56 54 54 52 52 51 48 49 48 47 48 48 48 50 52 54 54 52 51 50 50 49 49 48 48 48 46 46 49 48 48 45 45 43 42 41 41 40
59 57 57 56 55 55 56 54 54 51 48 46 47 47 47 48 48 48 49 50 52 53 53 52 51 50 49 49 48 47 48 47 46 49 48 47 45 45 43 41 40 39 39
58 57 56 55 55 55 55 52 52 48 45 42 41 42 43 46 47 49 48 49 49 49 52 52 52 50 49 48 47 47 47 46 46 48 48 47 46 45 43 39 38 38 38
57 55 54 53 55 54 53 52 50 47 44 41 40 41 41 42 46 48 48 48 48 48 49 52 52 52 51 49 47 45 45 44 44 48 48 47 45 43 40 37 37 36 36
58 55 54 54 52 52 52 50 49 46 45 44 40 40 42 41 43 46 48 48 48 49 48 51 52 51 53 51 49 44 44 45 43 46 46 44 42 40 38 36 35 35 34
57 56 51 53 52 50 50 50 49 49 47 46 41 41 42 42 43 43 47 48 48 49 48 47 50 48 49 53 51 45 46 45 45 45 44 42 41 39 38 36 36 35 34
57 57 55 54 52 50 51 51 50 48 47 46 42 42 41 40 42 43 43 47 50 48 47 47 46 46 43 43 47 47 45 46 46 46 44 43 42 41 39 38 37 37 36
56 54 55 55 53 52 51 52 52 49 48 47 47 43 41 40 41 41 43 43 45 47 46 44 45 45 45 42 43 45 46 47 47 46 45 45 44 43 43 42 40 39 39
56 56 55 54 54 53 53 53 52 51 49 48 47 45 46 47 44 42 42 43 44 45 47 45 43 45 45 45 43 43 44 44 47 49 48 46 46 46 45 44 43 42 41
57 55 54 54 55 53 53 54 53 53 52 50 47 46 47 47 48 45 44 44 44 43 43 47 46 45 45 45 44 43 44 43 43 47 49 49 49 49 48 46 45 45 44
58 57 55 55 55 55 55 56 55 53 53 52 51 50 48 47 46 47 46 47 46 46 45 44 45 47 46 45 44 43 43 43 43 45 46 48 49 49 47 46 46 46 46
56 56 56 56 56 55 55 56 55 55 55 55 54 53 53 52 52 51 50 48 49 49 49 48 49 47 46 45 44 44 43 42 41 43 45 46 47 48 48 46 44 44 43
55 55 54 53 53 54 55 55 56 53 53 56 56 56 55 54 54 53 51 49 47 48 49 48 48 48 47 47 45 44 43 42 42 42 42 43 43 44 45 46 46 46 45
54 55 55 53 53 53 54 53 52 52 53 55 57 57 56 56 56 55 54 51 49 46 46 48 48 47 46 46 48 47 44 43 42 42 42 42 43 44 44 44 44 42 40
51 52 54 53 53 52 53 53 53 54 54 55 56 56 55 55 54 54 53 52 51 49 48 50 48 49 47 46 46 46 45 45 42 41 40 40 39 40 40 40 40 41 41
52 51 52 52 52 52 53 53 54 54 53 53 54 54 54 54 55 55 55 54 53 52 49 50 50 50 48 47 47 46 46 43 41 40 38 36 36 37 38 39 39 40 40
52 51 51 50 51 51 52 52 53 52 52 53 53 54 54 54 55 55 55 54 53 52 50 48 49 49 50 50 50 46 44 40 39 38 36 37 37 37 38 38 39 39 39
52 52 51 51 51 51 52 53 53 53 53 53 54 54 54 54 54 54 54 52 52 51 50 48 47 49 49 45 45 42 43 40 38 39 39 38 38 38 37 37 36 36 36
52 51 52 52 52 52 51 51 51 52 53 53 55 54 54 55 55 54 53 51 51 49 48 47 46 44 39 38 39 38 38 40 40 43 42 39 37 34 34 34 33 34 34
52 52 52 51 51 51 51 51 51 52 53 54 55 51 40 38 37 38 43 47 48 47 46 44 40 36 36 35 36 37 36 36 38 39 38 38 37 36 34 32 31 31 31
52 52 51 51 52 48 43 48 52 53 47 44 42 37 35 35 34 33 33 32 32 36 37 37 34 34 33 33 33 33 32 31 31 37 35 34 35 32 32 31 29 28 28
52 47 45 42 38 37 38 40 39 37 35 34 34 33 32 33 33 32 30 30 30 31 31 32 31 30 31 31 32 31 31 31 31 33 32 30 33 32 32 26 26 27 28
40 38 36 35 34 34 34 34 33 32 31 30 30 30 30 31 31 30 29 29 29 30 31 31 31 31 32 32 32 32 31 31 32 32 33 28 31 30 27 26 27 27 28
34 33 34 33 32 32 32 32 30 29 28 28 29 29 28 28 28 30 29 29 29 29 30 30 30 30 30 30 30 30 28 28 27 29 32 30 30 30 29 29 29 29 27
31 31 31 31 32 31 32 31 30 29 27 27 26 26 27 26 26 27 28 29 28 29 28 28 29 29 28 29 27 26 26 24 24 23 27 27 28 29 27 29 29 28 28

GFSMA_sfc_30mbdewp_102.txt.gz
Dewpoint
63 63 62 61 55 55 55 53 52 54 52 49 51 50 50 52 53 53 55 55 54 53 52 52 51 51 51 50 50 49 49 49 49 49 48 48 47 45 45 44 44 44 43
63 62 61 60 57 56 55 53 52 54 54 51 51 51 50 50 52 53 54 55 54 54 53 52 51 51 51 50 50 49 49 49 49 49 48 48 46 45 44 43 43 43 42
62 60 59 60 58 56 56 54 54 54 52 50 50 51 50 50 52 52 53 54 54 54 53 52 51 50 50 50 49 49 49 47 48 49 49 48 46 45 43 42 41 41 41
61 58 58 57 57 57 57 55 55 53 51 49 49 49 49 49 51 52 51 52 52 52 53 53 53 52 51 50 50 48 49 49 47 50 49 48 46 46 44 41 41 40 40
60 58 57 58 58 56 56 56 54 51 48 47 46 46 47 48 50 49 51 51 52 51 52 53 53 53 52 50 49 49 49 48 48 48 49 48 47 47 44 41 39 39 38
59 57 56 57 58 57 56 55 52 50 47 46 40 43 45 45 47 50 49 51 51 51 51 52 53 52 52 52 50 49 48 48 47 47 49 48 47 46 44 40 38 38 37
58 56 54 54 54 56 55 54 52 48 47 49 45 45 45 45 47 48 49 50 50 51 52 52 52 51 51 53 52 50 47 47 47 46 48 48 47 44 42 39 38 37 36
58 54 54 54 53 53 54 52 50 49 50 49 46 44 43 43 44 45 47 49 51 50 50 50 52 52 50 51 52 53 49 48 48 47 46 48 46 44 42 40 39 38 38
57 55 54 55 53 52 53 51 52 50 50 49 47 46 43 41 43 45 45 46 47 51 50 49 48 49 50 48 51 52 52 49 50 49 48 49 47 44 43 42 41 41 40
57 57 57 56 55 54 53 53 53 52 50 47 48 48 48 49 46 42 44 45 45 46 49 49 48 47 46 47 46 47 49 49 48 50 51 50 49 47 45 45 44 44 43
56 56 57 56 55 54 54 54 54 52 53 50 48 47 47 48 49 47 45 43 44 44 47 48 47 46 46 46 46 47 45 46 46 48 50 51 51 50 49 48 47 46 45
56 56 55 56 56 55 55 55 54 53 54 53 50 49 48 47 46 47 47 47 46 46 44 44 47 47 47 47 46 45 46 44 45 45 47 50 51 51 51 50 50 48 47
55 55 55 57 57 56 55 54 56 55 55 54 53 53 52 50 50 49 49 48 48 49 47 49 46 45 46 47 48 47 46 45 45 44 45 46 48 50 51 51 51 50 50
54 55 55 56 56 54 54 56 56 56 56 56 54 53 53 53 54 53 52 50 49 50 50 49 50 49 48 47 48 48 47 45 45 45 45 46 46 47 48 50 51 50 50
57 56 55 55 56 55 55 55 54 54 55 54 53 54 53 55 56 55 54 53 51 48 47 48 49 51 50 50 50 49 48 47 46 45 45 46 46 46 46 47 48 48 48
55 56 55 54 54 53 54 54 54 53 53 54 55 55 55 56 56 57 56 55 54 52 49 50 49 50 52 50 50 49 49 48 47 47 46 45 45 45 45 45 45 45 46
55 55 55 55 54 53 54 53 53 52 52 53 54 55 55 55 56 56 56 55 54 53 51 50 51 52 52 51 49 48 48 48 49 48 46 45 44 44 43 44 44 44 44
54 53 55 54 53 53 53 53 53 53 54 54 54 54 54 54 55 55 55 55 55 54 52 51 52 51 51 51 49 48 48 47 47 47 46 46 44 43 43 43 42 42 42
54 53 53 53 52 52 52 53 53 53 53 53 53 53 53 54 54 55 55 55 55 54 53 51 50 50 49 47 47 46 44 45 43 43 42 41 40 41 41 41 40 40 40
53 53 53 52 52 52 52 52 52 53 53 54 53 46 42 41 41 42 46 46 48 49 50 49 48 47 42 40 39 40 40 40 40 43 43 41 40 39 38 38 38 38 38
53 53 53 53 53 53 50 49 53 53 51 46 39 38 36 35 34 34 36 35 37 40 40 40 38 36 35 35 35 36 37 35 37 39 39 38 38 38 38 38 38 38 37
54 54 53 49 43 40 40 48 48 43 40 39 35 34 34 35 33 33 32 32 32 34 34 34 32 32 31 31 32 32 32 32 32 35 34 33 37 35 36 35 35 36 36
46 42 39 38 36 35 35 36 36 35 34 33 33 32 32 32 32 31 31 31 31 31 31 32 30 29 30 30 31 31 31 31 31 33 32 30 33 33 35 34 35 35 35
37 35 34 34 33 33 33 33 32 31 30 30 30 30 29 29 30 31 31 30 30 30 30 30 30 29 30 30 30 30 29 30 30 31 33 27 29 30 32 33 33 34 32
33 33 32 32 31 31 32 31 30 29 28 28 28 29 28 27 27 29 29 29 29 29 30 30 30 30 29 30 29 28 26 24 22 25 29 26 29 28 30 32 33 31 31
31 30 30 30 31 31 32 31 30 28 27 27 27 26 26 26 26 28 25 24 22 23 27 26 26 25 26 27 29 28 26 22 22 22 26 21 22 23 21 25 24 24 26

GFSMA_sfc_30mbdewp_105.txt.gz
Dewpoint
63 61 60 58 57 57 55 51 51 48 48 48 50 52 52 53 54 55 56 55 55 54 53 53 52 52 52 51 51 51 50 50 50 49 49 49 49 49 47 46 46 45 44
62 61 58 56 55 55 53 50 52 50 49 49 50 51 52 53 53 54 55 55 55 54 53 52 52 52 52 51 50 50 50 50 50 49 49 49 47 46 45 45 44 44 43
62 61 57 54 55 54 52 52 52 53 51 51 50 51 52 53 53 54 54 55 54 54 54 54 53 52 52 51 51 50 50 50 50 49 49 49 47 46 44 43 44 42 42
62 61 59 55 57 54 52 53 53 54 51 50 50 50 51 52 53 53 53 54 54 54 54 54 54 53 52 51 51 50 50 49 48 49 50 49 47 47 45 43 42 42 42
61 60 60 57 58 55 55 55 55 53 49 49 49 49 49 52 53 53 53 53 53 53 53 54 54 54 53 52 51 50 49 50 50 48 51 50 49 47 46 44 42 41 41
60 59 59 58 59 55 57 57 54 51 49 48 47 47 48 49 51 52 52 52 52 52 52 52 54 54 54 53 51 51 50 50 50 50 49 50 49 48 48 46 42 41 40
60 59 59 59 59 57 58 56 52 49 47 45 44 44 45 46 48 49 52 51 51 51 52 52 52 52 53 54 53 51 51 50 51 50 49 49 50 49 47 46 43 41 40
59 58 57 57 58 58 57 54 50 49 47 49 43 44 42 43 45 46 49 50 51 52 51 51 51 51 51 52 53 53 51 51 50 50 50 50 51 51 49 46 44 41 40
59 56 56 55 57 57 55 52 50 49 47 50 45 44 43 41 43 44 44 46 49 51 51 51 52 52 51 51 52 52 53 52 53 51 52 52 51 52 51 47 44 42 41
59 56 56 54 55 57 55 53 51 50 49 48 48 49 48 48 42 41 44 45 46 47 51 50 50 51 52 51 51 51 51 52 52 52 52 53 52 52 52 49 46 44 43
58 56 56 55 54 55 54 53 53 52 50 49 47 47 47 48 49 46 42 42 45 45 46 49 50 49 49 49 49 50 51 50 51 51 51 52 53 53 52 51 49 47 45
57 55 56 56 55 55 54 54 54 54 54 52 49 48 46 45 46 47 46 46 43 44 45 46 48 48 48 48 47 47 47 48 49 50 50 50 52 53 53 52 51 50 49
56 56 56 56 56 57 56 55 54 53 54 54 51 49 49 48 48 47 46 46 46 48 47 47 46 48 48 48 48 47 47 47 47 47 49 49 49 51 53 53 53 52 51
56 56 55 56 57 57 57 56 55 55 55 54 53 53 53 51 51 51 50 48 47 48 49 48 49 48 47 47 48 48 48 48 47 47 47 48 48 49 50 52 53 53 53
56 55 54 54 56 57 56 55 55 54 55 55 54 54 54 54 54 54 53 52 51 48 48 49 50 51 51 50 49 48 48 49 49 48 48 47 48 49 49 49 50 51 53
55 55 54 53 55 56 55 55 54 54 53 53 54 54 54 54 54 55 54 54 53 52 50 51 50 50 51 52 52 52 52 51 50 48 47 47 47 47 48 49 48 49 50
54 55 54 53 54 55 55 54 53 54 54 54 54 54 54 54 54 55 56 55 55 54 52 52 53 53 52 52 53 53 51 51 51 49 47 46 46 46 46 47 47 48 48
56 55 55 54 54 53 53 53 53 53 53 52 52 52 53 54 54 54 55 55 55 55 54 52 53 53 53 53 52 52 51 49 48 48 47 47 47 46 45 45 45 45 46
54 56 55 54 54 53 53 53 53 53 52 53 53 54 53 52 53 50 50 51 50 52 52 50 49 51 49 43 44 44 42 42 43 45 43 42 42 42 42 43 43 43 44
55 54 55 55 55 54 54 53 53 53 53 50 45 42 40 40 40 42 41 40 41 43 44 43 43 40 38 38 38 37 37 39 38 41 43 42 40 39 39 40 40 40 40
54 54 54 54 54 52 48 51 53 52 47 41 38 36 36 35 34 35 35 34 36 37 36 36 34 34 32 32 32 33 33 33 34 36 36 37 38 39 39 39 39 39 39
54 52 46 45 42 39 41 47 45 42 38 36 34 34 34 34 33 33 32 32 32 32 31 32 29 29 29 29 31 31 31 29 29 35 32 31 34 34 35 37 36 36 37
43 40 38 37 35 35 36 36 36 35 34 33 32 32 31 32 32 32 31 30 30 30 30 30 28 27 27 28 28 27 26 26 27 29 30 27 30 29 31 32 33 35 36
37 35 34 33 33 33 33 33 33 31 30 30 30 29 29 30 31 32 31 30 29 30 30 30 28 28 29 28 28 27 27 26 24 26 23 22 26 23 24 25 28 32 34
33 32 32 32 31 31 31 30 29 29 28 28 29 29 29 29 28 26 25 23 24 26 27 27 28 29 30 28 23 21 19 18 16 17 22 17 20 17 17 18 23 21 18
31 30 30 31 32 31 32 31 29 28 27 26 27 28 28 25 23 23 23 23 23 24 22 22 24 23 21 21 20 20 19 17 17 14 18 18 16 16 13 16 16 16 17

GFSMA_sfc_30mbdewp_108.txt.gz
Dewpoint
62 62 61 60 59 57 55 53 50 49 49 50 53 52 53 54 55 55 56 56 56 54 53 53 53 53 52 52 52 51 51 50 50 50 50 50 50 50 48 47 48 46 45
62 61 60 58 57 56 53 50 49 48 48 49 52 53 53 54 54 55 55 55 55 55 54 53 53 53 52 52 51 51 50 50 50 50 50 50 50 49 47 46 46 45 45
62 60 58 56 55 53 50 49 51 48 48 50 51 53 53 53 54 54 55 55 55 55 55 54 53 53 52 52 51 51 51 50 50 50 50 49 48 47 46 46 45 44 43
62 59 56 54 54 53 49 50 52 50 49 50 51 52 53 53 54 54 54 54 54 54 55 55 54 54 53 52 52 51 51 51 50 50 50 50 50 48 46 45 44 44 43
62 58 55 53 54 52 48 52 53 52 50 50 50 51 52 53 53 53 53 54 54 54 54 55 55 54 54 53 52 52 52 51 50 50 50 50 50 49 48 46 44 43 43
61 59 55 54 53 53 49 53 53 53 51 50 49 49 51 53 53 53 53 53 53 53 53 53 55 54 54 54 53 52 52 51 52 52 50 51 51 50 49 48 46 44 43
61 60 56 56 54 53 50 54 54 51 49 49 47 46 47 51 52 52 53 52 52 53 52 52 53 53 53 55 54 52 52 52 52 52 52 51 51 52 51 49 49 46 43
61 60 58 56 55 53 54 55 53 50 48 47 46 44 42 43 48 49 52 52 51 52 52 52 52 53 52 53 54 54 52 52 52 52 53 53 53 53 53 51 49 48 45
60 60 59 57 57 56 56 54 52 50 47 47 45 43 42 40 42 44 47 51 51 51 51 51 51 51 52 51 53 54 54 53 53 53 54 54 54 53 53 53 51 49 48
60 59 59 58 58 57 56 55 52 50 47 45 47 47 46 44 42 41 44 45 48 51 51 51 51 51 51 51 51 51 52 52 53 53 54 54 54 54 53 53 54 52 50
59 58 57 58 58 58 56 54 52 51 49 49 46 48 47 48 48 43 41 42 44 45 47 51 51 51 52 52 51 51 51 51 51 52 53 53 54 54 55 54 54 54 52
59 57 57 57 58 57 55 55 55 54 53 51 49 48 47 46 46 47 45 44 42 43 45 46 48 50 50 51 51 51 50 50 50 51 52 53 53 53 53 54 54 54 54
58 57 57 57 57 58 58 57 56 55 55 54 52 51 49 47 47 47 46 45 45 46 46 47 46 46 47 49 49 49 49 48 48 49 50 51 52 53 52 52 53 54 54
57 57 57 57 57 57 57 57 56 56 55 55 54 53 52 50 49 48 47 46 45 47 48 48 49 47 47 48 48 48 48 48 47 47 47 48 49 50 51 51 52 52 54
58 57 57 57 57 57 56 56 55 55 54 54 54 55 54 53 53 52 51 50 48 46 46 48 49 51 50 48 48 48 48 48 48 47 47 47 48 48 49 50 50 50 51
56 56 56 56 57 57 56 56 55 55 54 54 55 54 54 54 54 55 54 54 53 51 48 48 49 50 51 51 51 50 50 50 50 50 50 48 48 48 48 49 49 49 50
56 55 55 55 55 56 56 56 55 54 54 53 52 52 52 53 53 53 54 54 53 53 51 51 52 53 52 51 52 53 54 54 53 49 46 45 46 46 46 46 46 47 48
55 55 54 54 54 55 55 55 54 54 53 52 53 53 53 53 54 54 54 54 54 54 53 52 53 54 52 48 44 44 42 42 42 44 44 43 42 42 42 43 44 44 45
54 54 54 53 53 53 54 54 54 53 53 53 53 52 52 50 52 48 47 47 46 47 47 46 47 42 42 38 38 39 38 39 37 39 41 42 40 40 40 40 40 40 41
55 54 54 53 53 54 53 53 53 53 53 49 43 40 38 38 39 41 39 39 40 41 40 39 38 36 34 35 35 32 32 33 33 36 35 35 35 35 37 38 39 39 39
55 55 55 54 54 53 52 53 53 53 46 39 37 36 35 35 34 34 34 34 35 35 34 33 32 31 30 29 28 30 30 29 30 33 29 30 31 31 32 32 33 34 36
55 52 52 46 43 42 45 48 47 42 38 36 34 33 33 33 33 32 32 31 31 31 31 30 28 28 27 27 27 25 24 24 24 28 26 25 29 29 28 24 24 28 32
43 41 39 37 36 36 38 38 37 36 34 33 32 32 32 32 32 31 31 31 31 30 29 29 26 26 25 26 26 23 23 23 22 25 20 19 25 21 17 17 17 24 22
38 36 34 33 33 33 33 33 32 31 30 30 30 30 30 30 31 30 29 28 28 28 29 29 28 27 25 23 21 20 19 18 17 19 20 17 17 16 15 16 15 19 16
34 33 32 32 31 31 31 30 29 29 28 28 29 28 27 27 28 28 27 24 22 23 26 24 22 20 18 18 18 17 15 14 13 14 17 12 14 14 12 14 17 11 10
32 32 31 31 31 30 31 29 28 27 26 27 27 27 27 28 27 26 24 20 20 21 20 17 15 14 14 14 13 14 13 11 11 10 14 8 8 9 7 9 10 11 13

GFSMA_sfc_30mbdewp_111.txt.gz
Dewpoint
62 61 62 62 61 59 59 55 53 51 51 52 53 53 53 54 55 56 57 56 56 55 54 54 54 53 53 52 52 51 51 50 50 50 50 51 50 50 50 49 48 48 47
61 62 62 61 59 57 55 54 51 50 50 52 52 53 53 54 55 55 56 56 56 55 55 54 54 53 53 52 52 51 51 50 51 51 50 50 50 50 49 48 48 46 46
62 62 61 59 57 55 53 51 50 49 50 52 52 53 53 54 55 55 55 55 56 55 55 55 54 53 53 52 52 51 51 51 51 51 50 50 50 50 48 47 47 45 45
61 61 59 58 56 53 51 50 50 49 49 52 52 53 53 54 54 54 55 55 55 55 55 55 55 54 53 52 52 52 52 51 51 51 51 50 50 49 48 47 46 46 45
61 59 58 56 54 51 49 49 50 49 49 51 52 52 53 53 54 54 54 54 54 54 54 55 55 55 55 53 53 52 52 52 51 51 51 51 51 50 49 48 47 45 45
60 59 56 54 53 49 48 49 50 51 50 51 51 52 52 53 53 53 53 53 53 53 53 54 55 54 54 55 54 53 53 53 53 52 51 51 52 51 51 50 48 46 45
60 58 55 54 51 47 47 50 51 49 50 50 49 49 50 52 52 53 53 53 53 53 53 53 53 54 54 55 55 53 53 53 53 53 53 53 52 53 53 52 50 50 48
60 58 54 54 51 47 48 51 51 51 49 49 47 46 45 47 50 51 52 52 52 52 52 52 52 53 53 53 54 55 54 53 53 53 54 55 55 54 54 54 52 51 50
61 58 55 54 51 50 48 52 52 51 48 48 47 45 42 42 45 46 50 52 51 51 52 52 52 52 53 52 53 54 55 55 55 54 55 55 56 55 55 54 55 54 52
61 61 57 55 52 52 48 52 53 52 50 47 47 45 44 44 41 41 45 47 51 51 51 51 51 51 52 52 52 52 52 53 54 54 55 55 56 56 56 56 55 55 55
61 61 59 56 54 52 54 52 54 52 49 48 46 47 47 48 45 42 41 42 45 47 50 51 51 51 51 51 51 51 51 51 51 52 54 54 55 55 55 56 56 56 55
60 60 60 58 57 56 56 54 54 52 50 48 48 47 47 46 47 46 45 44 42 43 45 47 50 51 51 52 52 51 51 50 50 51 52 53 54 55 55 55 55 55 55
59 59 59 59 59 58 57 55 54 53 52 50 50 49 49 47 48 48 47 46 46 46 46 47 46 47 49 51 51 51 51 51 50 50 51 52 52 53 54 54 54 54 54
59 58 58 58 59 58 56 56 55 55 55 54 53 53 52 51 51 49 47 47 46 46 47 46 49 47 47 47 48 48 49 49 49 48 49 49 50 51 51 51 52 52 53
58 58 58 58 58 58 57 57 56 56 56 56 55 55 54 54 54 53 51 49 47 47 46 48 48 50 49 48 48 48 48 48 48 48 48 48 48 48 49 49 49 50 51
58 57 57 57 58 58 57 57 56 56 55 56 55 54 54 55 55 55 54 53 52 50 49 49 49 49 50 51 52 51 51 52 49 44 44 44 44 44 44 45 46 46 47
57 57 57 56 56 56 57 56 56 55 55 54 55 54 53 54 54 54 55 54 54 53 51 51 51 52 50 49 45 45 44 44 44 41 43 42 41 41 40 40 40 40 41
56 56 56 56 56 56 55 55 55 55 55 54 54 54 53 53 53 53 54 53 53 53 53 51 53 45 40 40 41 38 39 36 37 38 38 36 36 36 38 38 39 39 39
55 55 55 55 55 55 55 55 55 54 54 54 53 53 51 50 51 48 47 48 47 46 45 46 43 39 38 35 35 34 35 33 33 36 31 32 32 32 33 33 33 32 32
55 54 54 55 55 55 55 55 54 54 52 47 42 40 39 40 41 41 40 39 40 40 38 38 36 33 32 33 32 28 28 27 28 31 28 29 27 31 30 26 26 24 30
54 54 54 53 53 53 53 54 53 52 45 39 36 35 35 35 34 35 34 34 35 34 33 32 31 29 27 27 25 26 24 24 27 25 23 22 27 27 23 19 19 19 22
54 54 52 50 49 47 47 51 49 44 39 36 34 33 33 33 32 32 31 31 31 30 29 27 27 25 25 25 25 23 21 19 19 25 20 17 24 21 18 14 14 15 22
47 45 43 42 41 40 42 42 40 37 35 33 32 32 31 32 31 30 30 30 30 29 29 27 23 23 20 20 21 19 18 17 15 18 17 14 18 16 14 13 12 18 18
40 38 36 35 35 35 36 35 33 32 31 31 31 31 30 30 29 28 26 27 27 26 25 24 22 21 20 18 17 16 15 14 12 16 13 13 13 10 10 10 11 16 14
35 34 33 33 32 32 32 32 31 29 28 27 27 28 28 29 30 28 24 23 23 21 19 18 17 16 14 13 12 11 9 8 6 4 12 7 7 9 8 8 13 10 9
32 32 31 31 31 30 31 31 29 27 26 26 27 28 28 27 25 24 22 20 17 15 15 13 12 11 9 9 10 10 10 9 8 6 9 8 8 8 7 8 7 8 4

GFSMA_sfc_30mbdewp_114.txt.gz
Dewpoint
60 62 62 63 61 61 60 57 53 53 53 53 54 54 54 55 55 56 57 56 56 55 54 54 54 54 53 52 52 51 50 51 51 51 51 50 50 50 50 49 49 48 48
61 62 62 62 61 60 59 55 52 51 52 53 53 53 54 54 55 56 56 56 56 56 55 54 54 53 53 53 52 51 51 51 51 51 51 51 50 51 50 49 49 48 47
61 61 61 61 59 58 57 53 50 51 52 52 53 53 54 54 55 55 56 56 56 56 55 55 54 54 53 53 53 52 51 51 51 51 51 50 50 50 50 48 48 47 46
61 61 61 60 58 56 55 53 50 50 51 52 52 53 53 54 55 55 55 55 55 55 55 55 55 54 54 53 53 52 52 52 52 51 51 51 51 51 51 49 48 47 47
62 61 61 59 56 54 54 52 49 49 51 52 52 52 53 53 54 54 54 54 54 54 55 55 55 55 54 54 53 53 52 52 52 52 52 52 51 51 51 49 49 48 47
61 61 60 57 55 52 51 52 49 50 51 52 52 52 52 53 53 54 54 54 54 54 54 54 55 55 55 55 54 54 53 53 52 52 52 52 52 52 52 52 51 50 48
60 60 57 56 54 51 50 50 49 49 50 52 51 50 50 52 52 53 53 53 53 53 53 53 54 54 54 55 56 54 54 54 53 53 53 53 53 53 54 54 53 52 51
59 58 57 55 52 49 49 49 49 49 50 51 49 48 48 49 51 52 52 53 53 53 53 53 53 53 53 53 54 55 54 54 54 54 55 56 56 56 55 54 55 55 53
59 57 56 55 52 48 47 48 49 48 48 49 50 47 45 46 48 49 51 52 52 52 52 52 52 52 53 53 53 53 54 55 55 54 56 56 57 57 57 57 56 56 55
59 57 55 54 51 47 47 48 50 49 49 48 48 46 45 45 45 44 46 50 52 51 51 52 52 52 52 52 52 52 52 52 53 55 55 56 56 56 57 57 57 57 56
60 58 56 55 52 50 47 48 51 50 50 49 47 46 46 46 45 42 42 45 46 50 52 51 52 52 52 52 52 52 52 51 51 52 54 55 56 56 56 56 56 57 56
60 60 57 56 53 52 50 50 53 53 51 50 48 46 45 44 45 44 43 43 43 44 47 50 51 52 52 52 52 51 51 51 50 51 52 53 54 55 56 56 56 56 56
59 60 59 57 56 53 54 51 54 53 51 50 49 47 47 47 48 48 47 46 45 47 47 47 47 48 49 51 51 52 52 51 51 50 51 52 52 53 53 53 53 53 54
59 60 60 58 57 54 56 54 54 53 52 51 50 50 50 50 50 49 48 47 46 47 47 47 48 48 48 48 49 49 50 50 49 48 48 48 49 49 50 50 50 51 51
58 60 60 60 58 57 57 55 54 53 53 53 53 53 53 54 54 54 53 51 49 46 46 48 48 50 50 49 49 49 50 43 43 44 44 44 44 44 44 44 44 44 44
58 58 59 60 59 58 57 56 55 55 54 54 54 54 54 54 54 54 54 54 52 50 49 50 51 51 50 50 45 46 45 42 41 40 40 39 39 39 39 39 40 40 40
58 58 58 58 58 57 57 56 55 55 54 54 55 54 54 55 54 55 55 54 54 53 51 52 52 47 42 42 39 40 38 39 39 36 35 34 34 35 35 35 33 33 33
57 57 57 58 57 57 57 56 55 55 55 54 54 54 54 54 54 54 54 53 54 53 52 51 47 40 36 39 37 36 34 32 38 34 32 28 31 32 32 30 28 26 31
56 56 56 56 57 57 57 56 56 55 55 55 54 54 54 54 53 52 52 51 49 47 46 47 38 36 35 33 33 33 31 30 33 29 27 23 28 29 26 23 23 22 21
55 55 55 55 55 56 56 56 55 55 51 48 46 45 45 47 48 46 44 43 42 40 39 39 34 32 31 30 29 26 26 26 29 24 22 19 24 24 21 17 16 16 17
55 55 55 55 55 55 55 55 53 48 43 39 37 36 36 37 37 37 37 37 37 35 33 31 29 27 26 26 24 23 20 21 26 21 18 17 22 21 18 13 11 13 18
54 54 53 52 51 51 53 52 47 42 39 36 34 33 33 32 32 31 31 31 32 31 29 27 26 22 21 22 21 19 16 15 12 21 17 13 20 14 13 6 9 14 19
49 47 46 46 45 45 47 45 41 38 36 34 32 31 31 31 30 30 29 27 27 26 25 23 21 21 17 18 17 14 13 11 8 14 12 11 14 9 8 5 11 15 16
42 40 39 38 37 36 38 37 35 34 33 32 32 31 30 29 29 27 25 24 23 22 22 21 19 17 16 13 13 12 10 9 8 13 9 8 5 6 8 7 11 13 12
36 35 34 34 33 32 33 33 32 30 29 29 30 29 29 28 29 26 23 20 19 19 19 16 14 13 12 11 10 9 7 6 4 2 10 6 7 7 4 5 9 7 5
33 32 31 31 32 31 32 31 30 29 27 26 26 27 26 26 25 23 21 19 17 15 13 11 8 7 7 7 8 7 8 6 5 3 7 6 5 4 3 2 3 3 3

GFSMA_sfc_30mbdewp_117.txt.gz
Dewpoint
62 62 62 63 63 62 61 60 58 58 58 57 56 56 56 56 56 55 55 56 56 55 56 55 54 53 52 53 53 52 52 51 51 50 50 50 51 51 51 50 50 49 48
62 62 62 63 63 62 60 58 56 57 56 56 56 56 55 55 54 56 54 54 56 55 55 54 54 53 53 53 53 52 51 51 51 51 52 51 51 51 51 50 50 49 48
61 61 61 62 62 61 59 57 55 55 55 55 55 55 55 55 55 55 55 54 55 55 54 55 54 54 53 53 53 52 52 52 52 52 51 51 51 51 51 50 49 49 47
61 61 61 61 61 60 58 55 54 53 54 54 54 53 52 53 55 55 55 54 53 53 54 55 55 55 54 54 53 52 52 52 52 52 52 51 51 51 51 51 49 49 48
62 61 61 61 59 58 56 55 53 53 53 53 53 53 52 53 54 54 54 55 54 53 52 55 55 55 55 54 53 53 52 53 52 52 52 52 52 51 52 51 50 49 49
62 61 61 60 58 57 56 54 53 52 52 52 51 52 53 53 54 54 54 54 54 54 54 54 54 53 55 55 54 54 53 54 53 53 53 52 52 53 53 52 52 52 51
61 62 61 59 58 56 55 55 53 52 52 53 52 52 52 53 54 54 54 53 53 54 54 54 53 53 53 56 56 55 54 54 54 54 54 54 54 54 55 55 54 54 53
60 61 61 58 57 56 55 53 52 51 52 53 50 50 49 51 52 53 53 53 53 53 53 54 53 54 53 52 53 56 55 55 55 55 55 56 56 56 56 55 55 56 56
60 60 59 58 56 54 53 53 52 51 50 52 52 49 48 47 50 52 53 53 53 53 53 54 54 53 54 53 53 54 55 55 55 55 55 56 57 58 58 58 58 57 57
58 58 58 57 54 53 52 53 52 51 51 51 52 49 50 49 47 47 50 52 53 53 53 53 53 53 53 53 53 53 52 53 53 54 55 55 56 57 57 57 58 58 57
58 57 57 56 53 52 51 51 52 51 51 51 51 48 48 48 49 47 46 48 51 52 52 53 53 53 53 53 53 53 53 52 51 52 54 55 55 56 57 57 57 57 57
58 58 57 55 54 51 50 50 51 52 52 52 51 49 47 45 45 45 45 47 48 49 51 52 53 53 53 53 53 52 52 51 51 51 52 53 53 54 54 54 54 54 55
59 58 57 56 54 53 51 50 51 52 52 52 52 50 49 47 48 48 48 47 47 48 49 49 50 51 52 52 52 51 51 50 49 49 50 51 51 51 52 51 52 53 53
59 59 58 57 56 54 51 51 52 52 52 53 52 51 50 50 50 50 48 48 47 48 49 49 50 50 50 52 51 50 45 44 44 45 46 46 46 46 46 46 46 46 46
59 60 59 58 57 55 55 52 52 52 53 53 52 52 51 53 54 53 52 51 49 46 47 49 49 52 53 49 50 44 43 42 41 40 40 41 41 41 41 41 41 41 41
58 60 60 59 58 56 55 53 52 53 53 53 53 52 53 55 55 54 54 53 52 50 48 51 51 49 48 44 44 43 41 38 37 36 36 36 36 36 35 34 33 34 35
58 58 58 59 58 57 56 55 53 53 52 53 53 52 53 54 54 54 54 54 53 53 51 52 52 45 41 40 40 39 38 38 36 31 31 33 34 31 30 30 28 27 30
58 58 58 58 58 58 57 56 54 53 52 53 53 53 54 54 54 54 54 53 53 54 52 51 46 38 37 36 36 33 33 36 34 30 25 28 29 26 24 22 21 20 20
57 57 57 57 57 58 57 56 55 54 54 53 53 53 53 54 53 54 54 54 53 52 51 51 39 37 33 34 32 31 30 32 29 27 22 20 25 23 21 17 14 16 18
56 56 56 57 57 57 57 56 56 55 55 55 54 54 54 54 53 52 51 49 47 45 44 41 35 31 31 30 28 25 24 25 27 21 19 15 25 21 17 12 9 15 18
56 56 55 55 56 56 56 56 54 48 45 42 40 39 39 39 39 40 42 41 41 39 37 34 30 27 26 23 22 21 21 22 25 18 14 10 17 12 9 4 4 13 19
55 54 54 53 53 51 49 47 46 42 39 37 34 33 33 33 32 31 30 29 32 33 30 26 23 21 21 20 19 16 14 13 13 15 10 10 15 7 6 2 7 14 17
50 48 47 46 45 44 44 42 39 38 35 33 32 31 30 30 29 27 26 25 24 24 24 23 21 18 15 16 15 11 10 8 6 12 10 8 5 5 3 1 5 12 13
45 43 40 39 38 37 38 36 35 34 32 32 31 30 29 28 26 25 23 22 21 20 19 19 17 16 14 12 10 11 10 10 6 9 7 7 3 2 2 1 4 11 9
37 36 35 34 33 33 34 34 33 31 29 29 29 29 28 27 26 24 21 20 19 19 19 17 16 15 15 15 13 14 8 7 5 -1 7 4 3 0 0 1 0 3 4
33 32 32 32 32 31 33 32 31 30 27 26 27 27 26 25 23 21 19 18 16 13 11 12 13 13 11 13 13 11 10 7 4 4 2 4 1 -0 3 0 0 0 1

GFSMA_sfc_30mbdewp_120.txt.gz
Dewpoint
61 61 62 61 63 63 62 60 59 56 56 58 56 56 55 53 51 49 52 57 57 57 55 56 54 53 53 52 52 54 53 52 52 52 52 52 52 51 51 51 50 49 48
63 62 61 63 62 62 61 59 57 55 56 57 57 56 55 52 51 51 52 55 56 56 56 55 55 53 53 54 53 53 52 52 51 51 51 52 51 52 51 50 50 49 48
63 62 62 62 63 63 61 60 58 55 55 56 56 56 54 51 50 52 51 52 54 56 57 57 54 54 54 53 53 52 52 52 52 52 52 52 52 52 52 50 50 50 49
64 63 62 62 62 63 61 59 56 55 55 56 55 54 52 51 52 51 50 50 50 51 55 56 55 54 55 53 53 53 53 53 52 52 52 52 52 51 52 52 50 49 50
63 62 62 62 63 61 60 58 57 55 55 54 54 53 51 51 53 50 50 50 50 49 50 55 55 55 55 55 53 53 53 53 53 53 52 52 52 52 52 52 52 51 50
63 62 62 61 62 60 59 58 56 54 54 53 52 52 52 52 52 52 51 50 50 50 49 52 53 53 55 55 54 54 53 53 53 53 53 53 53 53 53 53 53 53 52
63 62 62 61 60 59 58 58 56 54 52 53 53 52 52 53 53 52 52 50 49 50 50 50 50 49 52 56 56 55 54 53 55 55 55 54 54 54 55 55 55 55 54
62 62 61 61 60 59 58 57 55 53 51 53 51 51 50 52 52 53 52 50 50 50 50 51 50 49 48 50 52 55 55 55 55 55 56 57 57 57 57 57 57 56 56
60 61 61 61 59 58 57 56 55 54 52 53 52 48 47 47 50 52 52 51 52 51 50 51 52 52 52 51 52 53 55 56 56 56 56 57 57 58 58 58 58 58 58
61 61 60 60 59 58 57 56 55 54 53 52 51 48 47 45 47 49 51 52 52 52 52 52 52 53 53 53 53 53 53 53 54 55 55 55 56 57 57 58 58 58 58
60 60 60 59 59 58 57 56 55 55 54 53 52 50 49 50 48 45 46 49 51 52 52 53 53 53 53 53 53 54 53 53 52 53 54 54 55 55 55 56 56 56 56
58 59 58 57 57 57 56 56 55 55 54 54 52 51 50 48 47 46 43 47 48 50 51 52 53 53 53 53 54 53 52 51 51 51 52 52 53 53 53 54 54 54 55
57 57 57 56 55 55 56 56 55 54 54 54 53 52 49 48 45 45 44 46 46 49 50 52 52 52 52 54 52 50 46 47 48 49 49 49 49 50 50 50 51 50 50
59 58 57 55 55 54 55 54 54 54 55 55 54 53 50 48 47 46 45 48 47 47 49 49 50 51 52 53 48 45 43 43 43 44 45 45 44 44 44 44 43 43 43
59 59 58 57 56 54 54 54 53 53 54 55 55 55 51 49 50 50 50 50 47 47 46 51 51 53 49 47 46 43 41 39 39 39 39 39 40 38 37 36 37 37 38
60 60 59 58 57 56 54 54 53 52 53 54 55 55 53 54 55 55 54 53 52 50 48 51 52 48 46 43 43 40 38 35 35 35 36 36 34 33 32 30 29 28 29
58 59 59 59 58 57 56 54 54 54 52 53 53 53 53 55 55 55 55 54 53 52 49 53 48 44 41 40 38 40 38 34 32 31 33 31 28 26 25 23 21 21 21
57 57 58 58 59 57 56 55 54 54 53 52 53 53 53 54 54 55 54 53 53 54 51 50 44 37 37 36 35 34 36 35 31 29 24 27 25 23 21 17 16 18 20
57 58 58 58 58 58 57 56 55 54 53 52 52 52 53 53 53 53 53 53 53 53 53 52 39 36 33 34 33 31 31 32 29 25 18 23 25 22 18 14 12 16 19
56 57 58 58 57 58 58 57 56 55 54 53 53 53 53 53 52 53 53 53 53 51 47 41 34 32 30 29 27 27 25 28 26 19 16 14 20 16 13 9 7 14 18
56 56 57 57 56 57 57 57 56 55 54 49 45 44 44 46 47 49 50 47 47 42 38 34 30 27 26 23 22 20 19 23 22 16 12 11 15 9 8 5 4 9 16
56 56 55 53 51 48 50 50 48 44 40 38 35 34 33 33 32 32 32 32 36 37 33 28 25 23 22 21 20 18 19 18 17 14 10 10 9 5 6 2 5 10 14
52 49 47 45 42 40 41 40 39 37 36 34 33 31 30 30 29 27 27 26 25 26 27 25 21 19 17 17 16 15 14 11 12 8 10 10 6 4 2 1 4 8 11
46 43 40 39 37 36 36 35 34 33 32 31 31 30 28 27 27 25 23 21 20 19 19 18 17 15 14 13 13 13 14 12 8 9 8 13 6 1 1 2 3 4 6
39 38 36 36 35 34 34 33 32 31 30 29 29 28 28 27 26 25 22 20 19 19 18 17 17 17 16 16 15 14 12 13 9 2 7 5 4 1 2 3 1 2 4
35 34 33 33 33 33 33 33 31 30 28 26 26 26 25 24 22 21 19 17 15 15 14 12 13 13 10 10 9 8 10 9 6 7 5 6 3 1 6 3 2 3 4

GFSMA_sfc_30mbdewp_123.txt.gz
Dewpoint
63 63 62 61 59 61 62 62 63 61 58 52 52 56 54 50 49 50 53 57 58 58 56 57 55 56 55 55 55 55 53 53 52 52 52 53 53 52 52 51 50 50 49
64 62 62 62 60 62 64 63 62 60 56 54 55 56 52 50 49 50 53 56 57 57 58 57 56 54 54 53 53 52 53 52 52 52 52 52 52 52 51 51 51 49 49
65 62 62 63 62 64 62 63 61 59 56 56 57 57 52 50 48 49 52 55 56 56 57 57 56 54 54 54 54 53 52 53 52 52 52 52 52 52 52 51 50 50 49
65 64 63 63 63 62 62 62 60 59 56 54 56 55 50 49 48 50 49 50 51 53 56 57 55 55 54 53 54 53 53 53 53 53 53 52 52 52 52 52 51 50 50
66 65 63 62 62 62 62 61 61 58 53 52 56 55 51 48 49 48 48 50 51 50 52 56 55 54 54 54 53 53 53 53 53 53 53 53 53 52 52 52 53 53 52
66 65 64 63 63 62 61 61 59 58 53 53 54 53 51 53 51 49 47 48 48 50 50 53 53 53 55 56 55 54 53 53 53 52 52 52 53 54 54 53 54 54 54
65 64 64 63 62 61 59 60 59 57 53 54 54 52 52 54 53 51 49 46 48 48 49 51 51 49 53 56 56 55 54 53 55 54 54 54 55 56 56 56 56 55 56
64 63 63 62 62 61 59 59 58 56 54 55 53 51 50 52 53 51 51 49 49 47 47 49 49 48 49 51 53 56 56 55 55 55 57 57 57 57 57 57 57 57 57
62 62 62 62 61 60 59 59 58 57 53 53 53 51 49 48 51 52 52 51 50 48 47 48 49 48 47 48 50 54 55 56 57 56 57 57 57 58 58 58 58 59 59
60 60 61 62 61 60 59 59 59 57 55 52 53 52 50 48 49 50 51 52 50 48 50 48 49 50 50 51 52 53 53 54 55 56 56 56 56 57 57 57 58 58 58
60 61 62 62 60 60 59 59 59 57 55 54 53 52 50 49 50 48 49 50 51 49 49 50 50 52 53 54 54 54 52 52 52 53 54 54 55 55 55 55 55 55 55
61 61 61 61 60 59 59 58 59 57 56 55 53 52 50 48 49 48 48 48 49 49 49 50 53 52 53 54 53 49 50 50 50 51 51 52 52 52 52 53 53 53 53
59 59 59 59 59 59 58 58 58 57 55 54 53 52 51 49 49 48 47 48 48 49 50 52 53 54 54 54 49 47 46 47 48 49 49 49 49 49 48 48 48 47 47
59 59 58 57 57 57 58 58 58 57 56 56 54 53 52 51 49 48 46 48 47 50 51 51 53 54 53 48 45 43 42 43 43 44 44 43 42 41 41 41 41 42 41
59 58 58 56 56 56 57 57 57 57 58 57 57 54 52 51 51 49 48 49 49 48 48 51 51 51 50 47 44 41 40 39 39 40 39 38 37 35 34 33 32 31 30
60 59 58 56 55 55 55 56 56 57 57 57 56 54 54 52 51 51 50 50 51 49 48 52 50 47 45 42 40 38 37 37 37 34 32 31 29 28 26 24 23 23 24
59 60 58 57 55 54 55 55 55 56 56 56 55 55 55 53 52 54 55 55 54 52 50 50 46 43 41 40 39 37 35 33 33 33 31 28 26 23 21 20 20 22 23
59 60 59 58 56 55 54 54 54 55 55 55 55 54 54 54 55 56 56 54 53 53 52 50 41 39 37 37 37 37 34 32 30 28 28 27 25 21 18 16 17 20 22
57 58 58 58 58 57 55 55 54 54 54 54 54 54 54 54 55 55 54 54 55 53 52 50 40 35 34 34 32 33 32 30 28 24 19 25 22 19 16 12 14 17 20
56 56 57 57 58 58 57 56 56 56 55 54 54 54 53 54 54 54 53 53 53 52 51 45 37 32 30 30 30 28 27 28 25 17 17 16 21 20 15 10 13 12 17
56 57 57 57 58 58 58 57 56 56 55 55 54 54 53 53 51 51 52 53 52 47 44 40 33 30 27 26 26 25 24 26 21 17 14 15 17 15 13 10 8 8 14
56 56 56 55 52 50 50 55 56 55 52 44 42 39 39 40 37 38 36 35 43 44 38 34 29 27 24 23 23 22 23 26 21 13 12 14 11 9 8 3 7 10 12
54 50 48 46 43 41 42 43 42 39 37 36 34 33 33 33 33 30 28 27 28 29 30 29 26 23 21 21 19 18 17 17 15 8 13 14 9 6 5 4 6 8 9
47 44 41 39 38 36 36 36 35 34 32 32 32 32 31 30 30 27 25 22 22 21 21 20 20 19 19 18 17 18 18 15 15 10 8 17 8 4 5 5 5 6 9
41 39 38 36 35 34 34 34 33 31 30 29 29 29 29 28 28 27 23 20 20 21 21 21 21 21 18 17 18 20 21 20 7 6 8 9 5 3 4 5 5 6 9
37 36 35 35 34 33 34 33 32 30 28 26 26 27 27 26 26 24 20 19 17 18 18 15 14 13 14 13 13 15 16 11 14 8 7 10 5 3 9 7 7 9 12